[[{"header":{"parameterUnit":"m.s-1","parameterCategory":1,"la1":31.0,"la2":29.5877,"lo1":-88.7671,"lo2":-86.6584,"dy":0.0162,"dx":0.0185,"nx":115,"ny":88,"refTime":"2023-03-03T18:00:00:Z","depth":0,"parameterNumber":2,"parameterNumberName":"U-component_of_WINDS"},"data":[0.0,0.0,0.0,0.0,0.0,0.0,0.0,0.0,0.0,0.0,0.0,0.0,0.0,0.0,0.0,0.0,0.0,0.0,0.0,0.0,0.0,0.0,0.0,0.0,0.0,0.0,0.0,0.0,0.0,0.0,0.0,0.0,0.0,0.0,0.0,0.0,0.0,0.0,0.0,0.0,0.0,0.0,0.0,0.0,0.0,0.0,0.0,0.0,0.0,0.0,0.0,0.0,0.0,0.0,0.0,0.0,0.0,0.0,0.0,0.0,0.0,0.0,0.0,0.0,0.0,0.0,0.0,0.0,0.0,0.0,0.0,0.0,0.0,0.0,0.0,0.0,0.0,0.0,0.0,0.0,0.0,0.0,0.0,0.0,0.0,0.0,0.0,0.0,0.0,0.0,0.0,0.0,0.0,0.0,0.0,0.0,0.0,0.0,0.0,0.0,0.0,0.0,0.0,0.0,0.0,0.0,0.0,0.0,0.0,0.0,0.0,0.0,0.0,0.0,0.0,0.0,0.0,0.0,0.0,0.0,0.0,0.0,0.0,0.0,0.0,0.0,0.0,0.0,0.0,0.0,0.0,0.0,0.0,0.0,0.0,0.0,0.0,0.0,0.0,0.0,0.0,0.0,0.0,0.0,0.0,0.0,0.0,0.0,0.0,0.0,0.0,0.0,0.0,0.0,0.0,0.0,0.0,0.0,0.0,0.0,0.0,0.0,0.0,0.0,0.0,0.0,0.0,0.0,0.0,0.0,0.0,0.0,0.0,0.0,0.0,0.0,0.0,0.0,0.0,0.0,0.0,0.0,0.0,0.0,0.0,0.0,0.0,0.0,0.0,0.0,0.0,0.0,0.0,0.0,0.0,0.0,0.0,0.0,0.0,0.0,0.0,0.0,0.0,0.0,0.0,0.0,0.0,0.0,0.0,0.0,0.0,0.0,0.0,0.0,0.0,0.0,0.0,0.0,0.0,0.0,0.0,0.0,0.0,0.0,0.0,0.0,0.0,0.0,0.0,0.0,0.0,0.0,0.0,0.0,0.0,0.0,0.0,0.0,0.0,0.0,0.0,0.0,0.0,0.0,0.0,0.0,0.0,0.0,0.0,0.0,0.0,0.0,0.0,0.0,0.0,0.0,0.0,0.0,0.0,0.0,0.0,0.0,0.0,0.0,0.0,0.0,0.0,0.0,0.0,0.0,0.0,0.0,0.0,0.0,0.0,0.0,0.0,0.0,0.0,0.0,0.0,0.0,0.0,0.0,0.0,0.0,0.0,0.0,0.0,0.0,0.0,0.0,0.0,0.0,0.0,0.0,0.0,0.0,0.0,0.0,0.0,0.0,0.0,0.0,0.0,0.0,0.0,0.0,0.0,0.0,0.0,0.0,0.0,0.0,0.0,0.0,0.0,0.0,0.0,0.0,0.0,0.0,0.0,0.0,0.0,0.0,0.0,0.0,0.0,0.0,0.0,0.0,0.0,0.0,0.0,0.0,0.0,0.0,0.0,0.0,0.0,0.0,0.0,0.0,0.0,0.0,0.0,0.0,0.0,0.0,0.0,0.0,0.0,0.0,0.0,0.0,0.0,0.0,0.0,0.0,0.0,0.0,0.0,0.0,0.0,0.0,0.0,0.0,0.0,0.0,0.0,0.0,0.0,0.0,0.0,0.0,0.0,0.0,0.0,0.0,0.0,0.0,0.0,0.0,0.0,0.0,0.0,0.0,0.0,0.0,0.0,0.0,0.0,0.0,0.0,0.0,0.0,0.0,0.0,0.0,0.0,0.0,0.0,0.0,0.0,0.0,0.0,0.0,0.0,0.0,0.0,0.0,0.0,0.0,0.0,0.0,0.0,0.0,0.0,0.0,0.0,0.0,0.0,0.0,0.0,0.0,0.0,0.0,0.0,0.0,0.0,0.0,0.0,0.0,0.0,0.0,0.0,0.0,0.0,0.0,0.0,0.0,0.0,0.0,0.0,0.0,0.0,0.0,0.0,0.0,0.0,0.0,0.0,0.0,0.0,0.0,0.0,0.0,0.0,0.0,0.0,0.0,0.0,0.0,0.0,0.0,0.0,0.0,0.0,0.0,0.0,0.0,0.0,0.0,0.0,0.0,0.0,0.0,0.0,0.0,0.0,0.0,0.0,0.0,0.0,0.0,0.0,0.0,0.0,0.0,0.0,0.0,0.0,0.0,0.0,0.0,0.0,0.0,0.0,0.0,0.0,0.0,0.0,0.0,0.0,0.0,0.0,0.0,0.0,0.0,0.0,0.0,0.0,0.0,0.0,0.0,0.0,0.0,0.0,0.0,0.0,0.0,0.0,0.0,0.0,0.0,0.0,0.0,0.0,0.0,0.0,0.0,0.0,0.0,0.0,0.0,0.0,0.0,0.0,0.0,0.0,0.0,0.0,0.0,0.0,0.0,0.0,0.0,0.0,0.0,0.0,0.0,0.0,0.0,0.0,0.0,0.0,0.0,0.0,0.0,0.0,0.0,0.0,0.0,0.0,0.0,0.0,0.0,0.0,0.0,0.0,0.0,0.0,0.0,0.0,0.0,0.0,0.0,0.0,0.0,0.0,0.0,0.0,0.0,0.0,0.0,0.0,0.0,0.0,0.0,0.0,0.0,0.0,0.0,0.0,0.0,0.0,0.0,0.0,0.0,0.0,0.0,0.0,0.0,0.0,0.0,0.0,0.0,0.0,0.0,0.0,0.0,0.0,0.0,0.0,0.0,0.0,0.0,0.0,0.0,0.0,0.0,0.0,0.0,0.0,0.0,0.0,0.0,0.0,0.0,0.0,0.0,0.0,0.0,0.0,0.0,0.0,0.0,0.0,0.0,0.0,0.0,0.0,0.0,0.0,0.0,0.0,0.0,0.0,0.0,0.0,0.0,0.0,0.0,0.0,0.0,0.0,0.0,0.0,0.0,0.0,0.0,0.0,0.0,0.0,0.0,0.0,0.0,0.0,0.0,0.0,0.0,0.0,0.0,0.0,0.0,0.0,0.0,0.0,0.0,0.0,0.0,0.0,0.0,0.0,0.0,0.0,0.0,0.0,0.0,0.0,0.0,0.0,0.0,0.0,0.0,0.0,0.0,0.0,0.0,0.0,0.0,0.0,0.0,0.0,0.0,0.0,0.0,0.0,0.0,0.0,0.0,0.0,0.0,0.0,0.0,0.0,0.0,0.0,0.0,0.0,0.0,0.0,0.0,0.0,0.0,0.0,0.0,0.0,0.0,0.0,0.0,0.0,0.0,0.0,0.0,0.0,0.0,0.0,0.0,0.0,0.0,0.0,0.0,0.0,0.0,0.0,0.0,0.0,0.0,0.0,0.0,0.0,0.0,0.0,0.0,0.0,0.0,0.0,0.0,0.0,0.0,0.0,0.0,0.0,0.0,0.0,0.0,0.0,0.0,0.0,0.0,0.0,0.0,0.0,0.0,0.0,0.0,0.0,0.0,0.0,0.0,0.0,0.0,0.0,0.0,0.0,0.0,0.0,0.0,0.0,0.0,0.0,0.0,0.0,0.0,0.0,0.0,0.0,0.0,0.0,0.0,0.0,0.0,0.0,0.0,0.0,0.0,0.0,0.0,0.0,0.0,0.0,0.0,0.0,0.0,0.0,0.0,0.0,0.0,0.0,0.0,0.0,0.0,0.0,0.0,0.0,0.0,0.0,0.0,0.0,0.0,0.0,0.0,0.0,0.0,0.0,0.0,0.0,0.0,0.0,0.0,0.0,0.0,0.0,0.0,0.0,0.0,0.0,0.0,0.0,0.0,0.0,0.0,0.0,0.0,0.0,0.0,0.0,0.0,0.0,0.0,0.0,0.0,0.0,0.0,0.0,0.0,0.0,0.0,0.0,0.0,0.0,0.0,0.0,0.0,0.0,0.0,0.0,0.0,0.0,0.0,0.0,0.0,0.0,0.0,0.0,0.0,0.0,0.0,0.0,0.0,0.0,0.0,0.0,0.0,0.0,0.0,0.0,0.0,0.0,0.0,0.0,0.0,0.0,0.0,0.0,0.0,0.0,0.0,0.0,0.0,0.0,0.0,0.0,0.0,0.0,0.0,0.0,0.0,0.0,0.0,0.0,0.0,0.0,0.0,0.0,0.0,0.0,0.0,0.0,0.0,0.0,0.0,0.0,0.0,0.0,0.0,0.0,0.0,0.0,0.0,0.0,0.0,0.0,0.0,0.0,0.0,0.0,0.0,0.0,0.0,0.0,0.0,0.0,0.0,0.0,0.0,0.0,0.0,0.0,0.0,0.0,0.0,0.0,0.0,-4.6339,0.0,0.0,0.0,0.0,0.0,0.0,0.0,0.0,0.0,0.0,0.0,0.0,0.0,0.0,0.0,0.0,0.0,0.0,0.0,0.0,0.0,0.0,0.0,0.0,0.0,0.0,0.0,0.0,0.0,0.0,0.0,0.0,0.0,0.0,0.0,0.0,0.0,0.0,0.0,0.0,0.0,0.0,0.0,0.0,0.0,0.0,0.0,0.0,0.0,0.0,0.0,0.0,0.0,0.0,0.0,0.0,0.0,0.0,0.0,0.0,0.0,0.0,0.0,0.0,0.0,0.0,0.0,0.0,0.0,0.0,0.0,0.0,0.0,0.0,0.0,0.0,0.0,0.0,0.0,0.0,0.0,0.0,0.0,0.0,0.0,0.0,0.0,0.0,0.0,0.0,0.0,0.0,0.0,0.0,0.0,0.0,0.0,0.0,0.0,0.0,0.0,0.0,0.0,0.0,0.0,0.0,0.0,0.0,0.0,0.0,-4.7198,-4.6339,-4.7137,-4.7198,-4.6358,0.0,0.0,0.0,0.0,0.0,0.0,0.0,0.0,0.0,0.0,0.0,0.0,0.0,0.0,0.0,0.0,0.0,0.0,0.0,0.0,0.0,0.0,0.0,0.0,0.0,0.0,0.0,0.0,0.0,0.0,0.0,0.0,0.0,0.0,0.0,0.0,0.0,0.0,0.0,0.0,0.0,0.0,0.0,0.0,0.0,0.0,0.0,0.0,0.0,0.0,0.0,0.0,0.0,0.0,0.0,0.0,0.0,0.0,0.0,0.0,0.0,0.0,0.0,0.0,0.0,0.0,0.0,0.0,0.0,0.0,0.0,0.0,0.0,0.0,0.0,0.0,0.0,0.0,0.0,0.0,0.0,0.0,0.0,0.0,0.0,0.0,0.0,0.0,0.0,0.0,0.0,0.0,0.0,0.0,0.0,0.0,0.0,0.0,0.0,0.0,0.0,0.0,0.0,0.0,0.0,0.0,0.0,0.0,0.0,0.0,0.0,0.0,-4.7235,-4.7293,-4.6632,0.0,0.0,0.0,0.0,0.0,0.0,0.0,0.0,0.0,0.0,0.0,0.0,0.0,0.0,0.0,0.0,0.0,0.0,0.0,0.0,0.0,0.0,0.0,0.0,0.0,0.0,0.0,0.0,0.0,0.0,0.0,0.0,0.0,0.0,0.0,0.0,0.0,0.0,0.0,0.0,0.0,0.0,0.0,0.0,0.0,0.0,0.0,0.0,0.0,0.0,0.0,0.0,0.0,0.0,0.0,0.0,0.0,0.0,0.0,0.0,0.0,0.0,0.0,0.0,0.0,0.0,0.0,0.0,0.0,0.0,0.0,0.0,0.0,0.0,0.0,0.0,0.0,0.0,0.0,0.0,0.0,0.0,0.0,0.0,0.0,0.0,0.0,0.0,0.0,0.0,0.0,0.0,0.0,0.0,0.0,0.0,0.0,0.0,0.0,0.0,0.0,0.0,0.0,0.0,0.0,0.0,0.0,0.0,0.0,0.0,-4.6749,-4.7469,-4.7567,0.0,-4.745,0.0,0.0,0.0,0.0,0.0,0.0,0.0,0.0,0.0,0.0,0.0,0.0,0.0,0.0,0.0,0.0,0.0,0.0,0.0,0.0,0.0,0.0,0.0,0.0,0.0,0.0,0.0,0.0,0.0,0.0,0.0,0.0,0.0,0.0,0.0,0.0,0.0,0.0,0.0,0.0,0.0,0.0,0.0,0.0,0.0,0.0,0.0,0.0,0.0,0.0,0.0,0.0,0.0,0.0,0.0,0.0,0.0,0.0,0.0,0.0,0.0,0.0,0.0,0.0,0.0,0.0,0.0,0.0,0.0,0.0,0.0,0.0,0.0,0.0,0.0,0.0,0.0,0.0,0.0,0.0,0.0,0.0,0.0,0.0,0.0,0.0,0.0,0.0,0.0,0.0,0.0,0.0,0.0,0.0,0.0,0.0,0.0,0.0,0.0,0.0,0.0,0.0,0.0,0.0,0.0,0.0,0.0,0.0,0.0,0.0,-4.6729,-4.7586,-4.7606,-4.7373,0.0,0.0,0.0,0.0,0.0,0.0,0.0,0.0,0.0,0.0,0.0,0.0,0.0,0.0,0.0,0.0,0.0,0.0,0.0,0.0,0.0,0.0,0.0,0.0,0.0,0.0,0.0,0.0,0.0,0.0,0.0,0.0,0.0,0.0,0.0,0.0,0.0,0.0,0.0,0.0,0.0,0.0,0.0,0.0,0.0,0.0,0.0,0.0,0.0,0.0,0.0,0.0,0.0,0.0,0.0,0.0,0.0,0.0,0.0,0.0,0.0,0.0,0.0,0.0,0.0,0.0,0.0,0.0,0.0,0.0,0.0,0.0,0.0,0.0,0.0,0.0,0.0,0.0,0.0,0.0,0.0,0.0,0.0,0.0,0.0,0.0,0.0,0.0,0.0,0.0,0.0,0.0,0.0,0.0,0.0,0.0,0.0,0.0,0.0,0.0,0.0,0.0,0.0,0.0,0.0,0.0,0.0,0.0,0.0,0.0,-4.6768,-4.7061,-4.7859,-4.7471,-4.7061,-4.6671,0.0,0.0,0.0,0.0,0.0,0.0,0.0,0.0,0.0,0.0,0.0,0.0,0.0,0.0,0.0,0.0,0.0,0.0,0.0,0.0,0.0,0.0,0.0,0.0,0.0,0.0,0.0,0.0,0.0,0.0,0.0,0.0,0.0,0.0,0.0,0.0,0.0,0.0,0.0,0.0,0.0,0.0,0.0,0.0,0.0,0.0,0.0,0.0,0.0,0.0,0.0,0.0,0.0,0.0,0.0,0.0,0.0,0.0,0.0,0.0,0.0,0.0,0.0,0.0,0.0,0.0,0.0,0.0,0.0,0.0,0.0,0.0,0.0,0.0,0.0,0.0,0.0,0.0,0.0,0.0,0.0,0.0,0.0,0.0,0.0,0.0,0.0,0.0,0.0,0.0,0.0,0.0,0.0,0.0,0.0,0.0,0.0,0.0,0.0,0.0,0.0,0.0,0.0,0.0,0.0,0.0,0.0,0.0,-4.8545,-4.79,-4.792,-4.8662,-4.7198,-4.6729,0.0,0.0,0.0,0.0,0.0,0.0,0.0,0.0,0.0,0.0,0.0,0.0,0.0,0.0,0.0,0.0,0.0,0.0,0.0,0.0,0.0,0.0,0.0,0.0,0.0,0.0,0.0,0.0,0.0,0.0,0.0,0.0,0.0,0.0,0.0,0.0,0.0,0.0,0.0,0.0,0.0,0.0,0.0,0.0,0.0,0.0,0.0,0.0,0.0,0.0,0.0,0.0,0.0,0.0,0.0,0.0,0.0,0.0,0.0,0.0,0.0,0.0,0.0,0.0,0.0,0.0,0.0,0.0,0.0,0.0,0.0,0.0,0.0,0.0,0.0,0.0,0.0,0.0,0.0,0.0,0.0,0.0,0.0,0.0,0.0,0.0,0.0,0.0,0.0,0.0,0.0,0.0,0.0,0.0,0.0,0.0,0.0,0.0,0.0,0.0,0.0,0.0,0.0,0.0,0.0,0.0,0.0,0.0,0.0,-4.7178,-4.7451,-4.7723,-4.7977,-4.7451,-4.7293,0.0,0.0,0.0,0.0,0.0,0.0,0.0,0.0,0.0,0.0,0.0,0.0,0.0,0.0,0.0,0.0,0.0,0.0,0.0,0.0,0.0,0.0,0.0,0.0,0.0,0.0,0.0,0.0,0.0,0.0,0.0,0.0,0.0,0.0,0.0,0.0,0.0,0.0,0.0,0.0,0.0,0.0,0.0,0.0,0.0,0.0,0.0,0.0,0.0,0.0,0.0,0.0,0.0,0.0,0.0,0.0,0.0,0.0,0.0,0.0,0.0,0.0,0.0,0.0,0.0,0.0,0.0,0.0,0.0,0.0,0.0,0.0,0.0,0.0,0.0,0.0,0.0,0.0,0.0,0.0,0.0,0.0,0.0,0.0,0.0,0.0,0.0,0.0,0.0,0.0,0.0,0.0,0.0,0.0,0.0,0.0,0.0,0.0,0.0,0.0,0.0,0.0,0.0,0.0,0.0,0.0,0.0,0.0,0.0,-4.7144,0.0,-4.8271,-4.8002,-4.7744,-4.7471,0.0,0.0,0.0,0.0,0.0,0.0,0.0,0.0,0.0,0.0,0.0,0.0,0.0,0.0,0.0,0.0,0.0,0.0,0.0,0.0,0.0,0.0,0.0,0.0,0.0,0.0,0.0,0.0,0.0,0.0,0.0,0.0,0.0,0.0,0.0,0.0,0.0,0.0,0.0,0.0,0.0,0.0,0.0,0.0,0.0,0.0,0.0,0.0,0.0,0.0,0.0,0.0,0.0,0.0,0.0,0.0,0.0,0.0,0.0,0.0,0.0,0.0,0.0,0.0,0.0,0.0,0.0,0.0,0.0,0.0,0.0,0.0,0.0,0.0,0.0,0.0,0.0,0.0,0.0,0.0,0.0,0.0,0.0,0.0,0.0,0.0,0.0,0.0,0.0,0.0,0.0,0.0,0.0,0.0,0.0,0.0,0.0,0.0,0.0,0.0,0.0,0.0,0.0,0.0,0.0,0.0,0.0,0.0,-4.7125,-4.8771,-4.9563,-4.9524,-4.8907,-4.8041,-4.7217,0.0,0.0,0.0,0.0,0.0,0.0,0.0,0.0,0.0,0.0,0.0,0.0,0.0,0.0,0.0,0.0,0.0,0.0,0.0,0.0,0.0,0.0,0.0,0.0,0.0,0.0,0.0,0.0,0.0,0.0,0.0,0.0,0.0,0.0,0.0,0.0,0.0,0.0,0.0,0.0,0.0,0.0,0.0,0.0,0.0,0.0,0.0,0.0,0.0,0.0,0.0,0.0,0.0,0.0,0.0,0.0,0.0,0.0,0.0,0.0,0.0,0.0,0.0,0.0,0.0,0.0,0.0,0.0,0.0,0.0,0.0,0.0,0.0,0.0,0.0,0.0,0.0,0.0,0.0,0.0,0.0,0.0,0.0,0.0,0.0,0.0,0.0,0.0,0.0,0.0,0.0,0.0,0.0,0.0,0.0,0.0,0.0,0.0,0.0,0.0,0.0,0.0,0.0,0.0,0.0,0.0,0.0,0.0,0.0,-4.7105,-4.7933,-4.8518,-4.8784,-4.8026,-4.7751,0.0,0.0,0.0,0.0,0.0,0.0,0.0,0.0,0.0,0.0,0.0,0.0,0.0,0.0,0.0,0.0,0.0,0.0,0.0,0.0,0.0,0.0,0.0,0.0,0.0,0.0,0.0,0.0,0.0,0.0,0.0,0.0,0.0,0.0,0.0,0.0,0.0,0.0,0.0,0.0,0.0,0.0,0.0,0.0,0.0,0.0,0.0,0.0,0.0,0.0,0.0,0.0,0.0,0.0,0.0,0.0,0.0,0.0,0.0,0.0,0.0,0.0,0.0,0.0,0.0,0.0,0.0,0.0,0.0,0.0,0.0,0.0,0.0,0.0,0.0,0.0,0.0,0.0,0.0,0.0,0.0,0.0,0.0,0.0,0.0,0.0,0.0,0.0,0.0,0.0,0.0,0.0,0.0,0.0,0.0,0.0,0.0,0.0,0.0,0.0,0.0,0.0,0.0,0.0,0.0,0.0,0.0,0.0,0.0,-4.6738,-4.7887,-4.8486,-4.834,-4.8167,-4.8008,-4.7842,0.0,0.0,0.0,0.0,0.0,0.0,0.0,0.0,0.0,0.0,0.0,0.0,0.0,0.0,0.0,0.0,0.0,0.0,0.0,0.0,0.0,0.0,0.0,0.0,0.0,0.0,0.0,0.0,0.0,0.0,0.0,0.0,0.0,0.0,0.0,0.0,0.0,0.0,0.0,0.0,0.0,0.0,0.0,0.0,0.0,0.0,0.0,0.0,0.0,0.0,0.0,0.0,0.0,0.0,0.0,0.0,0.0,0.0,0.0,0.0,0.0,0.0,0.0,0.0,0.0,0.0,0.0,0.0,0.0,0.0,0.0,0.0,0.0,0.0,0.0,0.0,0.0,0.0,0.0,0.0,0.0,0.0,0.0,0.0,0.0,0.0,0.0,0.0,0.0,0.0,0.0,0.0,0.0,0.0,0.0,0.0,0.0,0.0,0.0,0.0,0.0,0.0,0.0,0.0,0.0,0.0,0.0,0.0,-4.7309,-4.908,-4.9273,-4.7827,-4.8487,-4.8107,0.0,0.0,0.0,0.0,0.0,0.0,0.0,0.0,0.0,0.0,0.0,0.0,0.0,0.0,0.0,0.0,0.0,0.0,0.0,0.0,0.0,0.0,0.0,0.0,0.0,0.0,0.0,0.0,0.0,0.0,0.0,0.0,0.0,0.0,0.0,0.0,0.0,0.0,0.0,0.0,0.0,0.0,0.0,0.0,0.0,0.0,0.0,0.0,0.0,0.0,0.0,0.0,0.0,0.0,0.0,0.0,0.0,0.0,0.0,0.0,0.0,0.0,0.0,0.0,0.0,0.0,0.0,0.0,0.0,0.0,0.0,0.0,0.0,0.0,0.0,0.0,0.0,0.0,0.0,0.0,0.0,0.0,0.0,0.0,0.0,0.0,0.0,0.0,0.0,0.0,0.0,0.0,0.0,0.0,0.0,0.0,0.0,0.0,0.0,0.0,0.0,0.0,0.0,0.0,0.0,0.0,0.0,0.0,0.0,-4.7314,-4.8413,-4.9111,-4.9352,-4.8982,-4.8554,0.0,0.0,0.0,0.0,0.0,0.0,0.0,0.0,0.0,0.0,0.0,0.0,0.0,0.0,0.0,0.0,0.0,0.0,0.0,0.0,0.0,0.0,0.0,0.0,0.0,0.0,0.0,0.0,0.0,0.0,0.0,0.0,0.0,0.0,0.0,0.0,0.0,0.0,0.0,0.0,0.0,0.0,0.0,0.0,0.0,0.0,0.0,0.0,0.0,0.0,0.0,0.0,0.0,0.0,0.0,0.0,0.0,0.0,0.0,0.0,0.0,0.0,0.0,0.0,0.0,0.0,0.0,0.0,0.0,0.0,0.0,0.0,0.0,0.0,0.0,0.0,0.0,0.0,0.0,0.0,0.0,0.0,0.0,0.0,0.0,0.0,0.0,0.0,0.0,0.0,0.0,0.0,0.0,0.0,0.0,0.0,0.0,0.0,0.0,0.0,0.0,0.0,0.0,0.0,0.0,0.0,0.0,0.0,-4.6917,-4.7748,-4.8243,-4.9118,-5.043,-4.9682,-4.8923,0.0,0.0,0.0,0.0,0.0,0.0,0.0,0.0,0.0,0.0,0.0,0.0,0.0,0.0,0.0,0.0,0.0,0.0,0.0,0.0,0.0,0.0,0.0,0.0,0.0,0.0,0.0,0.0,0.0,0.0,0.0,0.0,0.0,0.0,0.0,0.0,0.0,0.0,0.0,0.0,0.0,0.0,0.0,0.0,0.0,0.0,0.0,0.0,0.0,0.0,0.0,0.0,0.0,0.0,0.0,0.0,0.0,0.0,0.0,0.0,0.0,0.0,0.0,0.0,0.0,0.0,0.0,0.0,0.0,0.0,0.0,0.0,0.0,0.0,0.0,0.0,0.0,0.0,0.0,0.0,0.0,0.0,0.0,0.0,0.0,0.0,0.0,0.0,0.0,0.0,0.0,0.0,0.0,0.0,0.0,0.0,0.0,0.0,0.0,0.0,0.0,0.0,0.0,0.0,0.0,0.0,0.0,0.0,-4.7366,-4.8237,-4.8353,-4.9173,-5.0718,-5.0179,-4.913,0.0,0.0,0.0,0.0,0.0,0.0,0.0,0.0,0.0,0.0,0.0,0.0,0.0,0.0,0.0,0.0,0.0,0.0,0.0,0.0,0.0,0.0,0.0,0.0,0.0,0.0,0.0,0.0,0.0,0.0,0.0,0.0,0.0,0.0,0.0,0.0,0.0,0.0,0.0,0.0,0.0,0.0,0.0,0.0,0.0,0.0,0.0,0.0,0.0,0.0,0.0,0.0,0.0,0.0,0.0,0.0,0.0,0.0,0.0,0.0,0.0,0.0,0.0,0.0,0.0,0.0,0.0,0.0,0.0,0.0,0.0,0.0,0.0,0.0,0.0,0.0,0.0,0.0,0.0,0.0,0.0,0.0,0.0,0.0,0.0,0.0,0.0,0.0,0.0,0.0,0.0,0.0,0.0,0.0,0.0,0.0,0.0,0.0,0.0,0.0,0.0,0.0,0.0,0.0,0.0,0.0,0.0,0.0,-4.6503,-4.7366,-4.8043,-4.858,-4.8965,-4.8939,-4.8761,0.0,0.0,0.0,0.0,0.0,0.0,0.0,0.0,0.0,0.0,0.0,0.0,0.0,0.0,0.0,0.0,0.0,0.0,0.0,0.0,0.0,0.0,0.0,0.0,0.0,0.0,0.0,0.0,0.0,0.0,0.0,0.0,0.0,0.0,0.0,0.0,0.0,0.0,0.0,0.0,0.0,0.0,0.0,0.0,0.0,0.0,0.0,0.0,-4.6748,0.0,0.0,0.0,0.0,0.0,0.0,0.0,0.0,0.0,0.0,0.0,0.0,0.0,0.0,0.0,0.0,0.0,0.0,0.0,0.0,0.0,0.0,0.0,0.0,0.0,0.0,0.0,0.0,0.0,0.0,0.0,0.0,0.0,0.0,0.0,0.0,0.0,0.0,0.0,0.0,0.0,0.0,0.0,0.0,0.0,0.0,0.0,0.0,0.0,0.0,0.0,0.0,0.0,0.0,0.0,0.0,0.0,0.0,0.0,-4.6225,-4.7083,-4.756,-4.8179,-4.8941,-4.8333,-4.7968,0.0,0.0,0.0,0.0,0.0,0.0,0.0,0.0,0.0,0.0,0.0,0.0,0.0,0.0,0.0,0.0,0.0,0.0,0.0,0.0,0.0,0.0,0.0,0.0,0.0,0.0,0.0,0.0,0.0,0.0,0.0,0.0,0.0,0.0,0.0,0.0,0.0,0.0,0.0,0.0,0.0,0.0,0.0,0.0,0.0,0.0,0.0,0.0,0.0,0.0,0.0,0.0,0.0,0.0,0.0,0.0,0.0,0.0,0.0,0.0,0.0,0.0,0.0,0.0,0.0,0.0,0.0,0.0,0.0,0.0,0.0,0.0,0.0,0.0,0.0,0.0,0.0,0.0,0.0,0.0,0.0,0.0,0.0,0.0,0.0,0.0,0.0,0.0,0.0,0.0,0.0,0.0,0.0,0.0,0.0,0.0,0.0,0.0,0.0,0.0,0.0,0.0,0.0,0.0,0.0,0.0,0.0,-4.5807,-4.6155,-4.6883,-4.7038,-4.7734,-4.9049,-4.7856,-4.7167,-4.7102,0.0,0.0,0.0,0.0,0.0,0.0,0.0,0.0,0.0,0.0,0.0,0.0,0.0,0.0,0.0,0.0,0.0,0.0,0.0,0.0,0.0,0.0,0.0,0.0,0.0,0.0,0.0,0.0,0.0,0.0,0.0,0.0,0.0,0.0,0.0,0.0,0.0,0.0,-4.5883,-4.6417,0.0,0.0,0.0,0.0,0.0,0.0,0.0,0.0,-4.6742,0.0,0.0,0.0,0.0,0.0,0.0,0.0,0.0,0.0,0.0,0.0,0.0,0.0,0.0,0.0,0.0,0.0,0.0,0.0,0.0,0.0,0.0,0.0,0.0,0.0,0.0,0.0,0.0,0.0,0.0,0.0,0.0,0.0,0.0,0.0,0.0,0.0,0.0,0.0,0.0,0.0,0.0,0.0,0.0,0.0,0.0,0.0,0.0,0.0,0.0,0.0,0.0,0.0,0.0,0.0,0.0,-4.5807,-4.5807,-4.5865,-4.602,-4.6716,-4.689,-4.6484,-4.6878,-4.6828,-4.6251,0.0,0.0,0.0,0.0,0.0,0.0,0.0,0.0,0.0,0.0,0.0,0.0,0.0,0.0,0.0,0.0,0.0,0.0,0.0,0.0,0.0,0.0,0.0,0.0,0.0,0.0,0.0,0.0,0.0,0.0,0.0,0.0,0.0,0.0,0.0,0.0,0.0,0.0,0.0,-4.7441,-4.7533,0.0,0.0,0.0,0.0,0.0,0.0,0.0,0.0,-4.6177,0.0,0.0,0.0,0.0,0.0,0.0,0.0,0.0,0.0,0.0,0.0,0.0,0.0,0.0,0.0,0.0,0.0,0.0,0.0,0.0,0.0,0.0,0.0,0.0,0.0,0.0,0.0,0.0,0.0,0.0,0.0,0.0,0.0,0.0,0.0,0.0,0.0,0.0,0.0,0.0,0.0,0.0,0.0,0.0,0.0,0.0,0.0,0.0,0.0,0.0,0.0,0.0,0.0,0.0,0.0,-4.5807,-4.5807,-4.5807,-4.5826,-4.6213,-4.6445,-4.6457,-4.6438,-4.6494,0.0,0.0,0.0,0.0,0.0,0.0,0.0,0.0,0.0,0.0,0.0,0.0,0.0,0.0,0.0,0.0,0.0,0.0,0.0,0.0,0.0,0.0,0.0,0.0,0.0,0.0,0.0,0.0,0.0,0.0,0.0,0.0,0.0,0.0,0.0,0.0,0.0,0.0,0.0,0.0,-4.7528,-4.7706,-4.8143,0.0,0.0,0.0,0.0,0.0,0.0,-4.6402,-4.6167,0.0,0.0,0.0,0.0,0.0,0.0,0.0,0.0,0.0,0.0,0.0,0.0,0.0,0.0,0.0,0.0,0.0,0.0,0.0,0.0,0.0,0.0,0.0,0.0,0.0,0.0,0.0,0.0,0.0,0.0,0.0,0.0,0.0,0.0,0.0,0.0,0.0,0.0,0.0,0.0,0.0,0.0,0.0,0.0,0.0,0.0,0.0,0.0,0.0,0.0,0.0,0.0,0.0,0.0,0.0,-4.5807,-4.5807,-4.5807,-4.5807,-4.5807,-4.6136,-4.6813,-4.6155,-4.6151,0.0,0.0,0.0,0.0,0.0,0.0,0.0,0.0,0.0,0.0,0.0,0.0,0.0,0.0,0.0,0.0,0.0,0.0,0.0,0.0,0.0,0.0,0.0,0.0,0.0,0.0,0.0,0.0,0.0,0.0,0.0,0.0,0.0,0.0,0.0,0.0,0.0,0.0,0.0,0.0,0.0,-4.7864,-4.8357,-4.7845,0.0,0.0,0.0,0.0,-4.6411,-4.6528,0.0,0.0,0.0,0.0,0.0,0.0,0.0,0.0,0.0,0.0,0.0,0.0,0.0,0.0,0.0,0.0,0.0,0.0,0.0,0.0,0.0,0.0,0.0,0.0,0.0,0.0,0.0,0.0,0.0,0.0,0.0,0.0,0.0,0.0,0.0,0.0,0.0,0.0,0.0,0.0,0.0,0.0,0.0,0.0,0.0,0.0,0.0,0.0,0.0,0.0,0.0,0.0,0.0,0.0,0.0,0.0,-4.5807,-4.5807,-4.5807,-4.5807,-4.5807,-4.5845,-4.5962,-4.5865,-4.5873,0.0,0.0,0.0,0.0,0.0,0.0,0.0,0.0,0.0,0.0,0.0,0.0,0.0,0.0,0.0,0.0,0.0,0.0,0.0,0.0,0.0,0.0,0.0,0.0,0.0,0.0,0.0,0.0,0.0,0.0,0.0,0.0,0.0,0.0,0.0,0.0,0.0,0.0,0.0,0.0,0.0,-4.83,-4.7643,-4.7472,-4.7093,0.0,0.0,-4.6449,-4.7131,-4.7271,0.0,0.0,0.0,0.0,0.0,0.0,0.0,0.0,0.0,0.0,0.0,0.0,0.0,0.0,0.0,0.0,0.0,0.0,0.0,0.0,0.0,0.0,0.0,0.0,0.0,0.0,0.0,0.0,0.0,0.0,0.0,0.0,0.0,0.0,0.0,0.0,0.0,0.0,0.0,0.0,0.0,0.0,0.0,0.0,0.0,0.0,0.0,0.0,0.0,0.0,0.0,0.0,0.0,0.0,0.0,-4.5807,-4.5807,-4.5807,-4.5807,-4.5807,-4.5807,-4.5807,-4.5807,-4.5807,-4.5801,0.0,0.0,0.0,0.0,0.0,0.0,0.0,0.0,0.0,0.0,0.0,0.0,0.0,0.0,0.0,0.0,0.0,0.0,0.0,0.0,0.0,0.0,0.0,0.0,0.0,0.0,0.0,0.0,0.0,0.0,0.0,0.0,0.0,0.0,0.0,0.0,0.0,0.0,0.0,0.0,0.0,0.0,-4.813,-4.7719,0.0,0.0,0.0,-4.7011,-4.734,0.0,0.0,0.0,0.0,0.0,0.0,0.0,0.0,0.0,0.0,0.0,0.0,0.0,0.0,0.0,0.0,0.0,0.0,0.0,0.0,0.0,0.0,0.0,0.0,0.0,0.0,0.0,0.0,0.0,0.0,0.0,0.0,0.0,0.0,0.0,0.0,0.0,0.0,0.0,0.0,0.0,0.0,0.0,0.0,0.0,0.0,0.0,0.0,0.0,0.0,0.0,0.0,0.0,0.0,0.0,0.0,0.0,-4.5807,-4.5807,-4.5807,-4.5807,-4.5807,-4.5807,-4.5807,-4.5807,0.0,0.0,0.0,0.0,0.0,0.0,0.0,0.0,0.0,0.0,0.0,0.0,0.0,0.0,0.0,0.0,0.0,0.0,0.0,0.0,0.0,0.0,0.0,0.0,0.0,0.0,0.0,-4.5125,0.0,0.0,0.0,0.0,0.0,0.0,0.0,0.0,0.0,0.0,0.0,0.0,0.0,0.0,-4.7427,-4.7947,-4.7467,-4.7354,0.0,0.0,-4.7127,-4.7321,-4.732,-4.702,0.0,0.0,0.0,0.0,0.0,0.0,0.0,0.0,0.0,0.0,0.0,0.0,0.0,0.0,0.0,0.0,0.0,0.0,0.0,0.0,0.0,0.0,0.0,0.0,0.0,0.0,0.0,0.0,0.0,0.0,0.0,0.0,0.0,0.0,0.0,0.0,0.0,0.0,0.0,0.0,0.0,0.0,0.0,0.0,0.0,0.0,0.0,0.0,0.0,0.0,0.0,0.0,0.0,0.0,0.0,-4.5807,-4.5807,-4.5807,-4.5807,-4.5807,-4.5807,-4.5807,-4.5807,-4.5807,0.0,0.0,0.0,0.0,0.0,0.0,0.0,0.0,0.0,0.0,0.0,0.0,0.0,0.0,0.0,0.0,0.0,0.0,0.0,0.0,0.0,0.0,0.0,0.0,0.0,0.0,0.0,0.0,0.0,0.0,0.0,0.0,0.0,0.0,0.0,0.0,0.0,0.0,0.0,0.0,0.0,-4.6617,-4.6249,-4.6126,-4.6385,0.0,0.0,-4.6348,-4.7088,-4.7865,-4.7846,-4.6255,0.0,0.0,0.0,0.0,0.0,0.0,0.0,0.0,0.0,0.0,0.0,0.0,0.0,0.0,0.0,0.0,0.0,0.0,0.0,0.0,0.0,0.0,0.0,0.0,0.0,0.0,0.0,0.0,0.0,0.0,0.0,0.0,0.0,0.0,0.0,0.0,0.0,0.0,0.0,0.0,0.0,0.0,0.0,0.0,0.0,0.0,0.0,0.0,0.0,0.0,0.0,0.0,0.0,-4.5807,-4.5807,-4.5807,-4.5807,-4.5807,-4.5807,-4.5807,-4.5807,-4.5807,-4.5807,0.0,0.0,0.0,0.0,0.0,0.0,0.0,0.0,0.0,0.0,0.0,0.0,0.0,0.0,0.0,0.0,0.0,0.0,0.0,0.0,0.0,0.0,0.0,0.0,0.0,0.0,0.0,0.0,-4.4895,-4.4895,-4.4895,0.0,0.0,0.0,0.0,0.0,0.0,0.0,0.0,0.0,0.0,-4.5516,-4.5351,-4.5317,0.0,0.0,-4.5833,-4.5594,-4.6406,-4.6212,-4.5846,-4.5394,-4.4447,0.0,0.0,0.0,0.0,0.0,0.0,0.0,0.0,0.0,0.0,0.0,0.0,0.0,0.0,0.0,0.0,0.0,0.0,0.0,0.0,0.0,0.0,0.0,0.0,0.0,0.0,0.0,0.0,0.0,0.0,0.0,0.0,0.0,0.0,0.0,0.0,0.0,0.0,0.0,0.0,0.0,0.0,0.0,0.0,0.0,0.0,0.0,0.0,0.0,0.0,0.0,0.0,-4.5807,-4.5807,-4.5807,-4.5807,-4.5807,-4.5807,-4.5807,-4.5807,-4.5807,-4.5807,0.0,0.0,0.0,0.0,0.0,0.0,0.0,0.0,0.0,0.0,0.0,0.0,0.0,0.0,0.0,0.0,0.0,0.0,0.0,0.0,0.0,0.0,0.0,0.0,0.0,0.0,0.0,0.0,-4.4895,-4.4858,-4.4739,0.0,0.0,0.0,0.0,0.0,0.0,0.0,0.0,0.0,0.0,-4.4615,-4.4491,-4.4473,-4.4748,-4.5535,-4.4986,-4.4748,-4.5517,-4.4982,-4.4467,-4.4492,0.0,0.0,0.0,0.0,0.0,0.0,0.0,0.0,0.0,0.0,0.0,0.0,0.0,0.0,0.0,0.0,0.0,0.0,0.0,0.0,0.0,0.0,0.0,0.0,0.0,0.0,0.0,0.0,0.0,0.0,-4.8615,0.0,0.0,0.0,0.0,0.0,0.0,0.0,0.0,0.0,0.0,0.0,0.0,0.0,0.0,0.0,0.0,0.0,0.0,0.0,0.0,0.0,0.0,-4.5787,-4.5807,-4.5807,-4.5807,-4.5807,-4.5807,-4.5807,-4.5807,-4.5807,-4.5807,-4.5807,0.0,0.0,0.0,0.0,0.0,0.0,0.0,0.0,0.0,0.0,0.0,0.0,0.0,0.0,0.0,0.0,0.0,0.0,0.0,0.0,0.0,0.0,0.0,0.0,0.0,0.0,-4.487,-4.4883,-4.4707,0.0,0.0,0.0,0.0,0.0,0.0,0.0,0.0,0.0,0.0,-4.365,-4.3967,-4.359,-4.3543,-4.3799,-4.4511,-4.4007,-4.3775,-4.4493,-4.4596,-4.4339,0.0,0.0,0.0,0.0,0.0,0.0,0.0,0.0,0.0,0.0,0.0,0.0,0.0,0.0,0.0,0.0,0.0,0.0,0.0,0.0,0.0,0.0,0.0,0.0,0.0,0.0,0.0,-4.8638,-4.8735,0.0,0.0,0.0,0.0,0.0,0.0,0.0,0.0,0.0,0.0,0.0,-4.5807,-4.5807,0.0,0.0,0.0,0.0,0.0,0.0,0.0,0.0,0.0,0.0,0.0,0.0,-4.5258,-4.5761,-4.5807,-4.5807,-4.5807,-4.5807,-4.5807,-4.5807,-4.5807,-4.5807,-4.5807,0.0,0.0,0.0,0.0,0.0,0.0,0.0,0.0,0.0,0.0,0.0,0.0,0.0,0.0,0.0,0.0,0.0,0.0,0.0,0.0,0.0,0.0,0.0,0.0,0.0,-4.4457,0.0,0.0,0.0,0.0,0.0,0.0,0.0,0.0,0.0,0.0,0.0,-4.3069,-4.2727,-4.2807,-4.2869,-4.2718,-4.2697,-4.2787,0.0,0.0,0.0,0.0,0.0,0.0,0.0,0.0,0.0,0.0,0.0,0.0,0.0,0.0,-4.3344,-4.2804,-4.1611,-4.0618,-4.0366,0.0,0.0,0.0,0.0,0.0,0.0,0.0,0.0,0.0,0.0,0.0,0.0,0.0,0.0,-4.769,0.0,-4.6704,0.0,0.0,0.0,0.0,0.0,0.0,0.0,0.0,-4.5764,-4.5764,-4.5764,-4.5764,-4.5764,0.0,-4.5778,-4.5778,0.0,0.0,0.0,0.0,0.0,0.0,0.0,0.0,-4.5278,-4.5787,-4.5807,-4.5786,-4.5749,-4.5786,-4.5764,-4.5669,-4.5661,-4.5661,-4.5661,-4.558,-4.5571,0.0,0.0,0.0,0.0,0.0,0.0,0.0,0.0,0.0,0.0,0.0,0.0,0.0,0.0,0.0,0.0,0.0,0.0,0.0,0.0,0.0,0.0,0.0,-4.4031,0.0,0.0,0.0,0.0,0.0,0.0,0.0,0.0,0.0,-4.2808,-4.277,-4.2671,-4.2447,-4.2366,-4.2308,-4.2308,0.0,0.0,0.0,0.0,0.0,0.0,0.0,-4.1835,-4.2002,-4.1895,-4.1852,-4.2019,-4.232,-4.2736,-4.3154,0.0,0.0,-4.2742,-4.1877,-4.1072,-4.0788,-4.0735,-4.0735,-4.0735,-4.0735,-4.0735,0.0,0.0,0.0,0.0,0.0,0.0,0.0,0.0,-4.8334,-4.7871,0.0,-4.7003,0.0,0.0,0.0,0.0,0.0,-4.5807,0.0,0.0,-4.5688,-4.5688,-4.5688,-4.5688,-4.5688,-4.5708,-4.5765,-4.5765,-4.5715,-4.5764,0.0,0.0,0.0,0.0,0.0,0.0,-4.5761,-4.58,-4.578,-4.5742,-4.5605,-4.5696,-4.5661,-4.5391,-4.5381,-4.5381,-4.54,-4.5371,-4.539,-4.5381,-4.5371,0.0,0.0,0.0,0.0,0.0,0.0,0.0,0.0,0.0,0.0,0.0,0.0,0.0,0.0,0.0,0.0,0.0,0.0,0.0,0.0,-4.3844,0.0,0.0,0.0,0.0,0.0,0.0,0.0,0.0,0.0,0.0,-4.2328,-4.2308,-4.2308,-4.2308,0.0,0.0,0.0,0.0,-4.2267,-4.2228,-4.1813,-4.1644,-4.2166,-4.1445,-4.0966,-4.1423,0.0,0.0,-4.1405,-4.2317,-4.2874,-4.2671,-4.2259,-4.2264,-4.318,-4.3216,-4.2988,-4.2296,-4.208,-4.221,-4.221,-4.1985,-4.2041,-5.0269,0.0,0.0,0.0,0.0,-4.8913,-4.9146,-4.9159,-4.9159,-4.8658,-4.782,-4.7204,0.0,0.0,0.0,0.0,0.0,0.0,-4.5715,-4.5688,-4.5688,-4.5688,-4.5688,-4.5688,-4.5688,-4.5688,-4.5715,-4.5715,-4.5688,-4.5712,-4.5734,-4.5783,0.0,0.0,0.0,0.0,-4.5094,-4.5681,-4.5739,-4.561,-4.5389,-4.5416,-4.5323,-4.505,-4.5031,-4.505,-4.5031,-4.4966,-4.4935,-4.5039,-4.4966,0.0,0.0,0.0,0.0,0.0,0.0,0.0,0.0,0.0,0.0,0.0,0.0,0.0,0.0,0.0,0.0,0.0,0.0,0.0,-4.3454,-4.2977,-4.2713,0.0,0.0,0.0,0.0,0.0,0.0,0.0,0.0,0.0,-4.2308,-4.2308,-4.2308,0.0,0.0,-4.2148,-4.1792,-4.1749,-4.16,-4.1265,-4.1105,0.0,0.0,-4.099,-4.0849,-4.099,-4.0896,-4.0849,-4.099,-4.1242,-4.1443,-4.1377,-4.1248,-4.1248,-4.1482,-4.1574,-4.1504,-4.1277,-4.122,-4.1243,-4.122,-4.122,-4.1225,-5.0548,-4.9191,-4.9256,-4.9265,-4.9285,-4.9766,-4.9969,-4.9961,-4.9614,-4.8979,-4.8103,-4.7257,-4.6446,-4.566,-4.5695,0.0,0.0,0.0,-4.5687,-4.566,-4.566,-4.566,-4.5651,-4.566,-4.566,-4.566,-4.5695,-4.5687,-4.5651,-4.5695,-4.5711,-4.5723,0.0,0.0,-4.5727,-4.5206,-4.5128,-4.5533,-4.5648,-4.5554,-4.5235,-4.5163,-4.5025,-4.4815,-4.4781,-4.4751,-4.4732,-4.4656,-4.4643,-4.4732,-4.4656,-4.4629,0.0,0.0,0.0,0.0,0.0,0.0,0.0,0.0,0.0,0.0,0.0,-4.426,0.0,0.0,0.0,0.0,-4.3553,-4.3194,-4.2827,-4.2494,0.0,0.0,0.0,0.0,0.0,0.0,0.0,-4.2308,-4.2308,-4.2308,-4.2308,-4.2124,-4.198,-4.198,-4.1963,-4.1792,-4.1293,0.0,-4.1111,-4.0849,-4.057,-4.0473,-4.0666,-4.0326,-4.0045,-4.0078,-4.0028,-4.0111,-4.0375,-4.0203,-4.0103,-4.0252,-4.0178,-4.0095,-4.0095,-4.0145,-4.0343,-4.0707,-4.0802,-4.0802,-4.0802,-4.0802,-4.0802,-5.0683,-5.0683,-5.0616,-5.0577,-5.0596,-5.0596,-5.0558,-5.0423,-4.9625,-4.8817,-4.7962,-4.724,-4.6413,-4.5614,-4.5657,0.0,-4.5693,-4.5693,-4.5657,-4.5594,-4.5594,-4.5594,-4.5594,-4.5594,-4.5594,-4.5594,-4.5657,-4.5657,-4.5594,-4.5657,-4.5693,-4.5682,-4.5695,-4.568,-4.568,-4.568,-4.558,-4.5323,-4.5571,-4.5502,-4.5085,-4.4905,-4.477,-4.4637,-4.4532,-4.4454,-4.4473,-4.4454,-4.4454,-4.4473,-4.4454,-4.4473,-4.4473,0.0,0.0,0.0,0.0,0.0,0.0,0.0,0.0,0.0,0.0,0.0,0.0,0.0,0.0,0.0,-4.3195,0.0,-4.2348,-4.2308,0.0,0.0,0.0,-4.2308,-4.2308,-4.2308,-4.2308,-4.2308,0.0,0.0,-4.2246,-4.1813,-4.149,-4.1383,-4.1405,-4.1271,-4.0802,-4.0731,-4.0689,-4.057,-4.0111,-3.9927,-4.0235,-3.9542,-3.8996,-3.9061,-3.8887,-3.9071,-3.9568,-3.9295,-3.9044,-3.948,-3.9232,-3.9023,-3.8996,-3.9185,-3.9556,-4.0417,-4.0611,-4.0659,-4.0611,-4.0587,-4.0587,-5.0683,-5.0654,-4.9971,-4.9721,-4.9731,-4.9702,-4.9336,-4.8721,-4.8509,-4.7952,-4.7173,-4.699,-4.6413,-4.5594,-4.5622,-4.5631,-4.5631,-4.5631,-4.5622,-4.5594,-4.5594,-4.5594,-4.5594,-4.5594,-4.5594,-4.5594,-4.5622,-4.5622,-4.5594,-4.5622,-4.5631,-4.5631,-4.562,-4.5646,-4.5698,-4.5665,-4.5584,-4.5521,-4.5603,-4.5381,-4.4891,-4.4448,-4.4196,-4.4185,-4.414,-4.4113,-4.4113,-4.4128,-4.4113,-4.4113,-4.4113,-4.4113,-4.4113,-4.4285,0.0,0.0,0.0,0.0,0.0,0.0,0.0,0.0,0.0,-4.3623,-4.3818,0.0,-4.2693,0.0,-4.2653,-4.2412,-4.229,-4.2308,0.0,0.0,-4.2308,-4.2308,-4.2308,-4.2308,-4.2308,-4.2308,-4.2308,-4.2145,-4.1731,-4.1578,-4.1208,-4.048,-4.0713,-4.0737,-4.0136,-4.0019,-3.9834,-3.9401,-3.9162,-3.9098,-3.9232,-3.9007,-3.8805,-3.8816,-3.8805,-3.8843,-3.9034,-3.8925,-3.8843,-3.898,-3.8925,-3.886,-3.8843,-3.8887,-3.8996,-3.9232,-3.9487,-3.9661,-3.9661,-3.9661,-3.9677,-5.0125,-5.0048,-4.9183,-4.8625,-4.8317,-4.8663,-4.8548,-4.8086,-4.774,-4.7317,-4.6865,-4.649,-4.6047,-4.5614,-4.5594,-4.5594,-4.5594,-4.5594,-4.5594,-4.5594,-4.5594,-4.5594,-4.5594,-4.5594,-4.5594,-4.5594,-4.5594,-4.5594,-4.5594,-4.5594,-4.5594,-4.5594,-4.5594,-4.5622,-4.5648,-4.5631,-4.5531,-4.5429,-4.5312,-4.5169,-4.4966,-4.4113,-4.3822,-4.4143,-4.371,-4.3466,-4.3466,-4.3819,-4.3819,-4.3503,-4.3801,-4.4005,-4.4005,-4.4097,-4.4131,0.0,0.0,0.0,0.0,0.0,0.0,0.0,0.0,0.0,0.0,0.0,-4.2369,-4.2494,-4.2391,-4.2308,-4.2308,-4.2308,-4.2308,-4.2308,-4.2308,-4.2308,-4.2308,-4.2308,-4.2308,-4.2308,-4.2308,-4.2103,-4.1578,-4.1316,-4.0879,-4.0011,-3.9952,-3.9851,-3.9532,-3.9401,-3.9216,-3.8843,-3.875,-3.8683,-3.8628,-3.8628,-3.8655,-3.8683,-3.8683,-3.8628,-3.8683,-3.8655,-3.8628,-3.8628,-3.8683,-3.8711,-3.8711,-3.8766,-3.8805,-3.8832,-3.8958,-3.9067,-3.9067,-3.9083,-3.9067,-4.9356,-4.9144,-4.8298,-4.7528,-4.6932,-4.7548,-4.7778,-4.774,-4.7048,-4.674,-4.6673,-4.5932,-4.5594,-4.5594,-4.5594,-4.5594,-4.5594,-4.5594,-4.5594,-4.5594,-4.5594,-4.5594,-4.5594,-4.5594,-4.5594,-4.5594,-4.5594,-4.5594,-4.5594,-4.5594,-4.5594,-4.5594,-4.5594,-4.5594,-4.5594,-4.5594,-4.5485,-4.5243,-4.4977,-4.495,-4.5129,-4.3977,-4.3688,-4.4271,-4.3431,-4.2965,-4.2965,-4.3615,-4.3689,-4.302,-4.3615,-4.4005,-4.4005,-4.4005,-4.4005,0.0,-4.4005,0.0,0.0,0.0,0.0,0.0,0.0,0.0,0.0,-4.2452,-4.2308,-4.2308,-4.2308,-4.2308,-4.2308,-4.2308,-4.2308,-4.2308,-4.2308,-4.2308,-4.2308,-4.2308,-4.2308,-4.2308,-4.2308,-4.2086,-4.1468,-4.1036,-4.0521,-3.9783,-3.9312,-3.9034,-3.8942,-3.8887,-3.8805,-3.875,-3.8672,-3.8532,-3.8448,-3.8391,-3.8448,-3.8532,-3.852,-3.8448,-3.856,-3.8476,-3.8391,-3.842,-3.8504,-3.856,-3.8576,-3.8655,-3.875,-3.8722,-3.8668,-3.8603,-3.8772,-3.8832,-3.8772,-4.899,-4.8279,-4.7462,-4.7048,-4.6846,-4.6297,-4.6067,-4.6075,-4.5893,-4.5836,-4.5845,-4.5671,-4.5594,-4.5594,-4.5594,-4.5594,-4.5594,-4.5594,-4.5594,-4.5594,-4.5594,-4.5594,-4.5594,-4.5594,-4.5594,-4.5594,-4.5594,-4.5594,-4.5594,-4.5594,-4.5594,-4.5594,-4.5594,-4.5594,-4.5594,0.0,0.0,0.0,-4.5253,-4.5041,-4.4861,-4.4421,-4.4139,-4.4075,-4.3887,0.0,-4.3782,-4.3912,-4.3931,-4.3782,-4.3912,0.0,0.0,0.0,0.0,0.0,0.0,0.0,0.0,0.0,0.0,0.0,-4.2957,-4.2751,-4.2711,-4.2454,-4.2308,-4.2308,-4.2308,-4.2308,-4.2308,-4.2308,-4.2308,-4.2308,-4.2308,-4.2308,-4.2308,-4.2308,-4.2308,-4.2308,-4.2287,-4.1938,-4.1082,-4.0761,-4.026,-3.9339,-3.886,-3.8699,-3.8699,-3.8672,-3.8616,-3.852,-3.8448,-3.842,-3.8391,-3.8391,-3.8391,-3.842,-3.842,-3.842,-3.8403,-3.842,-3.8391,-3.8375,-3.8436,-3.842,-3.8387,-3.8448,-3.8423,-3.846,-3.8005,-3.7817,-3.8619,-3.8788,-3.8641,-4.8164,0.0,-4.6605,-4.6259,0.0,-4.5787,-4.5594,-4.5594,-4.5594,-4.5594,-4.5594,-4.5594,-4.5594,-4.5594,-4.5594,-4.5594,-4.5594,-4.5594,-4.5594,-4.5594,-4.5594,-4.5594,-4.5594,-4.5594,-4.5594,-4.5594,-4.5594,-4.5594,-4.5594,-4.5594,-4.5594,-4.5594,-4.5594,-4.5594,-4.5586,-4.5457,-4.541,-4.5391,-4.5129,-4.4919,-4.4788,-4.4021,-4.3814,-4.4154,0.0,0.0,0.0,0.0,0.0,0.0,0.0,0.0,0.0,0.0,0.0,-4.4005,-4.4005,-4.3939,-4.3795,-4.3546,-4.3268,-4.2976,-4.2671,-4.2514,-4.2494,-4.2371,-4.2308,-4.2308,-4.2308,-4.2308,-4.2308,-4.2308,-4.2308,-4.2308,-4.2308,-4.2246,-4.2124,-4.2103,-4.2061,-4.1956,-4.1934,-4.1591,-4.0625,-4.0431,-3.9978,-3.8996,-3.8699,-3.856,-3.852,-3.852,-3.8448,-3.8436,-3.8391,-3.8391,-3.8391,-3.8391,-3.823,-3.8003,-3.8165,-3.8213,-3.7922,-3.8165,-3.8294,-3.797,-3.7873,-3.7776,-3.742,-3.7355,-3.7371,-3.7339,-3.708,-3.6945,-3.7465,-3.7574,-3.7476,-4.7162,-4.6615,-4.5902,-4.5594,-4.5594,-4.5594,-4.5594,-4.5594,0.0,0.0,0.0,-4.5594,-4.5594,-4.5594,-4.5594,-4.5594,-4.5594,-4.5594,-4.5594,-4.5594,-4.5594,-4.5594,-4.5594,-4.5594,-4.5594,-4.5594,-4.5594,-4.5594,-4.5594,-4.5594,-4.5594,-4.5594,-4.5594,-4.5594,-4.5577,-4.5332,-4.518,-4.5118,-4.4927,-4.4776,-4.4695,-4.3652,-4.3475,-4.4313,-4.3487,-4.3002,-4.302,-4.3633,-4.3689,-4.3076,-4.3652,-4.4005,-4.4005,-4.4005,-4.4005,-4.4005,-4.4005,-4.3892,-4.3681,-4.3427,-4.3105,-4.2731,-4.2452,-4.2308,-4.2308,-4.2308,-4.2308,-4.2308,-4.2308,-4.2308,-4.2308,-4.2246,-4.2228,-4.2225,-4.2205,-4.2082,-4.1874,-4.1831,-4.1766,-4.1648,-4.1626,-4.1277,-4.0456,-4.0235,-3.9808,-3.8952,-3.8644,-3.8532,-3.842,-3.8391,-3.8391,-3.8408,-3.8262,-3.8165,-3.8181,-3.8003,-3.7792,-3.7274,-3.7614,-3.7825,-3.7549,-3.7711,-3.7792,-3.7441,-3.7214,-3.6934,-3.6448,-3.64,-3.6276,-3.6303,-3.6173,-3.6108,-3.6092,-3.5995,-3.5963,-4.6329,-4.5768,-4.5652,-4.5594,-4.5594,-4.5594,-4.5594,-4.5594,-4.5594,-4.5594,-4.5594,-4.5594,-4.5594,-4.5594,-4.5594,-4.5594,-4.5594,-4.5594,-4.5594,-4.5594,-4.5594,-4.5594,-4.5594,-4.5594,-4.5594,-4.5594,-4.5594,-4.5594,-4.5594,-4.5594,-4.5594,-4.5594,-4.5594,-4.5594,-4.5577,-4.5332,-4.5085,-4.4861,-4.4831,-4.4688,-4.4452,-4.4275,-4.4119,-4.4045,-4.3924,-4.3838,-4.3838,-4.3949,-4.3949,-4.3838,-4.3931,-4.4005,-4.4005,-4.4005,-4.4005,-4.4005,-4.4005,-4.3989,-4.3923,-4.3697,-4.3303,-4.2732,-4.2434,-4.2308,-4.2308,-4.2308,-4.2308,-4.2308,-4.2308,-4.2308,-4.2287,-4.2103,-4.1977,-4.1956,-4.1805,-4.171,-4.1631,-4.1631,-4.1609,-4.1582,-4.1604,-4.1386,-4.0754,-4.0302,-3.98,-3.9206,-3.8711,-3.842,-3.8343,-3.8391,-3.8391,-3.8327,-3.7873,-3.7506,-3.7436,-3.6967,-3.6707,-3.6481,-3.6594,-3.6886,-3.7182,-3.6983,-3.6869,-3.7166,-3.6788,-3.6416,-3.6222,-3.6276,-3.6173,-3.6108,-3.572,-3.5364,-3.5357,-3.4926,-3.4683,-4.6873,-4.6636,-4.5906,-4.5874,-4.6278,-4.5806,-4.5594,-4.5594,-4.5594,-4.5594,-4.5594,-4.5594,-4.5594,-4.5594,-4.5594,-4.5594,-4.5594,-4.5594,-4.5594,-4.5594,-4.5594,-4.5594,-4.5594,-4.5594,-4.5594,-4.5594,-4.5594,-4.5594,-4.5594,-4.5594,-4.5594,-4.5594,-4.5594,-4.5541,-4.5371,-4.5253,-4.4988,-4.4599,-4.4585,-4.4457,-4.421,-4.4177,-4.4121,-4.4005,-4.4005,-4.4005,-4.4005,-4.4005,-4.4005,-4.4005,-4.4005,-4.4005,-4.4005,-4.4005,-4.4005,-4.4005,-4.4005,-4.4005,-4.4005,-4.3747,-4.3355,-4.2769,-4.2593,-4.2452,-4.2308,-4.2308,-4.2308,-4.2308,-4.2308,-4.2308,-4.2287,-4.2061,-4.1895,-4.1895,-4.1719,-4.156,-4.1408,-4.1386,-4.134,-4.1244,-4.1221,-4.1041,-4.059,-4.0095,-3.961,-3.9142,-3.8683,-3.8294,-3.789,-3.7809,-3.7809,-3.776,-3.7226,-3.681,-3.6729,-3.6546,-3.6319,-3.6276,-3.6276,-3.6432,-3.674,-3.6448,-3.6303,-3.6157,-3.5908,-3.5558,-3.525,-3.5104,-3.5104,-3.5088,-3.4878,-3.4603,-3.4563,-3.4311,-3.4279,-4.7388,-4.7408,-4.6349,-4.6182,-4.6547,-4.5902,-4.5594,-4.5594,-4.5594,-4.5594,-4.5594,-4.5594,-4.5594,-4.5594,-4.5594,-4.5594,-4.5594,-4.5594,-4.5594,-4.5594,-4.5594,-4.5594,-4.5594,-4.5594,-4.5594,-4.5594,-4.5594,-4.5594,-4.5594,-4.5594,-4.5594,-4.5594,-4.5594,-4.5495,-4.5302,-4.5222,-4.4988,-4.4612,-4.4519,-4.4318,-4.402,-4.4005,-4.4005,-4.4005,-4.4005,-4.4005,-4.4005,-4.4005,-4.4005,-4.4005,-4.4005,-4.4005,-4.4005,-4.4005,-4.4005,-4.4005,-4.4005,-4.4005,-4.3989,-4.3763,-4.3408,-4.294,-4.277,-4.2595,-4.2432,-4.2331,-4.2308,-4.2308,-4.2308,-4.2287,-4.2184,-4.1977,-4.1827,-4.1744,-4.1565,-4.134,-4.1163,-4.1134,-4.1071,-4.0918,-4.0894,-4.0776,-4.0419,-4.0054,-3.9601,-3.9104,-3.8655,-3.8116,-3.7457,-3.7198,-3.7064,-3.6772,-3.6384,-3.6092,-3.6044,-3.5833,-3.5752,-3.5801,-3.5752,-3.5801,-3.5898,-3.5946,-3.5752,-3.5309,-3.5098,-3.4797,-3.4246,-3.4149,-3.4198,-3.4246,-3.4214,-3.4149,-3.4165,-3.4133,-3.4117,-4.7182,-4.6992,-4.6799,-4.6336,-4.5768,-4.5633,-4.5594,-4.5594,-4.5594,-4.5594,-4.5594,-4.5594,-4.5594,-4.5594,-4.5594,-4.5594,-4.5594,-4.5594,-4.5594,-4.5594,-4.5594,-4.5594,-4.5594,-4.5594,-4.5594,-4.5594,-4.5594,-4.5594,-4.5594,-4.5594,-4.5594,-4.5594,-4.5594,-4.5586,-4.5531,-4.5322,-4.518,-4.5118,-4.4903,-4.4506,-4.4051,-4.4005,-4.4005,-4.4005,-4.3986,-4.4005,-4.3912,-4.4005,-4.3986,-4.4005,-4.3986,-4.4005,-4.3986,-4.3986,-4.3986,-4.3986,-4.3986,-4.4005,-4.3989,-4.3728,-4.3562,-4.3494,-4.3014,-4.2711,-4.2635,-4.2452,-4.2308,-4.2287,-4.2308,-4.2166,-4.1977,-4.174,-4.1542,-4.1328,-4.1134,-4.0959,-4.0907,-4.0918,-4.0935,-4.0894,-4.086,-4.0888,-4.0776,-4.0419,-3.9893,-3.9104,-3.8613,-3.8059,-3.7307,-3.6724,-3.6141,-3.5606,-3.5325,-3.5325,-3.5234,-3.4716,-3.4619,-3.4489,-3.4376,-3.4716,-3.5088,-3.491,-3.4424,-3.4952,-3.4635,-3.4246,-3.4182,-3.4101,-3.4101,-3.4101,-3.4101,-3.4101,-3.4101,-3.4101,-3.4101,-4.7232,-4.7067,-4.6407,-4.5932,-4.5614,-4.5594,-4.5594,-4.5594,-4.5594,-4.5594,-4.5594,-4.5594,-4.5594,-4.5594,-4.5594,-4.5594,-4.5594,-4.5594,-4.5594,-4.5594,-4.5594,-4.5594,-4.5594,-4.5594,-4.5594,-4.5594,-4.5594,-4.5594,-4.5594,-4.5594,-4.5594,-4.5594,-4.5594,-4.5594,-4.5605,-4.5475,-4.5352,-4.5201,-4.5085,-4.4868,-4.4511,-4.4322,-4.3942,-4.3367,-4.328,-4.3058,-4.2686,-4.302,-4.3299,-4.3318,-4.3745,-4.3801,-4.3318,-4.3299,-4.328,-4.3318,-4.3745,-4.4005,-4.4005,-4.3892,-4.3779,-4.3614,-4.339,-4.3087,-4.275,-4.2613,-4.2474,-4.2308,-4.2166,-4.2002,-4.1892,-4.1587,-4.1323,-4.1192,-4.1018,-4.0739,-4.0239,-4.0612,-4.0774,-4.0319,-4.0595,-4.0894,-4.0847,-4.0534,-3.9961,-3.9146,-3.8504,-3.7769,-3.6875,-3.6108,-3.538,-3.4732,-3.4538,-3.4538,-3.4522,-3.4327,-3.4295,-3.4538,-3.4376,-3.436,-3.4845,-3.457,-3.4246,-3.4547,-3.4279,-3.4101,-3.4117,-3.4101,-3.4101,-3.4101,-3.4101,-3.4101,-3.4101,-3.4101,-3.4101,-4.7536,-4.7267,-4.6369,-4.5825,-4.5594,-4.5594,-4.5594,-4.5594,-4.5594,-4.5594,-4.5594,-4.5594,-4.5594,-4.5594,-4.5594,-4.5594,-4.5594,-4.5594,-4.5594,-4.5594,-4.5594,-4.5594,-4.5594,-4.5594,-4.5594,-4.5594,-4.5594,-4.5594,-4.5594,-4.5594,-4.5594,-4.5594,-4.5594,-4.5594,-4.5594,-4.5594,-4.5504,-4.5332,-4.5293,-4.5191,-4.4908,-4.4726,-4.4229,-4.3427,-4.305,-4.2615,-4.2089,-4.2303,-4.2463,-4.2482,-4.3039,-4.3095,-4.2519,-4.2463,-4.2556,-4.2853,-4.3559,-4.4005,-4.4005,-4.4005,-4.3815,-4.3453,-4.3498,-4.3333,-4.2796,-4.2756,-4.2692,-4.2434,-4.219,-4.2023,-4.1784,-4.152,-4.1277,-4.114,-4.0989,-4.0636,-4.0181,-4.0601,-4.0687,-4.0181,-4.0601,-4.0894,-4.0847,-4.0534,-4.0011,-3.9289,-3.8444,-3.7508,-3.649,-3.5687,-3.4968,-3.423,-3.4117,-3.4117,-3.4101,-3.4117,-3.4392,-3.4554,-3.436,-3.4279,-3.4797,-3.4343,-3.4117,-3.4295,-3.4149,-3.4101,-3.4101,-3.4101,-3.4101,-3.4101,-3.4101,-3.4101,-3.4101,-3.4101,-3.4101,-4.8162,-4.7581,-4.7069,-4.6297,-4.5594,-4.5594,-4.5594,-4.5594,-4.5594,-4.5594,-4.5594,-4.5594,-4.5594,-4.5594,-4.5594,-4.5594,-4.5594,-4.5594,-4.5594,-4.5594,-4.5594,-4.5594,-4.5594,-4.5594,-4.5594,-4.5594,-4.5594,-4.5594,-4.5594,-4.5594,-4.5594,-4.5594,-4.5594,-4.5594,-4.5594,-4.5594,-4.5586,-4.5559,-4.5559,-4.5438,-4.5222,-4.518,-4.4992,-4.4586,-4.3691,-4.3106,-4.2929,-4.2155,-4.1661,-4.1661,-4.1772,-4.1739,-4.1646,-4.1646,-4.1962,-4.2667,-4.3485,-4.3949,-4.3912,-4.3875,-4.3581,-4.3049,-4.3245,-4.3247,-4.2577,-4.2883,-4.3014,-4.2729,-4.2516,-4.2213,-4.1723,-4.1565,-4.134,-4.0989,-4.0918,-4.086,-4.0774,-4.0756,-4.0877,-4.0756,-4.0808,-4.0894,-4.0888,-4.0576,-4.0095,-3.9478,-3.8588,-3.7512,-3.644,-3.5643,-3.4913,-3.4327,-3.4101,-3.4101,-3.4101,-3.4101,-3.4117,-3.423,-3.4279,-3.4117,-3.4117,-3.4117,-3.4101,-3.4101,-3.4101,-3.4101,-3.4101,-3.4101,-3.4101,-3.4101,-3.4101,-3.4101,-3.4101,-3.4101,-3.4101,-4.6679,-4.635,-4.6155,-4.5883,-4.5614,-4.5594,-4.5594,-4.5594,-4.5594,-4.5594,-4.5594,-4.5594,-4.5594,-4.5594,-4.5594,-4.5594,-4.5594,-4.5594,-4.5594,-4.5594,-4.5594,-4.5594,-4.5594,-4.5594,-4.5594,-4.5594,-4.5594,-4.5594,-4.5594,-4.5594,-4.5594,-4.5594,-4.5594,-4.5594,-4.5594,-4.5594,-4.5594,-4.5594,-4.5594,-4.5559,-4.5457,-4.5467,-4.5391,-4.5264,-4.4117,-4.2956,-4.1867,-4.1824,-4.1622,-4.1052,-4.139,-4.1349,-4.0884,-4.0843,-4.0954,-4.1293,-4.2017,-4.2463,-4.2463,-4.2445,-4.2352,-4.2129,-4.2684,-4.2892,-4.2617,-4.3016,-4.3339,-4.3069,-4.2957,-4.2614,-4.1984,-4.1569,-4.1209,-4.0965,-4.0894,-4.0681,-4.0353,-4.0567,-4.0722,-4.0353,-4.0532,-4.0894,-4.0871,-4.0769,-4.0305,-3.941,-3.8553,-3.7461,-3.6205,-3.5324,-3.4709,-3.4257,-3.4101,-3.4101,-3.4101,-3.4101,-3.4101,-3.4101,-3.4101,-3.4101,-3.4101,-3.4101,-3.4101,-3.4101,-3.4101,-3.4101,-3.4101,-3.4214,-3.4198,-3.4101,-3.4101,-3.423,-3.4101,-3.4101,-3.4101,-4.5955,-4.5664,-4.5893,-4.5864,-4.5614,-4.5594,-4.5594,-4.5594,-4.5594,-4.5594,-4.5594,-4.5594,-4.5594,-4.5594,-4.5594,-4.5594,-4.5594,-4.5594,-4.5594,-4.5594,-4.5594,-4.5594,-4.5594,-4.5594,-4.5594,-4.5594,-4.5594,-4.5594,-4.5594,-4.5594,-4.5594,-4.5594,-4.5594,-4.5594,-4.5594,-4.5594,-4.5594,-4.5594,-4.5594,-4.5594,-4.5575,-4.5325,-4.519,-4.5059,-4.4286,-4.3278,-4.2064,-4.1846,-4.1418,-4.0854,-4.0875,-4.0631,-4.0058,-4.0248,-4.0416,-4.049,-4.1163,-4.1605,-4.1605,-4.1605,-4.1497,-4.1256,-4.1924,-4.2332,-4.2213,-4.2899,-4.3137,-4.3006,-4.2938,-4.2614,-4.1803,-4.1278,-4.1021,-4.0919,-4.0894,-4.0705,-4.0198,-4.0601,-4.0618,-4.0302,-4.0308,-4.0584,-4.0808,-4.0653,-4.0079,-3.919,-3.835,-3.7192,-3.6122,-3.5217,-3.4635,-3.4349,-3.4159,-3.4126,-3.4101,-3.4101,-3.4101,-3.4101,-3.4101,-3.4101,-3.4101,-3.4101,-3.4101,-3.4101,-3.4101,-3.4101,-3.4165,-3.4295,-3.4262,-3.4165,-3.4376,-3.4586,-3.436,-3.4101,-3.4101,-4.6118,-4.5731,-4.6509,-4.6278,-4.5652,-4.5594,-4.5594,-4.5594,-4.5594,-4.5594,-4.5594,-4.5594,-4.5594,-4.5594,-4.5594,-4.5594,-4.5594,-4.5594,-4.5594,-4.5594,-4.5594,-4.5594,-4.5594,-4.5594,-4.5594,-4.5594,-4.5594,-4.5594,-4.5594,-4.5594,-4.5594,-4.5594,-4.5594,-4.5594,-4.5594,-4.5594,-4.5594,-4.5594,-4.5594,-4.5594,-4.5498,-4.4921,-4.4547,-4.447,-4.4329,-4.4105,-4.3837,-4.217,-4.1188,-4.0791,-4.0065,-3.9432,-3.9388,-3.9877,-4.0346,-4.0397,-4.1066,-4.1475,-4.146,-4.1386,-4.0996,-4.0643,-4.1126,-4.159,-4.1653,-4.2269,-4.2656,-4.2447,-4.2368,-4.1991,-4.1139,-4.0839,-4.0785,-4.0868,-4.0756,-4.0687,-4.067,-4.0774,-4.0825,-4.0567,-4.0095,-4.0043,-4.0446,-4.0129,-3.9473,-3.8839,-3.791,-3.691,-3.6233,-3.5414,-3.4853,-3.4635,-3.4423,-3.425,-3.4151,-3.4101,-3.4101,-3.4101,-3.4101,-3.4101,-3.4101,-3.4101,-3.4101,-3.4101,-3.4101,-3.4101,-3.4133,-3.4262,-3.4343,-3.4327,-3.466,-3.4725,-3.4392,-3.4101,-3.4101,-4.5601,-4.5624,-4.5893,-4.5864,-4.5594,-4.5594,-4.5594,-4.5594,-4.5594,-4.5594,-4.5594,-4.5594,-4.5594,-4.5594,-4.5594,-4.5594,-4.5594,-4.5594,-4.5594,-4.5594,-4.5594,-4.5594,-4.5594,-4.5594,-4.5594,-4.5594,-4.5594,-4.5594,-4.5594,-4.5594,-4.5594,-4.5594,-4.5594,-4.5594,-4.5594,-4.5594,-4.5594,-4.5594,-4.5594,-4.5594,-4.5594,-4.5344,-4.5182,-4.5152,-4.4624,-4.4271,-4.4141,-4.29,-4.1939,-4.1322,-4.0279,-3.9602,-3.9452,-3.9434,-3.9524,-3.9528,-3.9714,-3.9863,-3.9881,-3.9918,-3.9881,-3.9733,-4.0308,-4.0717,-4.0861,-4.1534,-4.1932,-4.1856,-4.1841,-4.1535,-4.0978,-4.0617,-4.0382,-4.0095,-4.006,-3.9894,-3.9549,-3.9376,-3.9341,-3.9284,-3.9077,-3.9077,-3.9238,-3.8991,-3.8739,-3.8196,-3.7556,-3.6977,-3.6135,-3.5695,-3.5195,-3.4811,-3.4594,-3.4399,-3.4275,-3.4201,-3.4176,-3.4126,-3.4101,-3.4101,-3.4101,-3.4101,-3.4101,-3.4101,-3.4101,-3.4117,-3.4149,-3.4279,-3.4408,-3.4327,-3.4392,-3.4311,-3.4149,-3.4101,-3.4101,-4.5438,-4.5586,-4.5594,-4.5594,-4.5594,-4.5594,-4.5594,-4.5594,-4.5594,-4.5594,-4.5594,-4.5594,-4.5594,-4.5594,-4.5594,-4.5594,-4.5594,-4.5594,-4.5594,-4.5594,-4.5594,-4.5594,-4.5594,-4.5594,-4.5594,-4.5594,-4.5594,-4.5594,-4.5594,-4.5594,-4.5594,-4.5594,-4.5594,-4.5594,-4.5594,-4.5594,-4.5594,-4.5594,-4.5594,-4.5594,-4.5518,-4.5287,-4.5133,-4.5037,-4.4575,-4.4162,-4.3865,-4.3184,-4.2575,-4.1876,-4.0829,-4.0002,-3.9539,-3.9245,-3.9101,-3.9101,-3.9101,-3.912,-3.912,-3.9528,-3.9565,-3.9714,-4.0364,-4.0847,-4.094,-4.1386,-4.1497,-4.12,-4.1144,-4.091,-4.0429,-4.0107,-3.9724,-3.9207,-3.9314,-3.915,-3.8691,-3.8358,-3.8387,-3.8491,-3.8387,-3.8336,-3.8491,-3.8272,-3.8065,-3.7581,-3.7232,-3.6952,-3.6143,-3.5888,-3.5492,-3.5171,-3.5008,-3.4747,-3.4423,-3.4325,-3.4275,-3.4176,-3.4101,-3.4101,-3.4101,-3.4101,-3.4101,-3.4101,-3.4101,-3.4101,-3.4149,-3.4505,-3.4683,-3.4473,-3.423,-3.436,-3.436,-3.4133,-3.4101,-4.5682,-4.5671,-4.5633,-4.5594,-4.5594,-4.5594,-4.5594,-4.5594,-4.5594,-4.5594,-4.5594,-4.5594,-4.5594,-4.5594,-4.5594,-4.5594,-4.5594,-4.5594,-4.571,-4.5729,-4.5671,-4.5594,-4.5594,-4.5594,-4.5594,-4.5594,-4.5594,-4.5594,-4.5594,-4.5594,-4.5594,-4.5594,-4.5594,-4.5594,-4.5594,-4.5594,-4.5594,-4.5594,-4.5594,-4.5594,-4.5575,-4.4893,-4.4509,-4.4509,-4.4374,-4.4008,-4.3489,-4.3291,-4.3029,-4.2546,-4.1366,-4.0474,-3.9764,-3.9322,-3.9137,-3.9137,-3.911,-3.9101,-3.9268,-3.9825,-4.0253,-4.0323,-4.0958,-4.1534,-4.1349,-4.1274,-4.1051,-4.042,-4.0327,-4.0145,-3.9687,-3.941,-3.8942,-3.8353,-3.8391,-3.8447,-3.8415,-3.7806,-3.768,-3.8025,-3.787,-3.7629,-3.8146,-3.7737,-3.7478,-3.7249,-3.6784,-3.6435,-3.6268,-3.6045,-3.5854,-3.5633,-3.5362,-3.5031,-3.4667,-3.4497,-3.4423,-3.4176,-3.4101,-3.4101,-3.4101,-3.4101,-3.4101,-3.4101,-3.4101,-3.4101,-3.4182,-3.4473,-3.4538,-3.4295,-3.4295,-3.4554,-3.4489,-3.4214,-3.4101,-4.6547,-4.649,-4.5855,-4.5594,-4.5594,-4.5594,-4.5594,-4.5594,-4.5594,-4.5594,-4.5594,-4.5594,-4.5594,-4.5594,-4.5594,-4.5594,-4.5594,-4.5594,-4.6009,-4.6374,-4.5864,-4.5614,-4.5594,-4.5594,-4.5594,-4.5594,-4.5594,-4.5594,-4.5594,-4.5594,-4.5594,-4.5594,-4.5594,-4.5594,-4.5594,-4.5594,-4.5594,-4.5594,-4.5594,-4.5594,-4.5556,-4.5383,-4.5267,-4.521,-4.4643,-4.4239,-4.3989,-4.3989,-4.3299,-4.2125,-4.1581,-4.1163,-4.0834,-4.0024,-3.9551,-3.95,-3.928,-3.9138,-3.9305,-3.9974,-4.0416,-4.0471,-4.1293,-4.1326,-4.075,-4.0736,-4.029,-3.9658,-3.9435,-3.9449,-3.925,-3.9026,-3.851,-3.7715,-3.7426,-3.7128,-3.6995,-3.6766,-3.6715,-3.6835,-3.6749,-3.6835,-3.6887,-3.687,-3.668,-3.6628,-3.6473,-3.6284,-3.6259,-3.6237,-3.6049,-3.5854,-3.5588,-3.5241,-3.4954,-3.4763,-3.4546,-3.4201,-3.4101,-3.4101,-3.4101,-3.4101,-3.4101,-3.4101,-3.4101,-3.4101,-3.4101,-3.423,-3.4133,-3.4117,-3.4182,-3.4343,-3.4279,-3.4101,-3.4101,-4.6904,-4.6827,-4.597,-4.5594,-4.5594,-4.5594,-4.5594,-4.5594,-4.5594,-4.5594,-4.5594,-4.5594,-4.5594,-4.5594,-4.5594,-4.5594,-4.5594,-4.5594,-4.6067,-4.6721,-4.6394,-4.599,-4.571,-4.5594,-4.5594,-4.5594,-4.5594,-4.5594,-4.5594,-4.5594,-4.5594,-4.5594,-4.5594,-4.5594,-4.5594,-4.5594,-4.5594,-4.5594,-4.5594,-4.5594,-4.5594,-4.5594,-4.5594,-4.5537,-4.5056,-4.4739,-4.4393,-4.4297,-4.3528,-4.2294,-4.2171,-4.2345,-4.1915,-4.1203,-4.0683,-4.0572,-4.0373,-4.0308,-4.0318,-4.0921,-4.1367,-4.1553,-4.2147,-4.211,-4.1683,-4.1386,-4.0996,-3.99,-3.9677,-3.9454,-3.9105,-3.8755,-3.8234,-3.7631,-3.6895,-3.6426,-3.6322,-3.6335,-3.6284,-3.6284,-3.6284,-3.6284,-3.6284,-3.6284,-3.6284,-3.6301,-3.6353,-3.6284,-3.6284,-3.6284,-3.6259,-3.6049,-3.592,-3.5655,-3.5424,-3.5241,-3.4835,-3.4472,-3.4101,-3.4101,-3.4101,-3.4101,-3.4101,-3.4101,-3.4101,-3.4101,-3.4101,-3.4101,-3.4101,-3.4101,-3.4101,-3.4101,-3.4101,-3.4101,-3.4101,-4.6971,-4.6827,-4.5951,-4.5594,-4.5594,-4.5594,-4.5594,-4.5594,-4.5594,-4.5594,-4.5594,-4.5594,-4.5594,-4.5594,-4.5594,-4.5594,-4.5594,-4.5594,-4.6144,-4.6663,-4.6759,-4.6471,-4.5913,-4.5671,-4.5614,-4.5594,-4.5594,-4.5594,-4.5594,-4.5594,-4.5594,-4.5594,-4.5594,-4.5594,-4.5594,-4.5594,-4.5594,-4.5594,-4.5594,-4.5594,-4.5594,-4.5594,-4.5594,-4.5575,-4.5537,-4.5009,-4.4547,-4.4335,-4.3778,-4.2162,-4.3349,-4.3446,-4.2891,-4.2631,-4.2226,-4.192,-4.1724,-4.1635,-4.1682,-4.2092,-4.2667,-4.2705,-4.3373,-4.3633,-4.2779,-4.237,-4.1757,-4.0606,-4.0457,-3.9993,-3.9435,-3.8679,-3.8152,-3.7756,-3.7166,-3.6731,-3.6423,-3.6322,-3.6284,-3.6284,-3.6284,-3.6284,-3.6284,-3.6284,-3.6284,-3.6284,-3.6284,-3.6284,-3.6284,-3.6284,-3.6284,-3.6241,-3.6156,-3.6114,-3.5898,-3.5739,-3.5241,-3.4787,-3.43,-3.4101,-3.4101,-3.4101,-3.4101,-3.4101,-3.4101,-3.4101,-3.4101,-3.4101,-3.4101,-3.4101,-3.4101,-3.4101,-3.4101,-3.4101,-3.4101,-4.7471,-4.6827,-4.5951,-4.5594,-4.5594,-4.5594,-4.5594,-4.5594,-4.5594,-4.5594,-4.5594,-4.5594,-4.5594,-4.5594,-4.5594,-4.5594,-4.5614,-4.5671,-4.6067,-4.6808,-4.6904,-4.6836,-4.6432,-4.5932,-4.5614,-4.5594,-4.5594,-4.5594,-4.5594,-4.5594,-4.5594,-4.5594,-4.5594,-4.5594,-4.5594,-4.5594,-4.5594,-4.5594,-4.5594,-4.5594,-4.5594,-4.5594,-4.5594,-4.5594,-4.5594,-4.5171,-4.4662,-4.4951,-4.4778,-4.4135,-4.4013,-4.4189,-4.3865,-4.3197,-4.2705,-4.2456,-4.2203,-4.1975,-4.1845,-4.2407,-4.2797,-4.2946,-4.3503,-4.3652,-4.2853,-4.2296,-4.185,-4.1237,-4.0806,-4.0364,-3.9908,-3.9176,-3.8593,-3.8142,-3.7739,-3.7293,-3.6766,-3.6461,-3.6343,-3.6284,-3.6284,-3.6284,-3.6284,-3.6284,-3.6284,-3.6284,-3.6284,-3.6284,-3.6284,-3.6284,-3.6284,-3.6284,-3.6262,-3.6178,-3.6028,-3.5827,-3.5447,-3.4984,-3.4529,-3.4126,-3.4101,-3.4101,-3.4101,-3.4101,-3.4101,-3.4101,-3.4101,-3.4101,-3.4101,-3.4101,-3.4101,-3.4101,-3.4101,-3.4101,-3.4101,-4.7644,-4.6836,-4.597,-4.5594,-4.5594,-4.5594,-4.5594,-4.5594,-4.5594,-4.5594,-4.5594,-4.5594,-4.5594,-4.5594,-4.5594,-4.5594,-4.571,-4.6047,-4.6201,-4.6451,-4.6605,-4.6682,-4.6259,-4.5874,-4.5594,-4.5594,-4.5594,-4.5594,-4.5594,-4.5594,-4.5594,-4.5594,-4.5594,-4.5594,-4.5594,-4.5594,-4.5594,-4.5594,-4.5594,-4.5594,-4.5594,-4.5594,-4.5594,-4.5594,-4.5594,-4.5344,-4.5056,-4.5325,-4.5325,-4.5037,-4.4902,-4.4893,-4.4874,-4.4382,-4.3893,-4.3521,-4.3384,-4.3093,-4.3021,-4.3076,-4.3373,-4.3336,-4.3801,-4.3689,-4.3429,-4.2927,-4.2556,-4.211,-4.1423,-4.0717,-3.9904,-3.9734,-3.9135,-3.8814,-3.8455,-3.8056,-3.756,-3.6951,-3.6423,-3.6343,-3.6284,-3.6284,-3.6284,-3.6284,-3.6284,-3.6284,-3.6284,-3.6284,-3.6284,-3.6284,-3.6284,-3.6284,-3.6284,-3.622,-3.611,-3.5871,-3.5566,-3.5131,-3.4723,-3.4333,-3.4151,-3.4126,-3.4101,-3.4101,-3.4101,-3.4101,-3.4101,-3.4101,-3.4101,-3.4101,-3.4101,-3.4101,-3.4101,-3.4101,-3.4101,-4.7635,-4.6827,-4.5951,-4.5594,-4.5594,-4.5594,-4.5594,-4.5594,-4.5594,-4.5594,-4.5594,-4.5594,-4.5594,-4.5594,-4.5594,-4.5594,-4.5787,-4.6182,-4.6259,-4.6201,-4.6374,-4.6394,-4.6009,-4.5787,-4.5594,-4.5594,-4.5594,-4.5594,-4.5594,-4.5594,-4.5594,-4.5594,-4.5594,-4.5594,-4.5594,-4.5594,-4.5594,-4.5594,-4.5594,-4.5594,-4.5594,-4.5594,-4.5594,-4.5594,-4.5594,-4.5575,-4.5479,-4.5556,-4.5575,-4.5594,-4.5594,-4.5594,-4.5594,-4.5568,-4.5352,-4.4792,-4.4555,-4.4229,-4.3808,-4.3875,-4.3931,-4.4005,-4.4005,-4.4005,-4.3931,-4.367,-4.3336,-4.2909,-4.2222,-4.1311,-3.9923,-4.0048,-4.0089,-3.9712,-3.93,-3.8867,-3.8382,-3.7479,-3.678,-3.6444,-3.6423,-3.6423,-3.6343,-3.6284,-3.6284,-3.6284,-3.6284,-3.6284,-3.6284,-3.6284,-3.6284,-3.6284,-3.6284,-3.6284,-3.6156,-3.5958,-3.5633,-3.5362,-3.4944,-3.4602,-3.4275,-3.4151,-3.4126,-3.4101,-3.4101,-3.4101,-3.4101,-3.4101,-3.4101,-3.4101,-3.4101,-3.4101,-3.4101,-3.4101,-3.4101,-4.7615,-4.6827,-4.5951,-4.5594,-4.5594,-4.5594,-4.5594,-4.5594,-4.5594,-4.5594,-4.5594,-4.5594,-4.5594,-4.5594,-4.5594,-4.5594,-4.5671,-4.5893,-4.6144,-4.6259,-4.624,-4.5951,-4.6297,-4.5825,-4.5614,-4.5594,-4.5652,-4.571,-4.5594,-4.5594,-4.5594,-4.5594,-4.5594,-4.5594,-4.5594,-4.5594,-4.5594,-4.5594,-4.5594,-4.5594,-4.5594,-4.5594,-4.5594,-4.5594,-4.5594,-4.5594,-4.5594,-4.5594,-4.5594,-4.5594,-4.5594,-4.5594,-4.5586,-4.5586,-4.5312,-4.495,-4.4788,-4.4578,-4.4091,-4.4005,-4.4005,-4.4005,-4.4005,-4.4005,-4.3875,-4.3485,-4.3336,-4.328,-4.2872,-4.2296,-4.2222,-4.1382,-4.1021,-4.0555,-3.9994,-3.9318,-3.8625,-3.7927,-3.722,-3.6902,-3.6768,-3.6523,-3.6385,-3.6284,-3.6284,-3.6284,-3.6284,-3.6284,-3.6284,-3.6284,-3.6284,-3.6284,-3.6284,-3.6284,-3.6262,-3.6023,-3.5761,-3.5588,-3.5224,-3.4859,-3.4546,-3.4275,-3.4151,-3.4126,-3.4101,-3.4101,-3.4101,-3.4101,-3.4101,-3.4101,-3.4101,-3.4101,-3.4101,-3.4101,-3.4101,-4.7375,-4.622,-4.5768,-4.5594,-4.5594,-4.5594,-4.5594,-4.5594,-4.5594,-4.5594,-4.5594,-4.5594,-4.5594,-4.5594,-4.5594,-4.5594,-4.5594,-4.5594,-4.5864,-4.6067,-4.5836,-4.5768,-4.622,-4.5748,-4.5652,-4.5729,-4.599,-4.597,-4.5652,-4.5594,-4.5614,-4.5594,-4.5594,-4.5594,-4.5594,-4.5594,-4.5594,-4.5594,-4.5594,-4.5594,-4.5594,-4.5594,-4.5594,-4.5594,-4.5594,-4.5594,-4.5594,-4.5594,-4.5594,-4.5594,-4.5594,-4.5594,-4.5568,-4.5429,-4.5203,-4.4884,-4.4776,-4.4546,-4.4106,-4.4005,-4.4005,-4.4005,-4.4005,-4.4005,-4.3949,-4.3689,-4.3262,-4.2779,-4.2519,-4.1794,-4.0828,-4.1349,-4.1169,-4.0611,-4.0525,-4.0327,-3.9587,-3.8948,-3.8286,-3.7584,-3.7068,-3.6727,-3.6343,-3.6284,-3.6284,-3.6284,-3.6284,-3.6284,-3.6284,-3.6284,-3.6284,-3.6284,-3.6284,-3.6284,-3.6284,-3.6135,-3.5958,-3.5766,-3.5521,-3.5125,-3.4787,-3.4497,-3.4275,-3.4109,-3.4101,-3.4101,-3.4101,-3.4101,-3.4101,-3.4101,-3.4101,-3.4101,-3.4101,-3.4101,-3.4101,-4.7086,-4.5864,-4.5671,-4.5594,-4.5594,-4.5594,-4.5594,-4.5594,-4.5594,-4.5594,-4.5594,-4.5594,-4.5594,-4.5594,-4.5594,-4.5594,-4.5594,-4.5594,-4.5633,-4.5652,-4.5633,-4.5614,-4.5594,-4.5594,-4.5594,-4.5729,-4.6394,-4.6432,-4.5797,-4.5855,-4.5806,-4.5652,-4.5594,-4.5594,-4.5594,-4.5594,-4.5594,-4.5594,-4.5594,-4.5594,-4.5594,-4.5594,-4.5594,-4.5594,-4.5594,-4.5594,-4.5594,-4.5594,-4.5594,-4.5594,-4.5594,-4.5594,-4.554,-4.5323,-4.5074,-4.4849,-4.477,-4.4457,-4.4151,-4.4005,-4.4005,-4.4005,-4.4005,-4.4005,-4.4005,-4.3838,-4.3485,-4.2352,-4.1924,-4.1794,-4.1256,-4.1274,-4.1471,-4.1275,-4.1508,-4.1613,-4.0726,-3.9959,-3.9258,-3.8486,-3.7594,-3.6986,-3.6679,-3.6284,-3.6284,-3.6284,-3.6284,-3.6284,-3.6284,-3.6284,-3.6284,-3.6284,-3.6284,-3.6284,-3.6284,-3.6284,-3.6114,-3.5985,-3.5744,-3.5447,-3.5078,-3.4739,-3.448,-3.4209,-3.4101,-3.4101,-3.4101,-3.4101,-3.4101,-3.4101,-3.4101,-3.4101,-3.4101,-3.4101,-3.4101,-4.6923,-4.6682,-4.5913,-4.5594,-4.5594,-4.5594,-4.5594,-4.5594,-4.5594,-4.5594,-4.5594,-4.5594,-4.5594,-4.5594,-4.5594,-4.5594,-4.5594,-4.5594,-4.5594,-4.5594,-4.5594,-4.5652,-4.5652,-4.5594,-4.5845,-4.6095,-4.6721,-4.6336,-4.6105,-4.6471,-4.6297,-4.5845,-4.5652,-4.5633,-4.5778,-4.5652,-4.5594,-4.5594,-4.5594,-4.5594,-4.5594,-4.5594,-4.5594,-4.5594,-4.5594,-4.5594,-4.5594,-4.5594,-4.5594,-4.5594,-4.5594,-4.5594,-4.554,-4.5342,-4.5074,-4.4812,-4.4572,-4.4336,-4.4064,-4.4005,-4.4005,-4.4005,-4.4005,-4.4005,-4.4005,-4.4005,-4.3838,-4.3838,-4.3058,-4.2612,-4.2407,-4.2705,-4.286,-4.2541,-4.2237,-4.2013,-4.136,-4.093,-4.0224,-3.9507,-3.8661,-3.7723,-3.7105,-3.6658,-3.6284,-3.6284,-3.6284,-3.6284,-3.6284,-3.6284,-3.6284,-3.6284,-3.6284,-3.6284,-3.6284,-3.6284,-3.6241,-3.6156,-3.5963,-3.5717,-3.5402,-3.5031,-3.4594,-3.4358,-3.425,-3.4126,-3.4101,-3.4101,-3.4101,-3.4101,-3.4101,-3.4101,-3.4101,-3.4101,-3.4101,-4.6043,-4.6124,-4.5748,-4.5594,-4.5594,-4.5594,-4.5594,-4.5594,-4.5594,-4.5594,-4.5594,-4.5594,-4.5594,-4.5594,-4.5594,-4.5594,-4.5594,-4.5594,-4.5594,-4.5594,-4.5633,-4.5836,-4.6259,-4.6374,-4.649,-4.7009,-4.7721,-4.7932,-4.7336,-4.6836,-4.6644,-4.6374,-4.5902,-4.5913,-4.6105,-4.5806,-4.5652,-4.5594,-4.5594,-4.5594,-4.5594,-4.5594,-4.5594,-4.5594,-4.5594,-4.5594,-4.5594,-4.5594,-4.5594,-4.5594,-4.5594,-4.5594,-4.5495,-4.5232,-4.4903,-4.4819,-4.4388,-4.4136,-4.4002,-4.4005,-4.4005,-4.4005,-4.4005,-4.4005,-4.4005,-4.3986,-4.3763,-4.3299,-4.302,-4.289,-4.2872,-4.276,-4.2622,-4.2525,-4.2691,-4.2375,-4.1959,-4.1722,-4.1172,-4.0471,-3.9732,-3.8845,-3.7833,-3.6998,-3.6588,-3.6422,-3.637,-3.6284,-3.6284,-3.6284,-3.6284,-3.6284,-3.6284,-3.6284,-3.6284,-3.6284,-3.6284,-3.622,-3.622,-3.5963,-3.5717,-3.5339,-3.4944,-3.4626,-3.4521,-3.4374,-3.4176,-3.4101,-3.4101,-3.4101,-3.4101,-3.4101,-3.4101,-3.4101,-3.4101,-4.5283,-4.5586,-4.5594,-4.5594,-4.5594,-4.5594,-4.5594,-4.5594,-4.5594,-4.5594,-4.5594,-4.5594,-4.5594,-4.5594,-4.5594,-4.5594,-4.5594,-4.5594,-4.5594,-4.5594,-4.5671,-4.5951,-4.6317,-4.6663,-4.7144,-4.7875,-4.8663,-4.8625,-4.8105,-4.7778,-4.7586,-4.7182,-4.6413,-4.6355,-4.649,-4.6086,-4.5594,-4.5594,-4.5594,-4.5594,-4.5594,-4.5594,-4.5594,-4.5594,-4.5594,-4.5594,-4.5594,-4.5594,-4.5594,-4.5594,-4.5594,-4.5594,-4.5522,-4.5148,-4.4868,-4.4707,-4.4351,-4.4051,-4.4005,-4.4005,-4.4005,-4.4005,-4.4005,-4.4005,-4.4005,-4.3986,-4.3875,-4.3336,-4.2927,-4.2612,-4.2407,-4.2742,-4.2727,-4.2797,-4.2869,-4.2608,-4.2341,-4.2071,-4.178,-4.1218,-4.0549,-4.0049,-3.8944,-3.7596,-3.6945,-3.665,-3.6473,-3.6318,-3.6284,-3.6284,-3.6284,-3.6284,-3.6284,-3.6284,-3.6284,-3.6284,-3.6284,-3.6284,-3.6284,-3.6156,-3.5832,-3.5655,-3.5385,-3.5108,-3.4835,-3.4594,-3.4399,-3.425,-3.4101,-3.4101,-3.4101,-3.4101,-3.4101,-3.4101,-3.4133,-4.5148,-4.5594,-4.5594,-4.5594,-4.5594,-4.5594,-4.5594,-4.5594,-4.5594,-4.5594,-4.5594,-4.5594,-4.5594,-4.5594,-4.5594,-4.5594,-4.5594,-4.5594,-4.5594,-4.5594,-4.5633,-4.5768,-4.6201,-4.6682,-4.7144,-4.7548,-4.8817,-4.9029,-4.8548,-4.8971,-4.8586,-4.8009,-4.7105,-4.6904,-4.6663,-4.6163,-4.5652,-4.5594,-4.5594,-4.5594,-4.5594,-4.5594,-4.5594,-4.5594,-4.5594,-4.5594,-4.5594,-4.5594,-4.5594,-4.5594,-4.5594,-4.5594,-4.5504,-4.5074,-4.4843,-4.4688,-4.4294,-4.4051,-4.4005,-4.4005,-4.4005,-4.4005,-4.4005,-4.4005,-4.4005,-4.4005,-4.3912,-4.3763,-4.3318,-4.3243,-4.3243,-4.3355,-4.3188,-4.3251,-4.3249,-4.2993,-4.2704,-4.2358,-4.2088,-4.1771,-4.1297,-4.0717,-3.9892,-3.8521,-3.743,-3.7098,-3.6473,-3.6284,-3.6284,-3.6284,-3.6284,-3.6284,-3.6284,-3.6284,-3.6284,-3.6284,-3.6284,-3.6284,-3.6284,-3.6135,-3.5915,-3.5766,-3.5722,-3.5407,-3.5102,-3.4842,-3.4618,-3.4423,-3.4275,-3.4151,-3.4101,-3.4101,-3.4101,-3.4101,-3.4165,-4.5272,-4.5586,-4.5594,-4.5594,-4.5594,-4.5594,-4.5594,-4.5594,-4.5594,-4.5594,-4.5594,-4.5594,-4.5594,-4.5594,-4.5594,-4.5594,-4.5594,-4.5594,-4.5594,-4.5594,-4.5614,-4.5913,-4.6432,-4.7182,-4.7932,-4.8509,-4.9586,-5.0135,-4.9875,-4.9952,-4.999,-4.9317,-4.7894,-4.7462,-4.7067,-4.6413,-4.5787,-4.5633,-4.5614,-4.5594,-4.5594,-4.5594,-4.5594,-4.5594,-4.5594,-4.5594,-4.5594,-4.5594,-4.5594,-4.5594,-4.5594,-4.5586,-4.5504,-4.5071,-4.4843,-4.4726,-4.4265,-4.4051,-4.4005,-4.4005,-4.4005,-4.4005,-4.4005,-4.4005,-4.4005,-4.4005,-4.4005,-4.3875,-4.3726,-4.3708,-4.3763,-4.3726,-4.3674,-4.3751,-4.3631,-4.3339,-4.3031,-4.2649,-4.2331,-4.2021,-4.1711,-4.1297,-4.0377,-3.9412,-3.8391,-3.7512,-3.6839,-3.6284,-3.6284,-3.6284,-3.6284,-3.6284,-3.6284,-3.6284,-3.6284,-3.6284,-3.6284,-3.6284,-3.6284,-3.6156,-3.6028,-3.6114,-3.6006,-3.5677,-3.5385,-3.5178,-3.4937,-3.4643,-3.4399,-3.4201,-3.4101,-3.4101,-3.4101,-3.4101,-3.4214,-4.5352,-4.5586,-4.5594,-4.5594,-4.5594,-4.5594,-4.5594,-4.5594,-4.5594,-4.5594,-4.5594,-4.5594,-4.5594,-4.5594,-4.5594,-4.5594,-4.5594,-4.5594,-4.5594,-4.571,-4.5951,-4.6336,-4.7067,-4.7894,-4.874,-4.9529,-5.0202,-5.0587,-5.051,-5.0644,-5.0577,-4.9933,-4.8836,-4.8317,-4.7952,-4.6913,-4.5979,-4.597,-4.571,-4.5614,-4.5594,-4.5594,-4.5594,-4.5594,-4.5594,-4.5594,-4.5594,-4.5594,-4.5594,-4.5594,-4.5586,-4.554,-4.5352,-4.5096,-4.48,-4.4559,-4.4303,-4.402,-4.4005,-4.4005,-4.4005,-4.4005,-4.4005,-4.4005,-4.4005,-4.4005,-4.4005,-4.4005,-4.3986,-4.4005,-4.4005,-4.3912,-4.3893,-4.391,-4.3647,-4.3356,-4.3123,-4.2786,-4.2512,-4.2234,-4.1966,-4.1703,-4.0845,-3.9809,-3.8296,-3.7383,-3.6719,-3.6284,-3.6284,-3.6284,-3.6284,-3.6284,-3.6284,-3.6284,-3.6284,-3.6284,-3.6284,-3.6284,-3.6284,-3.6284,-3.6241,-3.6284,-3.6262,-3.6006,-3.5744,-3.5521,-3.5224,-3.4913,-3.4529,-3.4176,-3.4126,-3.4101,-3.4101,-3.4117,-3.4262,-4.5381,-4.5586,-4.5594,-4.5594,-4.5594,-4.5594,-4.5594,-4.5594,-4.5594,-4.5594,-4.5594,-4.5594,-4.5594,-4.5594,-4.5594,-4.5594,-4.5594,-4.5594,-4.5594,-4.5729,-4.6105,-4.6663,-4.7375,-4.8202,-4.9009,-4.9529,-5.0212,-5.0683,-5.0683,-5.0683,-5.0683,-5.0519,-4.9683,-4.9067,-4.9183,-4.7682,-4.6894,-4.6712,-4.599,-4.5671,-4.5594,-4.5594,-4.5594,-4.5594,-4.5594,-4.5594,-4.5594,-4.5594,-4.5594,-4.5594,-4.5594,-4.5495,-4.5243,-4.4996,-4.4701,-4.4457,-4.4181,-4.402,-4.4005,-4.4005,-4.4005,-4.4005,-4.4005,-4.4005,-4.4005,-4.4005,-4.4005,-4.4005,-4.4005,-4.4005,-4.4005,-4.4005,-4.4005,-4.3926,-4.3664,-4.3409,-4.316,-4.2863,-4.2593,-4.231,-4.2267,-4.2056,-4.1213,-4.0122,-3.8299,-3.7188,-3.655,-3.6284,-3.6284,-3.6284,-3.6284,-3.6284,-3.6284,-3.6284,-3.6284,-3.6284,-3.6284,-3.6284,-3.6284,-3.6284,-3.6284,-3.6284,-3.6262,-3.6199,-3.6049,-3.5788,-3.5498,-3.5195,-3.4747,-3.4325,-3.4151,-3.4101,-3.4101,-3.423,-3.4457,-4.5513,-4.5594,-4.5594,-4.5594,-4.5594,-4.5594,-4.5594,-4.5594,-4.5594,-4.5594,-4.5594,-4.5594,-4.5594,-4.5594,-4.5594,-4.5594,-4.5594,-4.5594,-4.5594,-4.5691,-4.6144,-4.6413,-4.7163,-4.8202,-4.8952,-4.951,-5.0202,-5.0683,-5.0683,-5.0683,-5.0683,-5.0539,-5.0279,-4.9625,-4.8586,-4.7432,-4.6904,-4.674,-4.6105,-4.5594,-4.5594,-4.5594,-4.5594,-4.5594,-4.5594,-4.5594,-4.5594,-4.5594,-4.5594,-4.5594,-4.5594,-4.5448,-4.5201,-4.4938,-4.4676,-4.4416,-4.4151,-4.4005,-4.4005,-4.4005,-4.4005,-4.4005,-4.4005,-4.4005,-4.4005,-4.4005,-4.4005,-4.4005,-4.4005,-4.4005,-4.4005,-4.4005,-4.3989,-4.3958,-4.373,-4.3461,-4.3196,-4.2883,-4.2613,-4.2331,-4.2205,-4.1271,-4.038,-3.9873,-3.8372,-3.7122,-3.6467,-3.6305,-3.6284,-3.6284,-3.6284,-3.6284,-3.6284,-3.6284,-3.6284,-3.6284,-3.6284,-3.6284,-3.6284,-3.6284,-3.6284,-3.6284,-3.6284,-3.6241,-3.6174,-3.6067,-3.5694,-3.531,-3.4883,-3.4538,-3.4374,-3.4435,-3.4619,-3.4732,-3.4878,-4.5594,-4.5594,-4.5594,-4.5594,-4.5594,-4.5594,-4.5594,-4.5594,-4.5594,-4.5594,-4.5594,-4.5594,-4.5594,-4.5594,-4.5594,-4.5594,-4.5614,-4.5951,-4.6047,-4.6144,-4.6797,-4.7413,-4.8029,-4.8509,-4.949,-4.9933,-5.0279,-5.0683,-5.0683,-5.0683,-5.0683,-5.0683,-5.0664,-5.0125,-4.9125,-4.8452,-4.7682,-4.7355,-4.6644,-4.5932,-4.5748,-4.5594,-4.5594,-4.5594,-4.5594,-4.5594,-4.5594,-4.5594,-4.5594,-4.5594,-4.554,-4.54,-4.5148,-4.4903,-4.4612,-4.4336,-4.4121,-4.4005,-4.4005,-4.4005,-4.4005,-4.4005,-4.4005,-4.4005,-4.4005,-4.4005,-4.4005,-4.4005,-4.4005,-4.4005,-4.4005,-4.4005,-4.3989,-4.3942,-4.3862,-4.358,-4.3177,-4.2866,-4.2655,-4.2376,-4.2059,-4.0922,-3.9715,-3.9118,-3.8347,-3.7338,-3.6402,-3.6343,-3.6284,-3.6284,-3.6284,-3.6284,-3.6284,-3.6284,-3.6284,-3.6284,-3.6284,-3.6284,-3.6284,-3.6284,-3.6284,-3.6284,-3.6284,-3.6284,-3.622,-3.611,-3.581,-3.543,-3.5192,-3.4892,-3.4675,-3.4849,-3.5143,-3.523,-3.5266,-4.5594,-4.5594,-4.5594,-4.5594,-4.5594,-4.5594,-4.5594,-4.5594,-4.5594,-4.5594,-4.5594,-4.5594,-4.5594,-4.5594,-4.5594,-4.5594,-4.5768,-4.6413,-4.6663,-4.7163,-4.7855,-4.8625,-4.926,-4.9846,-5.0087,-5.0433,-5.0683,-5.0683,-5.0683,-5.0683,-5.0683,-5.0683,-5.0683,-5.0433,-5.0067,-4.9606,-4.8836,-4.8144,-4.7355,-4.6701,-4.6345,-4.5902,-4.5883,-4.5845,-4.572,-4.5614,-4.5594,-4.5594,-4.5594,-4.5594,-4.5586,-4.5263,-4.4988,-4.48,-4.4471,-4.4181,-4.4002,-4.4005,-4.4005,-4.4005,-4.4005,-4.4005,-4.4005,-4.4005,-4.4005,-4.4005,-4.4005,-4.4005,-4.4005,-4.4005,-4.4005,-4.4005,-4.4005,-4.3989,-4.3989,-4.3644,-4.3194,-4.2886,-4.2697,-4.248,-4.2313,-4.1351,-3.9813,-3.8965,-3.8355,-3.7255,-3.6423,-3.6343,-3.6284,-3.6284,-3.6284,-3.6284,-3.6284,-3.6284,-3.6284,-3.6284,-3.6284,-3.6284,-3.6284,-3.6284,-3.6284,-3.6284,-3.6284,-3.6284,-3.6284,-3.6156,-3.5963,-3.5829,-3.5661,-3.5431,-3.5502,-3.5522,-3.5947,-3.5602,-3.5651,-4.5594,-4.5594,-4.5594,-4.5594,-4.5594,-4.5594,-4.5594,-4.5594,-4.5594,-4.5594,-4.5594,-4.5594,-4.5594,-4.5594,-4.5594,-4.5594,-4.5922,-4.6394,-4.6778,-4.7451,-4.8317,-4.8836,-4.9356,-4.9837,-5.0183,-5.051,-5.0683,-5.0683,-5.0683,-5.0683,-5.0683,-5.0683,-5.0683,-5.0683,-5.0616,-5.0462,-4.976,-4.9029,-4.8202,-4.7605,-4.7105,-4.6682,-4.6547,-4.6336,-4.5817,-4.5691,-4.5594,-4.5594,-4.5594,-4.5594,-4.5594,-4.5342,-4.4861,-4.4776,-4.4559,-4.4094,-4.4005,-4.4005,-4.4005,-4.4005,-4.4005,-4.4005,-4.4005,-4.4005,-4.4005,-4.4005,-4.4005,-4.4005,-4.4005,-4.4005,-4.4005,-4.4005,-4.4005,-4.4005,-4.3936,-4.3652,-4.3189,-4.2832,-4.2556,-4.1715,-4.1566,-4.1005,-3.9504,-3.9007,-3.8332,-3.7158,-3.6444,-3.6343,-3.6284,-3.6284,-3.6284,-3.6284,-3.6284,-3.6284,-3.6284,-3.6284,-3.6284,-3.6284,-3.6284,-3.6284,-3.6284,-3.6284,-3.6284,-3.6284,-3.6284,-3.628,-3.6216,-3.6151,-3.6288,-3.6684,-3.681,-3.6709,-3.6622,-3.6406,-3.6503,-4.5594,-4.5594,-4.5594,-4.5594,-4.5594,-4.5594,-4.5594,-4.5594,-4.5594,-4.5594,-4.5594,-4.5594,-4.5594,-4.5594,-4.5594,-4.5633,-4.5729,-4.6874,-4.7451,-4.7721,-4.8529,-4.9394,-4.9846,-4.9913,-5.0269,-5.0577,-5.0683,-5.0683,-5.0683,-5.0683,-5.0683,-5.0683,-5.0683,-5.0683,-5.0673,-5.0616,-5.0423,-4.9779,-4.9144,-4.8548,-4.799,-4.7413,-4.7048,-4.6778,-4.6086,-4.5729,-4.5594,-4.5594,-4.5594,-4.5594,-4.5594,-4.5342,-4.4837,-4.4612,-4.443,-4.402,-4.4005,-4.4005,-4.4005,-4.4005,-4.4005,-4.4005,-4.4005,-4.4005,-4.4005,-4.4005,-4.4005,-4.4005,-4.4005,-4.4005,-4.4005,-4.4005,-4.4005,-4.4005,-4.3815,-4.3608,-4.3195,-4.2791,-4.1922,-4.0881,-4.0349,-3.997,-3.9396,-3.8954,-3.8244,-3.7026,-3.6402,-3.6343,-3.6284,-3.6284,-3.6284,-3.6284,-3.6284,-3.6284,-3.6284,-3.6284,-3.6284,-3.6284,-3.6284,-3.6284,-3.6284,-3.6318,-3.6335,-3.6318,-3.6284,-3.64,-3.6655,-3.6895,-3.7102,-3.7513,-3.7911,-3.7916,-3.7758,-3.7553,-3.7858,-4.5594,-4.5594,-4.5594,-4.5594,-4.5594,-4.5594,-4.5594,-4.5594,-4.5594,-4.5594,-4.5594,-4.5594,-4.5594,-4.5594,-4.5594,-4.5748,-4.624,-4.7278,-4.8048,-4.8231,-4.9606,-5.0404,-5.0462,-5.0664,-5.0577,-5.0635,-5.0683,-5.0683,-5.0683,-5.0683,-5.0683,-5.0683,-5.0683,-5.0683,-5.0683,-5.0683,-5.0577,-5.0385,-4.9846,-4.926,-4.8509,-4.774,-4.7048,-4.6904,-4.6317,-4.5729,-4.5633,-4.5594,-4.5594,-4.5594,-4.5522,-4.5322,-4.4868,-4.4435,-4.4166,-4.402,-4.4005,-4.4005,-4.4005,-4.4005,-4.4005,-4.4005,-4.4005,-4.4005,-4.4005,-4.4005,-4.4005,-4.4005,-4.4005,-4.4005,-4.4005,-4.4005,-4.4005,-4.4005,-4.3902,-4.3467,-4.289,-4.2194,-4.1102,-4.0244,-3.9937,-3.9467,-3.8754,-3.8258,-3.7927,-3.6811,-3.6339,-3.6301,-3.6284,-3.6284,-3.6284,-3.6284,-3.6284,-3.6284,-3.6284,-3.6284,-3.6284,-3.6284,-3.6284,-3.6284,-3.6284,-3.6335,-3.6404,-3.649,-3.6611,-3.6956,-3.7228,-3.761,-3.8007,-3.8328,-3.8682,-3.8968,-3.8904,-3.8704,-3.8706,-4.5594,-4.5594,-4.5594,-4.5594,-4.5594,-4.5594,-4.5594,-4.5594,-4.5594,-4.5594,-4.5594,-4.5594,-4.5594,-4.5594,-4.5614,-4.5864,-4.674,-4.7375,-4.8375,-4.9048,-5.0192,-5.0596,-5.0683,-5.0683,-5.0683,-5.0683,-5.0683,-5.0683,-5.0683,-5.0683,-5.0683,-5.0683,-5.0683,-5.0683,-5.0683,-5.0683,-5.0693,-5.0673,-5.0442,-5.0154,-4.976,-4.9144,-4.8586,-4.7817,-4.699,-4.6086,-4.5864,-4.5594,-4.5594,-4.5594,-4.5594,-4.5312,-4.4843,-4.4484,-4.4225,-4.4067,-4.4005,-4.4005,-4.4005,-4.4005,-4.4005,-4.4005,-4.4005,-4.4005,-4.4005,-4.4005,-4.4005,-4.4005,-4.4005,-4.4005,-4.4005,-4.4005,-4.4005,-4.4005,-4.3952,-4.3291,-4.2585,-4.1488,-4.0336,-3.9832,-3.9525,-3.8933,-3.8184,-3.7672,-3.7325,-3.6905,-3.6485,-3.6301,-3.6284,-3.6284,-3.6284,-3.6284,-3.6284,-3.6284,-3.6284,-3.6284,-3.6284,-3.6284,-3.6284,-3.6284,-3.6318,-3.6628,-3.6904,-3.6922,-3.706,-3.7508,-3.806,-3.8663,-3.9043,-3.9244,-3.9536,-3.984,-3.9999,-3.9859,-3.9657,-4.5594,-4.5594,-4.5594,-4.5594,-4.5594,-4.5594,-4.5594,-4.5594,-4.5594,-4.5594,-4.5594,-4.5594,-4.5594,-4.5594,-4.5614,-4.6086,-4.6855,-4.7288,-4.8279,-4.926,-4.9798,-5.0327,-5.0519,-5.0606,-5.0683,-5.0683,-5.0683,-5.0683,-5.0683,-5.0683,-5.0683,-5.0683,-5.0683,-5.0683,-5.0683,-5.0683,-5.0683,-5.0683,-5.0683,-5.0683,-5.0529,-4.9606,-4.8759,-4.7913,-4.7048,-4.622,-4.5864,-4.5594,-4.5594,-4.5466,-4.5362,-4.514,-4.4739,-4.4402,-4.4166,-4.4033,-4.4005,-4.4005,-4.4005,-4.4005,-4.4005,-4.4005,-4.4005,-4.4005,-4.4005,-4.4005,-4.4005,-4.4005,-4.4005,-4.4005,-4.4005,-4.4005,-4.4005,-4.4005,-4.3791,-4.3335,-4.2402,-4.1343,-4.0047,-3.8899,-3.8664,-3.847,-3.7798,-3.7317,-3.6967,-3.6745,-3.636,-3.636,-3.6322,-3.6284,-3.6284,-3.6284,-3.6284,-3.6284,-3.6284,-3.6284,-3.6284,-3.6284,-3.6284,-3.6559,-3.6766,-3.7167,-3.7443,-3.7577,-3.7836,-3.8301,-3.887,-3.9353,-3.9859,-4.01,-4.0416,-4.0733,-4.0776,-4.068,-4.0328,-4.5594,-4.5594,-4.5594,-4.5594,-4.5594,-4.5594,-4.5594,-4.5594,-4.5594,-4.5594,-4.5594,-4.5594,-4.5594,-4.5594,-4.5633,-4.624,-4.6721,-4.7019,-4.8009,-4.8779,-4.9144,-4.9471,-4.9913,-5.0337,-5.0452,-5.0606,-5.0683,-5.0683,-5.0683,-5.0683,-5.0683,-5.0683,-5.0683,-5.0683,-5.0683,-5.0683,-5.0683,-5.0683,-5.0683,-5.0683,-5.0067,-4.9279,-4.8779,-4.7894,-4.6855,-4.597,-4.5825,-4.5652,-4.5652,-4.5448,-4.5222,-4.4996,-4.4726,-4.4416,-4.4181,-4.4051,-4.4005,-4.4005,-4.4005,-4.4005,-4.4005,-4.4005,-4.4005,-4.4005,-4.4005,-4.4005,-4.4005,-4.4005,-4.4005,-4.4005,-4.4005,-4.4005,-4.4005,-4.3939,-4.3654,-4.3262,-4.2239,-4.127,-3.9972,-3.8581,-3.8313,-3.8189,-3.7711,-3.7192,-3.6825,-3.6565,-3.6402,-3.6402,-3.6381,-3.6322,-3.6284,-3.6284,-3.6284,-3.6284,-3.6284,-3.6284,-3.6301,-3.6284,-3.6353,-3.6801,-3.7323,-3.7892,-3.8289,-3.841,-3.8698,-3.9181,-3.9422,-3.9784,-4.0308,-4.0722,-4.0791,-4.0894,-4.0871,-4.0776,-4.0607,-4.5594,-4.5594,-4.5594,-4.5594,-4.5594,-4.5594,-4.5594,-4.5594,-4.5594,-4.5594,-4.5594,-4.5594,-4.5594,-4.5594,-4.5594,-4.6067,-4.6788,-4.6923,-4.7432,-4.8221,-4.8682,-4.8682,-4.8952,-4.976,-5.0106,-5.0442,-5.0683,-5.0683,-5.0683,-5.0683,-5.0683,-5.0683,-5.0683,-5.0683,-5.0683,-5.0683,-5.0683,-5.0683,-5.0673,-5.0654,-5.0616,-5.0087,-4.9837,-4.9048,-4.8182,-4.7375,-4.6721,-4.596,-4.571,-4.5504,-4.5283,-4.503,-4.4751,-4.4465,-4.4236,-4.4051,-4.4005,-4.4005,-4.4005,-4.4005,-4.4005,-4.4005,-4.4005,-4.4005,-4.4005,-4.4005,-4.4005,-4.4005,-4.4005,-4.4005,-4.4005,-4.4005,-4.3989,-4.3844,-4.3634,-4.2958,-4.2119,-4.1486,-4.059,-3.9696,-3.9153,-3.8778,-3.8213,-3.7703,-3.7214,-3.6939,-3.6582,-3.6547,-3.6343,-3.6322,-3.6284,-3.6318,-3.6335,-3.6301,-3.6318,-3.6318,-3.6301,-3.6301,-3.6473,-3.7008,-3.7771,-3.875,-3.9112,-3.9221,-3.9612,-4.0112,-4.0319,-4.0215,-4.0498,-4.0825,-4.086,-4.0894,-4.0894,-4.0847,-4.0728]},{"header":{"parameterUnit":"m.s-1","parameterCategory":1,"la1":31.0,"la2":29.5877,"lo1":-88.7671,"lo2":-86.6584,"dy":0.0162,"dx":0.0185,"nx":115,"ny":88,"refTime":"2023-03-03T18:00:00:Z","depth":0,"parameterNumber":3,"parameterNumberName":"V-component_of_WINDS"},"data":[0.0,0.0,0.0,0.0,0.0,0.0,0.0,0.0,0.0,0.0,0.0,0.0,0.0,0.0,0.0,0.0,0.0,0.0,0.0,0.0,0.0,0.0,0.0,0.0,0.0,0.0,0.0,0.0,0.0,0.0,0.0,0.0,0.0,0.0,0.0,0.0,0.0,0.0,0.0,0.0,0.0,0.0,0.0,0.0,0.0,0.0,0.0,0.0,0.0,0.0,0.0,0.0,0.0,0.0,0.0,0.0,0.0,0.0,0.0,0.0,0.0,0.0,0.0,0.0,0.0,0.0,0.0,0.0,0.0,0.0,0.0,0.0,0.0,0.0,0.0,0.0,0.0,0.0,0.0,0.0,0.0,0.0,0.0,0.0,0.0,0.0,0.0,0.0,0.0,0.0,0.0,0.0,0.0,0.0,0.0,0.0,0.0,0.0,0.0,0.0,0.0,0.0,0.0,0.0,0.0,0.0,0.0,0.0,0.0,0.0,0.0,0.0,0.0,0.0,0.0,0.0,0.0,0.0,0.0,0.0,0.0,0.0,0.0,0.0,0.0,0.0,0.0,0.0,0.0,0.0,0.0,0.0,0.0,0.0,0.0,0.0,0.0,0.0,0.0,0.0,0.0,0.0,0.0,0.0,0.0,0.0,0.0,0.0,0.0,0.0,0.0,0.0,0.0,0.0,0.0,0.0,0.0,0.0,0.0,0.0,0.0,0.0,0.0,0.0,0.0,0.0,0.0,0.0,0.0,0.0,0.0,0.0,0.0,0.0,0.0,0.0,0.0,0.0,0.0,0.0,0.0,0.0,0.0,0.0,0.0,0.0,0.0,0.0,0.0,0.0,0.0,0.0,0.0,0.0,0.0,0.0,0.0,0.0,0.0,0.0,0.0,0.0,0.0,0.0,0.0,0.0,0.0,0.0,0.0,0.0,0.0,0.0,0.0,0.0,0.0,0.0,0.0,0.0,0.0,0.0,0.0,0.0,0.0,0.0,0.0,0.0,0.0,0.0,0.0,0.0,0.0,0.0,0.0,0.0,0.0,0.0,0.0,0.0,0.0,0.0,0.0,0.0,0.0,0.0,0.0,0.0,0.0,0.0,0.0,0.0,0.0,0.0,0.0,0.0,0.0,0.0,0.0,0.0,0.0,0.0,0.0,0.0,0.0,0.0,0.0,0.0,0.0,0.0,0.0,0.0,0.0,0.0,0.0,0.0,0.0,0.0,0.0,0.0,0.0,0.0,0.0,0.0,0.0,0.0,0.0,0.0,0.0,0.0,0.0,0.0,0.0,0.0,0.0,0.0,0.0,0.0,0.0,0.0,0.0,0.0,0.0,0.0,0.0,0.0,0.0,0.0,0.0,0.0,0.0,0.0,0.0,0.0,0.0,0.0,0.0,0.0,0.0,0.0,0.0,0.0,0.0,0.0,0.0,0.0,0.0,0.0,0.0,0.0,0.0,0.0,0.0,0.0,0.0,0.0,0.0,0.0,0.0,0.0,0.0,0.0,0.0,0.0,0.0,0.0,0.0,0.0,0.0,0.0,0.0,0.0,0.0,0.0,0.0,0.0,0.0,0.0,0.0,0.0,0.0,0.0,0.0,0.0,0.0,0.0,0.0,0.0,0.0,0.0,0.0,0.0,0.0,0.0,0.0,0.0,0.0,0.0,0.0,0.0,0.0,0.0,0.0,0.0,0.0,0.0,0.0,0.0,0.0,0.0,0.0,0.0,0.0,0.0,0.0,0.0,0.0,0.0,0.0,0.0,0.0,0.0,0.0,0.0,0.0,0.0,0.0,0.0,0.0,0.0,0.0,0.0,0.0,0.0,0.0,0.0,0.0,0.0,0.0,0.0,0.0,0.0,0.0,0.0,0.0,0.0,0.0,0.0,0.0,0.0,0.0,0.0,0.0,0.0,0.0,0.0,0.0,0.0,0.0,0.0,0.0,0.0,0.0,0.0,0.0,0.0,0.0,0.0,0.0,0.0,0.0,0.0,0.0,0.0,0.0,0.0,0.0,0.0,0.0,0.0,0.0,0.0,0.0,0.0,0.0,0.0,0.0,0.0,0.0,0.0,0.0,0.0,0.0,0.0,0.0,0.0,0.0,0.0,0.0,0.0,0.0,0.0,0.0,0.0,0.0,0.0,0.0,0.0,0.0,0.0,0.0,0.0,0.0,0.0,0.0,0.0,0.0,0.0,0.0,0.0,0.0,0.0,0.0,0.0,0.0,0.0,0.0,0.0,0.0,0.0,0.0,0.0,0.0,0.0,0.0,0.0,0.0,0.0,0.0,0.0,0.0,0.0,0.0,0.0,0.0,0.0,0.0,0.0,0.0,0.0,0.0,0.0,0.0,0.0,0.0,0.0,0.0,0.0,0.0,0.0,0.0,0.0,0.0,0.0,0.0,0.0,0.0,0.0,0.0,0.0,0.0,0.0,0.0,0.0,0.0,0.0,0.0,0.0,0.0,0.0,0.0,0.0,0.0,0.0,0.0,0.0,0.0,0.0,0.0,0.0,0.0,0.0,0.0,0.0,0.0,0.0,0.0,0.0,0.0,0.0,0.0,0.0,0.0,0.0,0.0,0.0,0.0,0.0,0.0,0.0,0.0,0.0,0.0,0.0,0.0,0.0,0.0,0.0,0.0,0.0,0.0,0.0,0.0,0.0,0.0,0.0,0.0,0.0,0.0,0.0,0.0,0.0,0.0,0.0,0.0,0.0,0.0,0.0,0.0,0.0,0.0,0.0,0.0,0.0,0.0,0.0,0.0,0.0,0.0,0.0,0.0,0.0,0.0,0.0,0.0,0.0,0.0,0.0,0.0,0.0,0.0,0.0,0.0,0.0,0.0,0.0,0.0,0.0,0.0,0.0,0.0,0.0,0.0,0.0,0.0,0.0,0.0,0.0,0.0,0.0,0.0,0.0,0.0,0.0,0.0,0.0,0.0,0.0,0.0,0.0,0.0,0.0,0.0,0.0,0.0,0.0,0.0,0.0,0.0,0.0,0.0,0.0,0.0,0.0,0.0,0.0,0.0,0.0,0.0,0.0,0.0,0.0,0.0,0.0,0.0,0.0,0.0,0.0,0.0,0.0,0.0,0.0,0.0,0.0,0.0,0.0,0.0,0.0,0.0,0.0,0.0,0.0,0.0,0.0,0.0,0.0,0.0,0.0,0.0,0.0,0.0,0.0,0.0,0.0,0.0,0.0,0.0,0.0,0.0,0.0,0.0,0.0,0.0,0.0,0.0,0.0,0.0,0.0,0.0,0.0,0.0,0.0,0.0,0.0,0.0,0.0,0.0,0.0,0.0,0.0,0.0,0.0,0.0,0.0,0.0,0.0,0.0,0.0,0.0,0.0,0.0,0.0,0.0,0.0,0.0,0.0,0.0,0.0,0.0,0.0,0.0,0.0,0.0,0.0,0.0,0.0,0.0,0.0,0.0,0.0,0.0,0.0,0.0,0.0,0.0,0.0,0.0,0.0,0.0,0.0,0.0,0.0,0.0,0.0,0.0,0.0,0.0,0.0,0.0,0.0,0.0,0.0,0.0,0.0,0.0,0.0,0.0,0.0,0.0,0.0,0.0,0.0,0.0,0.0,0.0,0.0,0.0,0.0,0.0,0.0,0.0,0.0,0.0,0.0,0.0,0.0,0.0,0.0,0.0,0.0,0.0,0.0,0.0,0.0,0.0,0.0,0.0,0.0,0.0,0.0,0.0,0.0,0.0,0.0,0.0,0.0,0.0,0.0,0.0,0.0,0.0,0.0,0.0,0.0,0.0,0.0,0.0,0.0,0.0,0.0,0.0,0.0,0.0,0.0,0.0,0.0,0.0,0.0,0.0,0.0,0.0,0.0,0.0,0.0,0.0,0.0,0.0,0.0,0.0,0.0,0.0,0.0,0.0,0.0,0.0,0.0,0.0,0.0,0.0,0.0,0.0,0.0,0.0,0.0,0.0,0.0,0.0,0.0,0.0,0.0,0.0,0.0,0.0,0.0,0.0,0.0,0.0,0.0,0.0,0.0,0.0,0.0,0.0,0.0,0.0,0.0,0.0,0.0,0.0,0.0,0.0,0.0,0.0,0.0,0.0,0.0,0.0,0.0,0.0,0.0,0.0,0.0,0.0,0.0,0.0,0.0,0.0,0.0,0.0,0.0,0.0,0.0,0.0,0.0,0.0,0.0,0.0,0.0,0.0,0.0,0.0,0.0,0.0,0.0,0.0,0.0,0.0,0.0,0.0,0.0,0.0,0.0,0.0,0.0,0.0,0.0,0.0,0.0,-0.1618,0.0,0.0,0.0,0.0,0.0,0.0,0.0,0.0,0.0,0.0,0.0,0.0,0.0,0.0,0.0,0.0,0.0,0.0,0.0,0.0,0.0,0.0,0.0,0.0,0.0,0.0,0.0,0.0,0.0,0.0,0.0,0.0,0.0,0.0,0.0,0.0,0.0,0.0,0.0,0.0,0.0,0.0,0.0,0.0,0.0,0.0,0.0,0.0,0.0,0.0,0.0,0.0,0.0,0.0,0.0,0.0,0.0,0.0,0.0,0.0,0.0,0.0,0.0,0.0,0.0,0.0,0.0,0.0,0.0,0.0,0.0,0.0,0.0,0.0,0.0,0.0,0.0,0.0,0.0,0.0,0.0,0.0,0.0,0.0,0.0,0.0,0.0,0.0,0.0,0.0,0.0,0.0,0.0,0.0,0.0,0.0,0.0,0.0,0.0,0.0,0.0,0.0,0.0,0.0,0.0,0.0,0.0,0.0,0.0,0.0,-0.1648,-0.1618,-0.1698,-0.1648,-0.1619,0.0,0.0,0.0,0.0,0.0,0.0,0.0,0.0,0.0,0.0,0.0,0.0,0.0,0.0,0.0,0.0,0.0,0.0,0.0,0.0,0.0,0.0,0.0,0.0,0.0,0.0,0.0,0.0,0.0,0.0,0.0,0.0,0.0,0.0,0.0,0.0,0.0,0.0,0.0,0.0,0.0,0.0,0.0,0.0,0.0,0.0,0.0,0.0,0.0,0.0,0.0,0.0,0.0,0.0,0.0,0.0,0.0,0.0,0.0,0.0,0.0,0.0,0.0,0.0,0.0,0.0,0.0,0.0,0.0,0.0,0.0,0.0,0.0,0.0,0.0,0.0,0.0,0.0,0.0,0.0,0.0,0.0,0.0,0.0,0.0,0.0,0.0,0.0,0.0,0.0,0.0,0.0,0.0,0.0,0.0,0.0,0.0,0.0,0.0,0.0,0.0,0.0,0.0,0.0,0.0,0.0,0.0,0.0,0.0,0.0,0.0,0.0,-0.1701,-0.1703,-0.1628,0.0,0.0,0.0,0.0,0.0,0.0,0.0,0.0,0.0,0.0,0.0,0.0,0.0,0.0,0.0,0.0,0.0,0.0,0.0,0.0,0.0,0.0,0.0,0.0,0.0,0.0,0.0,0.0,0.0,0.0,0.0,0.0,0.0,0.0,0.0,0.0,0.0,0.0,0.0,0.0,0.0,0.0,0.0,0.0,0.0,0.0,0.0,0.0,0.0,0.0,0.0,0.0,0.0,0.0,0.0,0.0,0.0,0.0,0.0,0.0,0.0,0.0,0.0,0.0,0.0,0.0,0.0,0.0,0.0,0.0,0.0,0.0,0.0,0.0,0.0,0.0,0.0,0.0,0.0,0.0,0.0,0.0,0.0,0.0,0.0,0.0,0.0,0.0,0.0,0.0,0.0,0.0,0.0,0.0,0.0,0.0,0.0,0.0,0.0,0.0,0.0,0.0,0.0,0.0,0.0,0.0,0.0,0.0,0.0,0.0,-0.1633,-0.171,-0.1713,0.0,-0.1709,0.0,0.0,0.0,0.0,0.0,0.0,0.0,0.0,0.0,0.0,0.0,0.0,0.0,0.0,0.0,0.0,0.0,0.0,0.0,0.0,0.0,0.0,0.0,0.0,0.0,0.0,0.0,0.0,0.0,0.0,0.0,0.0,0.0,0.0,0.0,0.0,0.0,0.0,0.0,0.0,0.0,0.0,0.0,0.0,0.0,0.0,0.0,0.0,0.0,0.0,0.0,0.0,0.0,0.0,0.0,0.0,0.0,0.0,0.0,0.0,0.0,0.0,0.0,0.0,0.0,0.0,0.0,0.0,0.0,0.0,0.0,0.0,0.0,0.0,0.0,0.0,0.0,0.0,0.0,0.0,0.0,0.0,0.0,0.0,0.0,0.0,0.0,0.0,0.0,0.0,0.0,0.0,0.0,0.0,0.0,0.0,0.0,0.0,0.0,0.0,0.0,0.0,0.0,0.0,0.0,0.0,0.0,0.0,0.0,0.0,-0.1632,-0.1714,-0.1714,-0.1654,0.0,0.0,0.0,0.0,0.0,0.0,0.0,0.0,0.0,0.0,0.0,0.0,0.0,0.0,0.0,0.0,0.0,0.0,0.0,0.0,0.0,0.0,0.0,0.0,0.0,0.0,0.0,0.0,0.0,0.0,0.0,0.0,0.0,0.0,0.0,0.0,0.0,0.0,0.0,0.0,0.0,0.0,0.0,0.0,0.0,0.0,0.0,0.0,0.0,0.0,0.0,0.0,0.0,0.0,0.0,0.0,0.0,0.0,0.0,0.0,0.0,0.0,0.0,0.0,0.0,0.0,0.0,0.0,0.0,0.0,0.0,0.0,0.0,0.0,0.0,0.0,0.0,0.0,0.0,0.0,0.0,0.0,0.0,0.0,0.0,0.0,0.0,0.0,0.0,0.0,0.0,0.0,0.0,0.0,0.0,0.0,0.0,0.0,0.0,0.0,0.0,0.0,0.0,0.0,0.0,0.0,0.0,0.0,0.0,0.0,-0.1633,-0.1643,-0.1724,-0.1658,-0.1643,-0.163,0.0,0.0,0.0,0.0,0.0,0.0,0.0,0.0,0.0,0.0,0.0,0.0,0.0,0.0,0.0,0.0,0.0,0.0,0.0,0.0,0.0,0.0,0.0,0.0,0.0,0.0,0.0,0.0,0.0,0.0,0.0,0.0,0.0,0.0,0.0,0.0,0.0,0.0,0.0,0.0,0.0,0.0,0.0,0.0,0.0,0.0,0.0,0.0,0.0,0.0,0.0,0.0,0.0,0.0,0.0,0.0,0.0,0.0,0.0,0.0,0.0,0.0,0.0,0.0,0.0,0.0,0.0,0.0,0.0,0.0,0.0,0.0,0.0,0.0,0.0,0.0,0.0,0.0,0.0,0.0,0.0,0.0,0.0,0.0,0.0,0.0,0.0,0.0,0.0,0.0,0.0,0.0,0.0,0.0,0.0,0.0,0.0,0.0,0.0,0.0,0.0,0.0,0.0,0.0,0.0,0.0,0.0,0.0,-0.1695,-0.1673,-0.1673,-0.1699,-0.1648,-0.1632,0.0,0.0,0.0,0.0,0.0,0.0,0.0,0.0,0.0,0.0,0.0,0.0,0.0,0.0,0.0,0.0,0.0,0.0,0.0,0.0,0.0,0.0,0.0,0.0,0.0,0.0,0.0,0.0,0.0,0.0,0.0,0.0,0.0,0.0,0.0,0.0,0.0,0.0,0.0,0.0,0.0,0.0,0.0,0.0,0.0,0.0,0.0,0.0,0.0,0.0,0.0,0.0,0.0,0.0,0.0,0.0,0.0,0.0,0.0,0.0,0.0,0.0,0.0,0.0,0.0,0.0,0.0,0.0,0.0,0.0,0.0,0.0,0.0,0.0,0.0,0.0,0.0,0.0,0.0,0.0,0.0,0.0,0.0,0.0,0.0,0.0,0.0,0.0,0.0,0.0,0.0,0.0,0.0,0.0,0.0,0.0,0.0,0.0,0.0,0.0,0.0,0.0,0.0,0.0,0.0,0.0,0.0,0.0,0.0,-0.1647,-0.1657,-0.1719,-0.1728,-0.1657,-0.1703,0.0,0.0,0.0,0.0,0.0,0.0,0.0,0.0,0.0,0.0,0.0,0.0,0.0,0.0,0.0,0.0,0.0,0.0,0.0,0.0,0.0,0.0,0.0,0.0,0.0,0.0,0.0,0.0,0.0,0.0,0.0,0.0,0.0,0.0,0.0,0.0,0.0,0.0,0.0,0.0,0.0,0.0,0.0,0.0,0.0,0.0,0.0,0.0,0.0,0.0,0.0,0.0,0.0,0.0,0.0,0.0,0.0,0.0,0.0,0.0,0.0,0.0,0.0,0.0,0.0,0.0,0.0,0.0,0.0,0.0,0.0,0.0,0.0,0.0,0.0,0.0,0.0,0.0,0.0,0.0,0.0,0.0,0.0,0.0,0.0,0.0,0.0,0.0,0.0,0.0,0.0,0.0,0.0,0.0,0.0,0.0,0.0,0.0,0.0,0.0,0.0,0.0,0.0,0.0,0.0,0.0,0.0,0.0,0.0,-0.1492,0.0,-0.1686,-0.1571,-0.1667,-0.1658,0.0,0.0,0.0,0.0,0.0,0.0,0.0,0.0,0.0,0.0,0.0,0.0,0.0,0.0,0.0,0.0,0.0,0.0,0.0,0.0,0.0,0.0,0.0,0.0,0.0,0.0,0.0,0.0,0.0,0.0,0.0,0.0,0.0,0.0,0.0,0.0,0.0,0.0,0.0,0.0,0.0,0.0,0.0,0.0,0.0,0.0,0.0,0.0,0.0,0.0,0.0,0.0,0.0,0.0,0.0,0.0,0.0,0.0,0.0,0.0,0.0,0.0,0.0,0.0,0.0,0.0,0.0,0.0,0.0,0.0,0.0,0.0,0.0,0.0,0.0,0.0,0.0,0.0,0.0,0.0,0.0,0.0,0.0,0.0,0.0,0.0,0.0,0.0,0.0,0.0,0.0,0.0,0.0,0.0,0.0,0.0,0.0,0.0,0.0,0.0,0.0,0.0,0.0,0.0,0.0,0.0,0.0,0.0,-0.1491,-0.133,-0.1623,-0.1621,-0.1334,-0.1573,-0.1649,0.0,0.0,0.0,0.0,0.0,0.0,0.0,0.0,0.0,0.0,0.0,0.0,0.0,0.0,0.0,0.0,0.0,0.0,0.0,0.0,0.0,0.0,0.0,0.0,0.0,0.0,0.0,0.0,0.0,0.0,0.0,0.0,0.0,0.0,0.0,0.0,0.0,0.0,0.0,0.0,0.0,0.0,0.0,0.0,0.0,0.0,0.0,0.0,0.0,0.0,0.0,0.0,0.0,0.0,0.0,0.0,0.0,0.0,0.0,0.0,0.0,0.0,0.0,0.0,0.0,0.0,0.0,0.0,0.0,0.0,0.0,0.0,0.0,0.0,0.0,0.0,0.0,0.0,0.0,0.0,0.0,0.0,0.0,0.0,0.0,0.0,0.0,0.0,0.0,0.0,0.0,0.0,0.0,0.0,0.0,0.0,0.0,0.0,0.0,0.0,0.0,0.0,0.0,0.0,0.0,0.0,0.0,0.0,0.0,-0.1491,-0.1255,-0.127,-0.1544,-0.1415,-0.1459,0.0,0.0,0.0,0.0,0.0,0.0,0.0,0.0,0.0,0.0,0.0,0.0,0.0,0.0,0.0,0.0,0.0,0.0,0.0,0.0,0.0,0.0,0.0,0.0,0.0,0.0,0.0,0.0,0.0,0.0,0.0,0.0,0.0,0.0,0.0,0.0,0.0,0.0,0.0,0.0,0.0,0.0,0.0,0.0,0.0,0.0,0.0,0.0,0.0,0.0,0.0,0.0,0.0,0.0,0.0,0.0,0.0,0.0,0.0,0.0,0.0,0.0,0.0,0.0,0.0,0.0,0.0,0.0,0.0,0.0,0.0,0.0,0.0,0.0,0.0,0.0,0.0,0.0,0.0,0.0,0.0,0.0,0.0,0.0,0.0,0.0,0.0,0.0,0.0,0.0,0.0,0.0,0.0,0.0,0.0,0.0,0.0,0.0,0.0,0.0,0.0,0.0,0.0,0.0,0.0,0.0,0.0,0.0,0.0,-0.0051,-0.0575,-0.1005,-0.1371,-0.1261,-0.1362,-0.1671,0.0,0.0,0.0,0.0,0.0,0.0,0.0,0.0,0.0,0.0,0.0,0.0,0.0,0.0,0.0,0.0,0.0,0.0,0.0,0.0,0.0,0.0,0.0,0.0,0.0,0.0,0.0,0.0,0.0,0.0,0.0,0.0,0.0,0.0,0.0,0.0,0.0,0.0,0.0,0.0,0.0,0.0,0.0,0.0,0.0,0.0,0.0,0.0,0.0,0.0,0.0,0.0,0.0,0.0,0.0,0.0,0.0,0.0,0.0,0.0,0.0,0.0,0.0,0.0,0.0,0.0,0.0,0.0,0.0,0.0,0.0,0.0,0.0,0.0,0.0,0.0,0.0,0.0,0.0,0.0,0.0,0.0,0.0,0.0,0.0,0.0,0.0,0.0,0.0,0.0,0.0,0.0,0.0,0.0,0.0,0.0,0.0,0.0,0.0,0.0,0.0,0.0,0.0,0.0,0.0,0.0,0.0,0.0,0.2635,0.0482,-0.0645,-0.0678,-0.0952,-0.1312,0.0,0.0,0.0,0.0,0.0,0.0,0.0,0.0,0.0,0.0,0.0,0.0,0.0,0.0,0.0,0.0,0.0,0.0,0.0,0.0,0.0,0.0,0.0,0.0,0.0,0.0,0.0,0.0,0.0,0.0,0.0,0.0,0.0,0.0,0.0,0.0,0.0,0.0,0.0,0.0,0.0,0.0,0.0,0.0,0.0,0.0,0.0,0.0,0.0,0.0,0.0,0.0,0.0,0.0,0.0,0.0,0.0,0.0,0.0,0.0,0.0,0.0,0.0,0.0,0.0,0.0,0.0,0.0,0.0,0.0,0.0,0.0,0.0,0.0,0.0,0.0,0.0,0.0,0.0,0.0,0.0,0.0,0.0,0.0,0.0,0.0,0.0,0.0,0.0,0.0,0.0,0.0,0.0,0.0,0.0,0.0,0.0,0.0,0.0,0.0,0.0,0.0,0.0,0.0,0.0,0.0,0.0,0.0,0.0,0.2894,0.2484,0.1715,0.0538,0.0427,-0.0159,0.0,0.0,0.0,0.0,0.0,0.0,0.0,0.0,0.0,0.0,0.0,0.0,0.0,0.0,0.0,0.0,0.0,0.0,0.0,0.0,0.0,0.0,0.0,0.0,0.0,0.0,0.0,0.0,0.0,0.0,0.0,0.0,0.0,0.0,0.0,0.0,0.0,0.0,0.0,0.0,0.0,0.0,0.0,0.0,0.0,0.0,0.0,0.0,0.0,0.0,0.0,0.0,0.0,0.0,0.0,0.0,0.0,0.0,0.0,0.0,0.0,0.0,0.0,0.0,0.0,0.0,0.0,0.0,0.0,0.0,0.0,0.0,0.0,0.0,0.0,0.0,0.0,0.0,0.0,0.0,0.0,0.0,0.0,0.0,0.0,0.0,0.0,0.0,0.0,0.0,0.0,0.0,0.0,0.0,0.0,0.0,0.0,0.0,0.0,0.0,0.0,0.0,0.0,0.0,0.0,0.0,0.0,0.0,0.4466,0.4598,0.4752,0.4189,0.2808,0.1572,0.0534,0.0,0.0,0.0,0.0,0.0,0.0,0.0,0.0,0.0,0.0,0.0,0.0,0.0,0.0,0.0,0.0,0.0,0.0,0.0,0.0,0.0,0.0,0.0,0.0,0.0,0.0,0.0,0.0,0.0,0.0,0.0,0.0,0.0,0.0,0.0,0.0,0.0,0.0,0.0,0.0,0.0,0.0,0.0,0.0,0.0,0.0,0.0,0.0,0.0,0.0,0.0,0.0,0.0,0.0,0.0,0.0,0.0,0.0,0.0,0.0,0.0,0.0,0.0,0.0,0.0,0.0,0.0,0.0,0.0,0.0,0.0,0.0,0.0,0.0,0.0,0.0,0.0,0.0,0.0,0.0,0.0,0.0,0.0,0.0,0.0,0.0,0.0,0.0,0.0,0.0,0.0,0.0,0.0,0.0,0.0,0.0,0.0,0.0,0.0,0.0,0.0,0.0,0.0,0.0,0.0,0.0,0.0,0.0,0.6657,0.6779,0.6796,0.6419,0.5499,0.274,0.1018,0.0,0.0,0.0,0.0,0.0,0.0,0.0,0.0,0.0,0.0,0.0,0.0,0.0,0.0,0.0,0.0,0.0,0.0,0.0,0.0,0.0,0.0,0.0,0.0,0.0,0.0,0.0,0.0,0.0,0.0,0.0,0.0,0.0,0.0,0.0,0.0,0.0,0.0,0.0,0.0,0.0,0.0,0.0,0.0,0.0,0.0,0.0,0.0,0.0,0.0,0.0,0.0,0.0,0.0,0.0,0.0,0.0,0.0,0.0,0.0,0.0,0.0,0.0,0.0,0.0,0.0,0.0,0.0,0.0,0.0,0.0,0.0,0.0,0.0,0.0,0.0,0.0,0.0,0.0,0.0,0.0,0.0,0.0,0.0,0.0,0.0,0.0,0.0,0.0,0.0,0.0,0.0,0.0,0.0,0.0,0.0,0.0,0.0,0.0,0.0,0.0,0.0,0.0,0.0,0.0,0.0,0.0,0.0,0.6484,0.6657,0.6752,0.6719,0.6501,0.4443,0.2555,0.0,0.0,0.0,0.0,0.0,0.0,0.0,0.0,0.0,0.0,0.0,0.0,0.0,0.0,0.0,0.0,0.0,0.0,0.0,0.0,0.0,0.0,0.0,0.0,0.0,0.0,0.0,0.0,0.0,0.0,0.0,0.0,0.0,0.0,0.0,0.0,0.0,0.0,0.0,0.0,0.0,0.0,0.0,0.0,0.0,0.0,0.0,0.0,0.657,0.0,0.0,0.0,0.0,0.0,0.0,0.0,0.0,0.0,0.0,0.0,0.0,0.0,0.0,0.0,0.0,0.0,0.0,0.0,0.0,0.0,0.0,0.0,0.0,0.0,0.0,0.0,0.0,0.0,0.0,0.0,0.0,0.0,0.0,0.0,0.0,0.0,0.0,0.0,0.0,0.0,0.0,0.0,0.0,0.0,0.0,0.0,0.0,0.0,0.0,0.0,0.0,0.0,0.0,0.0,0.0,0.0,0.0,0.0,0.6497,0.6565,0.6684,0.6771,0.6824,0.556,0.388,0.0,0.0,0.0,0.0,0.0,0.0,0.0,0.0,0.0,0.0,0.0,0.0,0.0,0.0,0.0,0.0,0.0,0.0,0.0,0.0,0.0,0.0,0.0,0.0,0.0,0.0,0.0,0.0,0.0,0.0,0.0,0.0,0.0,0.0,0.0,0.0,0.0,0.0,0.0,0.0,0.0,0.0,0.0,0.0,0.0,0.0,0.0,0.0,0.0,0.0,0.0,0.0,0.0,0.0,0.0,0.0,0.0,0.0,0.0,0.0,0.0,0.0,0.0,0.0,0.0,0.0,0.0,0.0,0.0,0.0,0.0,0.0,0.0,0.0,0.0,0.0,0.0,0.0,0.0,0.0,0.0,0.0,0.0,0.0,0.0,0.0,0.0,0.0,0.0,0.0,0.0,0.0,0.0,0.0,0.0,0.0,0.0,0.0,0.0,0.0,0.0,0.0,0.0,0.0,0.0,0.0,0.0,0.6387,0.6435,0.6589,0.6611,0.6709,0.6893,0.6247,0.4905,0.2829,0.0,0.0,0.0,0.0,0.0,0.0,0.0,0.0,0.0,0.0,0.0,0.0,0.0,0.0,0.0,0.0,0.0,0.0,0.0,0.0,0.0,0.0,0.0,0.0,0.0,0.0,0.0,0.0,0.0,0.0,0.0,0.0,0.0,0.0,0.0,0.0,0.0,0.0,0.8039,0.8813,0.0,0.0,0.0,0.0,0.0,0.0,0.0,0.0,0.8452,0.0,0.0,0.0,0.0,0.0,0.0,0.0,0.0,0.0,0.0,0.0,0.0,0.0,0.0,0.0,0.0,0.0,0.0,0.0,0.0,0.0,0.0,0.0,0.0,0.0,0.0,0.0,0.0,0.0,0.0,0.0,0.0,0.0,0.0,0.0,0.0,0.0,0.0,0.0,0.0,0.0,0.0,0.0,0.0,0.0,0.0,0.0,0.0,0.0,0.0,0.0,0.0,0.0,0.0,0.0,0.0,0.6387,0.6387,0.6395,0.6416,0.6514,0.6538,0.6481,0.6484,0.5491,0.3539,0.0,0.0,0.0,0.0,0.0,0.0,0.0,0.0,0.0,0.0,0.0,0.0,0.0,0.0,0.0,0.0,0.0,0.0,0.0,0.0,0.0,0.0,0.0,0.0,0.0,0.0,0.0,0.0,0.0,0.0,0.0,0.0,0.0,0.0,0.0,0.0,0.0,0.0,0.0,1.0246,1.0375,0.0,0.0,0.0,0.0,0.0,0.0,0.0,0.0,0.8715,0.0,0.0,0.0,0.0,0.0,0.0,0.0,0.0,0.0,0.0,0.0,0.0,0.0,0.0,0.0,0.0,0.0,0.0,0.0,0.0,0.0,0.0,0.0,0.0,0.0,0.0,0.0,0.0,0.0,0.0,0.0,0.0,0.0,0.0,0.0,0.0,0.0,0.0,0.0,0.0,0.0,0.0,0.0,0.0,0.0,0.0,0.0,0.0,0.0,0.0,0.0,0.0,0.0,0.0,0.0,0.6387,0.6387,0.6387,0.6389,0.6443,0.6476,0.6529,0.6526,0.5966,0.0,0.0,0.0,0.0,0.0,0.0,0.0,0.0,0.0,0.0,0.0,0.0,0.0,0.0,0.0,0.0,0.0,0.0,0.0,0.0,0.0,0.0,0.0,0.0,0.0,0.0,0.0,0.0,0.0,0.0,0.0,0.0,0.0,0.0,0.0,0.0,0.0,0.0,0.0,0.0,1.1191,1.1288,1.1392,0.0,0.0,0.0,0.0,0.0,0.0,0.9969,0.976,0.0,0.0,0.0,0.0,0.0,0.0,0.0,0.0,0.0,0.0,0.0,0.0,0.0,0.0,0.0,0.0,0.0,0.0,0.0,0.0,0.0,0.0,0.0,0.0,0.0,0.0,0.0,0.0,0.0,0.0,0.0,0.0,0.0,0.0,0.0,0.0,0.0,0.0,0.0,0.0,0.0,0.0,0.0,0.0,0.0,0.0,0.0,0.0,0.0,0.0,0.0,0.0,0.0,0.0,0.0,0.6387,0.6387,0.6387,0.6387,0.6387,0.6433,0.6527,0.6435,0.6178,0.0,0.0,0.0,0.0,0.0,0.0,0.0,0.0,0.0,0.0,0.0,0.0,0.0,0.0,0.0,0.0,0.0,0.0,0.0,0.0,0.0,0.0,0.0,0.0,0.0,0.0,0.0,0.0,0.0,0.0,0.0,0.0,0.0,0.0,0.0,0.0,0.0,0.0,0.0,0.0,0.0,1.1878,1.2001,1.1874,0.0,0.0,0.0,0.0,1.1572,1.1009,0.0,0.0,0.0,0.0,0.0,0.0,0.0,0.0,0.0,0.0,0.0,0.0,0.0,0.0,0.0,0.0,0.0,0.0,0.0,0.0,0.0,0.0,0.0,0.0,0.0,0.0,0.0,0.0,0.0,0.0,0.0,0.0,0.0,0.0,0.0,0.0,0.0,0.0,0.0,0.0,0.0,0.0,0.0,0.0,0.0,0.0,0.0,0.0,0.0,0.0,0.0,0.0,0.0,0.0,0.0,0.0,0.6387,0.6387,0.6387,0.6387,0.6387,0.6392,0.6408,0.6395,0.6192,0.0,0.0,0.0,0.0,0.0,0.0,0.0,0.0,0.0,0.0,0.0,0.0,0.0,0.0,0.0,0.0,0.0,0.0,0.0,0.0,0.0,0.0,0.0,0.0,0.0,0.0,0.0,0.0,0.0,0.0,0.0,0.0,0.0,0.0,0.0,0.0,0.0,0.0,0.0,0.0,0.0,1.1987,1.1879,1.1836,1.1742,0.0,0.0,1.1581,1.1751,1.1676,0.0,0.0,0.0,0.0,0.0,0.0,0.0,0.0,0.0,0.0,0.0,0.0,0.0,0.0,0.0,0.0,0.0,0.0,0.0,0.0,0.0,0.0,0.0,0.0,0.0,0.0,0.0,0.0,0.0,0.0,0.0,0.0,0.0,0.0,0.0,0.0,0.0,0.0,0.0,0.0,0.0,0.0,0.0,0.0,0.0,0.0,0.0,0.0,0.0,0.0,0.0,0.0,0.0,0.0,0.0,0.6387,0.6387,0.6387,0.6387,0.6387,0.6387,0.6387,0.6387,0.6387,0.6284,0.0,0.0,0.0,0.0,0.0,0.0,0.0,0.0,0.0,0.0,0.0,0.0,0.0,0.0,0.0,0.0,0.0,0.0,0.0,0.0,0.0,0.0,0.0,0.0,0.0,0.0,0.0,0.0,0.0,0.0,0.0,0.0,0.0,0.0,0.0,0.0,0.0,0.0,0.0,0.0,0.0,0.0,1.1944,1.1898,0.0,0.0,0.0,1.1667,1.1803,0.0,0.0,0.0,0.0,0.0,0.0,0.0,0.0,0.0,0.0,0.0,0.0,0.0,0.0,0.0,0.0,0.0,0.0,0.0,0.0,0.0,0.0,0.0,0.0,0.0,0.0,0.0,0.0,0.0,0.0,0.0,0.0,0.0,0.0,0.0,0.0,0.0,0.0,0.0,0.0,0.0,0.0,0.0,0.0,0.0,0.0,0.0,0.0,0.0,0.0,0.0,0.0,0.0,0.0,0.0,0.0,0.0,0.6387,0.6387,0.6387,0.6387,0.6387,0.6387,0.6387,0.6387,0.0,0.0,0.0,0.0,0.0,0.0,0.0,0.0,0.0,0.0,0.0,0.0,0.0,0.0,0.0,0.0,0.0,0.0,0.0,0.0,0.0,0.0,0.0,0.0,0.0,0.0,0.0,1.0314,0.0,0.0,0.0,0.0,0.0,0.0,0.0,0.0,0.0,0.0,0.0,0.0,0.0,0.0,1.2486,1.296,1.2941,1.291,0.0,0.0,1.2848,1.2957,1.3681,1.3872,0.0,0.0,0.0,0.0,0.0,0.0,0.0,0.0,0.0,0.0,0.0,0.0,0.0,0.0,0.0,0.0,0.0,0.0,0.0,0.0,0.0,0.0,0.0,0.0,0.0,0.0,0.0,0.0,0.0,0.0,0.0,0.0,0.0,0.0,0.0,0.0,0.0,0.0,0.0,0.0,0.0,0.0,0.0,0.0,0.0,0.0,0.0,0.0,0.0,0.0,0.0,0.0,0.0,0.0,0.0,0.6387,0.6387,0.6387,0.6387,0.6387,0.6387,0.6387,0.6387,0.6387,0.0,0.0,0.0,0.0,0.0,0.0,0.0,0.0,0.0,0.0,0.0,0.0,0.0,0.0,0.0,0.0,0.0,0.0,0.0,0.0,0.0,0.0,0.0,0.0,0.0,0.0,0.0,0.0,0.0,0.0,0.0,0.0,0.0,0.0,0.0,0.0,0.0,0.0,0.0,0.0,0.0,1.4197,1.5475,1.5658,1.5745,0.0,0.0,1.5733,1.6042,1.6306,1.6241,1.5702,0.0,0.0,0.0,0.0,0.0,0.0,0.0,0.0,0.0,0.0,0.0,0.0,0.0,0.0,0.0,0.0,0.0,0.0,0.0,0.0,0.0,0.0,0.0,0.0,0.0,0.0,0.0,0.0,0.0,0.0,0.0,0.0,0.0,0.0,0.0,0.0,0.0,0.0,0.0,0.0,0.0,0.0,0.0,0.0,0.0,0.0,0.0,0.0,0.0,0.0,0.0,0.0,0.0,0.6387,0.6387,0.6387,0.6387,0.6387,0.6387,0.6387,0.6387,0.6387,0.6387,0.0,0.0,0.0,0.0,0.0,0.0,0.0,0.0,0.0,0.0,0.0,0.0,0.0,0.0,0.0,0.0,0.0,0.0,0.0,0.0,0.0,0.0,0.0,0.0,0.0,0.0,0.0,0.0,1.1194,1.1194,1.1194,0.0,0.0,0.0,0.0,0.0,0.0,0.0,0.0,0.0,0.0,1.4954,1.545,1.5549,0.0,0.0,1.567,1.5644,1.5866,1.6421,1.6517,1.5686,1.5904,0.0,0.0,0.0,0.0,0.0,0.0,0.0,0.0,0.0,0.0,0.0,0.0,0.0,0.0,0.0,0.0,0.0,0.0,0.0,0.0,0.0,0.0,0.0,0.0,0.0,0.0,0.0,0.0,0.0,0.0,0.0,0.0,0.0,0.0,0.0,0.0,0.0,0.0,0.0,0.0,0.0,0.0,0.0,0.0,0.0,0.0,0.0,0.0,0.0,0.0,0.0,0.0,0.6387,0.6387,0.6387,0.6387,0.6387,0.6387,0.6387,0.6387,0.6387,0.6387,0.0,0.0,0.0,0.0,0.0,0.0,0.0,0.0,0.0,0.0,0.0,0.0,0.0,0.0,0.0,0.0,0.0,0.0,0.0,0.0,0.0,0.0,0.0,0.0,0.0,0.0,0.0,0.0,1.1194,1.134,1.1727,0.0,0.0,0.0,0.0,0.0,0.0,0.0,0.0,0.0,0.0,1.6073,1.6469,1.6517,1.6619,1.6855,1.6708,1.6619,1.6848,1.738,1.7516,1.6635,0.0,0.0,0.0,0.0,0.0,0.0,0.0,0.0,0.0,0.0,0.0,0.0,0.0,0.0,0.0,0.0,0.0,0.0,0.0,0.0,0.0,0.0,0.0,0.0,0.0,0.0,0.0,0.0,0.0,0.0,0.3346,0.0,0.0,0.0,0.0,0.0,0.0,0.0,0.0,0.0,0.0,0.0,0.0,0.0,0.0,0.0,0.0,0.0,0.0,0.0,0.0,0.0,0.0,0.6384,0.6387,0.6387,0.6387,0.6387,0.6387,0.6387,0.6387,0.6387,0.6387,0.6387,0.0,0.0,0.0,0.0,0.0,0.0,0.0,0.0,0.0,0.0,0.0,0.0,0.0,0.0,0.0,0.0,0.0,0.0,0.0,0.0,0.0,0.0,0.0,0.0,0.0,0.0,1.1292,1.1243,1.177,0.0,0.0,0.0,0.0,0.0,0.0,0.0,0.0,0.0,0.0,1.7139,1.782,1.9067,1.9273,1.9272,1.9643,1.9478,1.9375,1.9635,1.9739,1.9741,0.0,0.0,0.0,0.0,0.0,0.0,0.0,0.0,0.0,0.0,0.0,0.0,0.0,0.0,0.0,0.0,0.0,0.0,0.0,0.0,0.0,0.0,0.0,0.0,0.0,0.0,0.0,0.5112,0.5822,0.0,0.0,0.0,0.0,0.0,0.0,0.0,0.0,0.0,0.0,0.0,0.6387,0.6387,0.0,0.0,0.0,0.0,0.0,0.0,0.0,0.0,0.0,0.0,0.0,0.0,0.6361,0.6431,0.6387,0.6387,0.6387,0.6387,0.6387,0.6387,0.6387,0.6387,0.6387,0.0,0.0,0.0,0.0,0.0,0.0,0.0,0.0,0.0,0.0,0.0,0.0,0.0,0.0,0.0,0.0,0.0,0.0,0.0,0.0,0.0,0.0,0.0,0.0,0.0,1.2538,0.0,0.0,0.0,0.0,0.0,0.0,0.0,0.0,0.0,0.0,0.0,1.6695,1.7807,1.817,1.8473,1.8964,1.901,1.905,0.0,0.0,0.0,0.0,0.0,0.0,0.0,0.0,0.0,0.0,0.0,0.0,0.0,0.0,1.7898,1.7621,1.7183,1.6825,1.6668,0.0,0.0,0.0,0.0,0.0,0.0,0.0,0.0,0.0,0.0,0.0,0.0,0.0,0.0,0.6596,0.0,0.7136,0.0,0.0,0.0,0.0,0.0,0.0,0.0,0.0,0.6686,0.6686,0.6686,0.6686,0.6686,0.0,0.6587,0.6587,0.0,0.0,0.0,0.0,0.0,0.0,0.0,0.0,0.6363,0.6384,0.6387,0.6537,0.6786,0.6537,0.6686,0.7182,0.7232,0.7232,0.7232,0.773,0.7779,0.0,0.0,0.0,0.0,0.0,0.0,0.0,0.0,0.0,0.0,0.0,0.0,0.0,0.0,0.0,0.0,0.0,0.0,0.0,0.0,0.0,0.0,0.0,1.383,0.0,0.0,0.0,0.0,0.0,0.0,0.0,0.0,0.0,1.7404,1.7498,1.7839,1.8512,1.8697,1.8781,1.8781,0.0,0.0,0.0,0.0,0.0,0.0,0.0,1.9675,1.9363,1.9592,1.9683,1.9371,1.979,2.0099,1.9894,0.0,0.0,1.9198,1.8645,1.834,1.816,1.8136,1.8136,1.8136,1.8136,1.8136,0.0,0.0,0.0,0.0,0.0,0.0,0.0,0.0,0.7709,0.7636,0.0,0.7497,0.0,0.0,0.0,0.0,0.0,0.6795,0.0,0.0,0.7185,0.7185,0.7185,0.7185,0.7185,0.7188,0.6942,0.6942,0.7138,0.6686,0.0,0.0,0.0,0.0,0.0,0.0,0.6431,0.6437,0.6434,0.6836,0.758,0.688,0.7232,0.8772,0.8821,0.8821,0.8825,0.8871,0.8874,0.8821,0.8871,0.0,0.0,0.0,0.0,0.0,0.0,0.0,0.0,0.0,0.0,0.0,0.0,0.0,0.0,0.0,0.0,0.0,0.0,0.0,0.0,1.4351,0.0,0.0,0.0,0.0,0.0,0.0,0.0,0.0,0.0,0.0,1.8735,1.8781,1.8781,1.8781,0.0,0.0,0.0,0.0,1.8874,1.8912,1.972,2.0031,1.905,2.0439,2.1382,2.0484,0.0,0.0,2.0475,2.162,2.22,2.1043,2.1474,2.1593,1.9792,1.9524,1.9365,1.8998,1.8956,1.8904,1.8904,1.9023,1.8993,0.8581,0.0,0.0,0.0,0.0,0.7802,0.7949,0.8116,0.8116,0.8033,0.7949,0.7846,0.0,0.0,0.0,0.0,0.0,0.0,0.7138,0.7185,0.7185,0.7185,0.7185,0.7185,0.7185,0.7185,0.7138,0.7138,0.7185,0.7036,0.6886,0.6689,0.0,0.0,0.0,0.0,0.6941,0.698,0.6989,0.7428,0.8464,0.8212,0.8707,0.9936,0.9932,0.9936,0.9932,1.0485,1.0529,0.9985,1.0485,0.0,0.0,0.0,0.0,0.0,0.0,0.0,0.0,0.0,0.0,0.0,0.0,0.0,0.0,0.0,0.0,0.0,0.0,0.0,1.5548,1.6875,1.7638,0.0,0.0,0.0,0.0,0.0,0.0,0.0,0.0,0.0,1.8781,1.8781,1.8781,0.0,0.0,1.9042,1.9766,1.9857,2.0121,2.0799,2.1114,0.0,0.0,2.1338,2.1606,2.1338,2.1516,2.1606,2.1338,2.1698,2.1862,2.1482,2.1644,2.1644,2.1193,2.1012,2.0977,2.0862,2.0889,2.0844,2.0889,2.0889,2.0836,0.8799,0.8397,0.8243,0.8189,0.8192,0.8272,0.8362,0.8529,0.847,0.8361,0.8266,0.812,0.7877,0.7487,0.7391,0.0,0.0,0.0,0.7441,0.7487,0.7487,0.7487,0.7537,0.7487,0.7487,0.7487,0.7391,0.7441,0.7537,0.7391,0.7291,0.7089,0.0,0.0,0.6936,0.7109,0.735,0.7773,0.7434,0.7879,0.9255,0.96,1.0137,1.0863,1.1165,1.1365,1.1361,1.1809,1.1858,1.1361,1.1809,1.2063,0.0,0.0,0.0,0.0,0.0,0.0,0.0,0.0,0.0,0.0,0.0,1.3216,0.0,0.0,0.0,0.0,1.521,1.6203,1.7358,1.8257,0.0,0.0,0.0,0.0,0.0,0.0,0.0,1.8781,1.8781,1.8781,1.8781,1.9142,1.9409,1.9409,1.9401,1.9766,2.0701,0.0,2.106,2.1606,2.2085,2.2262,2.1908,2.2526,2.3062,2.2965,2.3052,2.2867,2.2438,2.2746,2.2921,2.2658,2.279,2.2974,2.2974,2.2887,2.2536,2.1872,2.1695,2.1695,2.1695,2.1695,2.1695,0.8937,0.8937,0.8868,0.8861,0.8865,0.8865,0.8858,0.8834,0.875,0.8608,0.8511,0.833,0.8184,0.7992,0.7743,0.0,0.7646,0.7646,0.7743,0.7988,0.7988,0.7988,0.7988,0.7988,0.7988,0.7988,0.7743,0.7743,0.7988,0.7743,0.7646,0.7593,0.7391,0.7235,0.7235,0.7235,0.773,0.8707,0.7779,0.8177,1.0047,1.0988,1.1526,1.1804,1.2559,1.2905,1.291,1.2905,1.2905,1.291,1.2905,1.291,1.291,0.0,0.0,0.0,0.0,0.0,0.0,0.0,0.0,0.0,0.0,0.0,0.0,0.0,0.0,0.0,1.6311,0.0,1.8689,1.8781,0.0,0.0,0.0,1.8781,1.8781,1.8781,1.8781,1.8781,0.0,0.0,1.892,1.972,2.0348,2.052,2.0475,2.0746,2.1695,2.1828,2.1863,2.2085,2.2867,2.3226,2.2648,2.3877,2.4903,2.4765,2.5073,2.4712,2.3833,2.4317,2.4754,2.4016,2.4456,2.4861,2.4903,2.4605,2.4003,2.2403,2.205,2.1961,2.205,2.2094,2.2094,0.8937,0.8875,0.8811,0.8767,0.8713,0.8764,0.8699,0.8591,0.8554,0.8455,0.8371,0.8286,0.8184,0.7988,0.7942,0.7892,0.7892,0.7892,0.7942,0.7988,0.7988,0.7988,0.7988,0.7988,0.7988,0.7988,0.7942,0.7942,0.7988,0.7942,0.7892,0.7892,0.7839,0.769,0.7494,0.7693,0.7935,0.818,0.7939,0.8821,1.0881,1.264,1.3565,1.3667,1.3811,1.3962,1.3962,1.3913,1.3962,1.3962,1.3962,1.3962,1.3962,1.3539,0.0,0.0,0.0,0.0,0.0,0.0,0.0,0.0,0.0,1.5127,1.4555,0.0,1.7684,0.0,1.7831,1.8496,1.8773,1.8781,0.0,0.0,1.8781,1.8781,1.8781,1.8781,1.8781,1.8781,1.8781,1.9096,1.9849,2.0167,2.0827,2.2208,2.1819,2.1774,2.2824,2.2989,2.3347,2.4145,2.4531,2.4669,2.4456,2.485,2.52,2.5147,2.52,2.5105,2.4807,2.4978,2.5105,2.4893,2.4978,2.5115,2.5105,2.5073,2.4903,2.4456,2.4079,2.3831,2.3831,2.3831,2.3841,0.8838,0.8825,0.8672,0.8574,0.852,0.8581,0.856,0.8479,0.8418,0.8343,0.8316,0.8197,0.8119,0.7992,0.7988,0.7988,0.7988,0.7988,0.7988,0.7988,0.7988,0.7988,0.7988,0.7988,0.7988,0.7988,0.7988,0.7988,0.7988,0.7988,0.7988,0.7988,0.7988,0.7942,0.7793,0.7892,0.8233,0.8676,0.9167,0.9756,1.0485,1.2389,1.345,1.3601,1.3939,1.4123,1.4123,1.4238,1.4238,1.4135,1.4232,1.4298,1.4298,1.401,1.3968,0.0,0.0,0.0,0.0,0.0,0.0,0.0,0.0,0.0,0.0,0.0,1.8643,1.8257,1.8542,1.8781,1.8781,1.8781,1.8781,1.8781,1.8781,1.8781,1.8781,1.8781,1.8781,1.8781,1.8781,1.9188,2.0167,2.0656,2.1507,2.3042,2.3183,2.3357,2.393,2.4145,2.4445,2.5105,2.5285,2.5422,2.5506,2.5506,2.5464,2.5422,2.5422,2.5506,2.5422,2.5464,2.5506,2.5506,2.5422,2.538,2.538,2.5295,2.52,2.5158,2.4999,2.4828,2.4828,2.4839,2.4828,0.8703,0.8665,0.8516,0.8381,0.8275,0.8384,0.8425,0.8418,0.8296,0.8241,0.8282,0.8099,0.7988,0.7988,0.7988,0.7988,0.7988,0.7988,0.7988,0.7988,0.7988,0.7988,0.7988,0.7988,0.7988,0.7988,0.7988,0.7988,0.7988,0.7988,0.7988,0.7988,0.7988,0.7988,0.7988,0.7988,0.8482,0.941,1.0435,1.0636,0.985,1.1476,1.2527,1.2904,1.359,1.396,1.396,1.4171,1.4195,1.3978,1.4171,1.4298,1.4298,1.4298,1.4298,0.0,1.4298,0.0,0.0,0.0,0.0,0.0,0.0,0.0,0.0,1.8404,1.8781,1.8781,1.8781,1.8781,1.8781,1.8781,1.8781,1.8781,1.8781,1.8781,1.8781,1.8781,1.8781,1.8781,1.8781,1.918,2.0393,2.1248,2.2173,2.3434,2.4327,2.4807,2.4988,2.5073,2.52,2.5285,2.5475,2.5686,2.5812,2.5895,2.5812,2.5686,2.5738,2.5812,2.5644,2.577,2.5895,2.5853,2.5728,2.5644,2.5654,2.5464,2.5285,2.5327,2.5231,2.5189,2.5179,2.5158,2.5179,0.8638,0.8513,0.8422,0.8296,0.8313,0.8163,0.8123,0.8073,0.8092,0.8082,0.8032,0.8002,0.7988,0.7988,0.7988,0.7988,0.7988,0.7988,0.7988,0.7988,0.7988,0.7988,0.7988,0.7988,0.7988,0.7988,0.7988,0.7988,0.7988,0.7988,0.7988,0.7988,0.7988,0.7988,0.7988,0.0,0.0,0.0,0.9361,1.0243,1.0925,1.2007,1.3075,1.395,1.4154,0.0,1.4226,1.4268,1.4274,1.4226,1.4268,0.0,0.0,0.0,0.0,0.0,0.0,0.0,0.0,0.0,0.0,0.0,1.7138,1.7544,1.7692,1.835,1.8781,1.8781,1.8781,1.8781,1.8781,1.8781,1.8781,1.8781,1.8781,1.8781,1.8781,1.8781,1.8781,1.8781,1.8827,1.95,2.1159,2.173,2.2604,2.4284,2.5115,2.5433,2.5433,2.5475,2.5559,2.5738,2.5812,2.5853,2.5895,2.5895,2.5895,2.5853,2.5853,2.5853,2.5843,2.5853,2.5895,2.5884,2.5864,2.5853,2.5832,2.5812,2.5673,2.5759,2.5454,2.5209,2.5199,2.5189,2.5094,0.9035,0.0,0.8218,0.8157,0.0,0.8022,0.7988,0.7988,0.7988,0.7988,0.7988,0.7988,0.7988,0.7988,0.7988,0.7988,0.7988,0.7988,0.7988,0.7988,0.7988,0.7988,0.7988,0.7988,0.7988,0.7988,0.7988,0.7988,0.7988,0.7988,0.7988,0.7988,0.7988,0.7988,0.8038,0.8528,0.8775,0.8772,0.985,1.0681,1.1219,1.2571,1.3343,1.3499,0.0,0.0,0.0,0.0,0.0,0.0,0.0,0.0,0.0,0.0,0.0,1.4298,1.4298,1.4436,1.4867,1.5581,1.6339,1.7091,1.7839,1.821,1.8257,1.8589,1.8781,1.8781,1.8781,1.8781,1.8781,1.8781,1.8781,1.8781,1.8781,1.892,1.9142,1.9188,1.9279,1.9509,1.9554,2.0229,2.1943,2.2296,2.3139,2.4903,2.5433,2.5644,2.5738,2.5738,2.5812,2.5864,2.5895,2.5895,2.5895,2.5895,2.5786,2.5633,2.5742,2.5775,2.5579,2.5742,2.583,2.5611,2.5546,2.548,2.524,2.5196,2.5207,2.5185,2.5011,2.4861,2.4856,2.4869,2.4805,0.9381,0.8272,0.8042,0.7988,0.7988,0.7988,0.7988,0.7988,0.0,0.0,0.0,0.7988,0.7988,0.7988,0.7988,0.7988,0.7988,0.7988,0.7988,0.7988,0.7988,0.7988,0.7988,0.7988,0.7988,0.7988,0.7988,0.7988,0.7988,0.7988,0.7988,0.7988,0.7988,0.7988,0.8088,0.9069,0.9706,0.9899,1.0734,1.1268,1.1507,1.293,1.3448,1.2969,1.3607,1.3972,1.3978,1.4177,1.4195,1.3996,1.4183,1.4298,1.4298,1.4298,1.4298,1.4298,1.4298,1.458,1.5201,1.5967,1.6763,1.7645,1.8404,1.8781,1.8781,1.8781,1.8781,1.8781,1.8781,1.8781,1.8781,1.892,1.8912,1.8966,1.9012,1.9234,1.9637,1.9729,1.9866,2.0201,2.0246,2.0862,2.2252,2.2648,2.3391,2.4935,2.5517,2.5686,2.5853,2.5895,2.5895,2.5906,2.5808,2.5742,2.5753,2.5633,2.5491,2.5142,2.5371,2.5513,2.5327,2.5437,2.5491,2.5314,2.5161,2.4912,2.4585,2.4552,2.4526,2.4486,2.4399,2.4355,2.4344,2.4279,2.4257,0.9163,0.8019,0.7998,0.7988,0.7988,0.7988,0.7988,0.7988,0.7988,0.7988,0.7988,0.7988,0.7988,0.7988,0.7988,0.7988,0.7988,0.7988,0.7988,0.7988,0.7988,0.7988,0.7988,0.7988,0.7988,0.7988,0.7988,0.7988,0.7988,0.7988,0.7988,0.7988,0.7988,0.7988,0.8088,0.9069,1.0047,1.0925,1.1126,1.1609,1.2484,1.2748,1.3278,1.4046,1.4166,1.4244,1.4244,1.428,1.428,1.4244,1.4274,1.4298,1.4298,1.4298,1.4298,1.4298,1.4298,1.4346,1.4484,1.5153,1.619,1.7591,1.8396,1.8781,1.8781,1.8781,1.8781,1.8781,1.8781,1.8781,1.8827,1.9188,1.9463,1.9509,1.9828,2.0119,2.0192,2.0192,2.0238,2.0337,2.0292,2.069,2.1784,2.257,2.3444,2.4498,2.538,2.5853,2.5863,2.5895,2.5895,2.5852,2.5546,2.5357,2.5251,2.4934,2.476,2.4607,2.4683,2.488,2.5139,2.4945,2.4869,2.5128,2.4814,2.4563,2.4432,2.4526,2.4399,2.4355,2.4093,2.3853,2.3793,2.3558,2.3394,1.0284,0.9118,0.8353,0.8089,0.816,0.8025,0.7988,0.7988,0.7988,0.7988,0.7988,0.7988,0.7988,0.7988,0.7988,0.7988,0.7988,0.7988,0.7988,0.7988,0.7988,0.7988,0.7988,0.7988,0.7988,0.7988,0.7988,0.7988,0.7988,0.7988,0.7988,0.7988,0.7988,0.8287,0.8871,0.9361,1.0386,1.195,1.1999,1.2538,1.3516,1.3559,1.3806,1.4298,1.4298,1.4298,1.4298,1.4298,1.4298,1.4298,1.4298,1.4298,1.4298,1.4298,1.4298,1.4298,1.4298,1.4298,1.4298,1.501,1.6048,1.7552,1.8025,1.8404,1.8781,1.8781,1.8781,1.8781,1.8781,1.8781,1.8827,1.9279,1.9592,1.9592,2.0011,2.0382,2.0645,2.069,2.0781,2.1015,2.106,2.1365,2.2211,2.2974,2.38,2.4637,2.5422,2.583,2.5557,2.5502,2.5502,2.5469,2.5109,2.4887,2.4832,2.465,2.4497,2.4526,2.4526,2.4574,2.4781,2.4585,2.4486,2.4388,2.4163,2.3984,2.3777,2.3678,2.3678,2.3667,2.3525,2.334,2.3258,2.3143,2.3121,1.1104,0.9645,0.8538,0.8143,0.8208,0.8042,0.7988,0.7988,0.7988,0.7988,0.7988,0.7988,0.7988,0.7988,0.7988,0.7988,0.7988,0.7988,0.7988,0.7988,0.7988,0.7988,0.7988,0.7988,0.7988,0.7988,0.7988,0.7988,0.7988,0.7988,0.7988,0.7988,0.7988,0.8432,0.9217,0.9509,1.0386,1.1901,1.2242,1.3022,1.425,1.4298,1.4298,1.4298,1.4298,1.4298,1.4298,1.4298,1.4298,1.4298,1.4298,1.4298,1.4298,1.4298,1.4298,1.4298,1.4298,1.4298,1.4346,1.4962,1.5906,1.7077,1.7498,1.7971,1.845,1.8681,1.8781,1.8781,1.8781,1.8827,1.9058,1.9463,1.9783,1.9911,2.0329,2.0781,2.1087,2.1186,2.1266,2.1642,2.1687,2.1909,2.252,2.3125,2.3854,2.4733,2.5464,2.571,2.5325,2.515,2.5,2.4803,2.4541,2.4344,2.4312,2.417,2.4115,2.4148,2.4115,2.4148,2.4213,2.4246,2.4115,2.376,2.3618,2.3471,2.3099,2.3034,2.3067,2.3099,2.3078,2.3034,2.3045,2.3023,2.3012,1.0514,0.8603,0.8357,0.817,0.8019,0.7995,0.7988,0.7988,0.7988,0.7988,0.7988,0.7988,0.7988,0.7988,0.7988,0.7988,0.7988,0.7988,0.7988,0.7988,0.7988,0.7988,0.7988,0.7988,0.7988,0.7988,0.7988,0.7988,0.7988,0.7988,0.7988,0.7988,0.7988,0.8038,0.8233,0.9118,0.9706,0.9899,1.0832,1.229,1.4154,1.4298,1.4298,1.4298,1.4292,1.4298,1.4268,1.4298,1.4292,1.4298,1.4292,1.4298,1.4292,1.4292,1.4292,1.4292,1.4292,1.4298,1.4346,1.5003,1.548,1.5669,1.6889,1.7692,1.7824,1.8404,1.8781,1.8827,1.8781,1.905,1.9463,1.9965,2.0374,2.0718,2.1186,2.1607,2.1579,2.1642,2.1651,2.1687,2.1668,2.1741,2.1909,2.252,2.344,2.4733,2.5316,2.555,2.5164,2.477,2.4377,2.4017,2.3771,2.3771,2.3766,2.3416,2.3351,2.3263,2.3187,2.3416,2.3667,2.3547,2.322,2.352,2.3362,2.3099,2.3056,2.3001,2.3001,2.3001,2.3001,2.3001,2.3001,2.3001,2.3001,1.1339,1.0219,0.8758,0.8099,0.7992,0.7988,0.7988,0.7988,0.7988,0.7988,0.7988,0.7988,0.7988,0.7988,0.7988,0.7988,0.7988,0.7988,0.7988,0.7988,0.7988,0.7988,0.7988,0.7988,0.7988,0.7988,0.7988,0.7988,0.7988,0.7988,0.7988,0.7988,0.7988,0.7988,0.8041,0.8428,0.897,0.9608,1.0047,1.0979,1.2344,1.3076,1.3592,1.3986,1.4063,1.399,1.387,1.3978,1.4069,1.4075,1.4214,1.4232,1.4075,1.4069,1.4063,1.4075,1.4214,1.4298,1.4298,1.458,1.4914,1.5391,1.5954,1.6702,1.7598,1.7978,1.8303,1.8781,1.905,1.9363,1.9646,2.0283,2.0772,2.0988,2.141,2.1604,2.1339,2.1594,2.1623,2.1438,2.1585,2.1687,2.1776,2.2353,2.3363,2.452,2.4945,2.4821,2.4756,2.4355,2.3864,2.3427,2.3296,2.3296,2.3285,2.3154,2.3132,2.3296,2.3187,2.3176,2.3504,2.3318,2.3099,2.3247,2.3121,2.3001,2.3012,2.3001,2.3001,2.3001,2.3001,2.3001,2.3001,2.3001,2.3001,1.1742,1.1021,0.8961,0.8029,0.7988,0.7988,0.7988,0.7988,0.7988,0.7988,0.7988,0.7988,0.7988,0.7988,0.7988,0.7988,0.7988,0.7988,0.7988,0.7988,0.7988,0.7988,0.7988,0.7988,0.7988,0.7988,0.7988,0.7988,0.7988,0.7988,0.7988,0.7988,0.7988,0.7988,0.7988,0.7988,0.8382,0.9069,0.9164,0.9657,1.073,1.1463,1.2266,1.307,1.3368,1.3385,1.317,1.3592,1.3797,1.3803,1.3984,1.4002,1.3815,1.3797,1.3827,1.3924,1.4153,1.4298,1.4298,1.4298,1.4501,1.4962,1.519,1.5826,1.675,1.722,1.7738,1.8396,1.895,1.9317,1.9874,2.0419,2.0862,2.1132,2.1508,2.1549,2.1365,2.1531,2.1577,2.1365,2.1531,2.1687,2.1776,2.2353,2.3276,2.4253,2.4315,2.4184,2.4382,2.4071,2.3531,2.3088,2.3012,2.3012,2.3001,2.3012,2.3198,2.3307,2.3176,2.3121,2.3471,2.3165,2.3012,2.3132,2.3034,2.3001,2.3001,2.3001,2.3001,2.3001,2.3001,2.3001,2.3001,2.3001,2.3001,1.1396,1.0059,0.883,0.8163,0.7988,0.7988,0.7988,0.7988,0.7988,0.7988,0.7988,0.7988,0.7988,0.7988,0.7988,0.7988,0.7988,0.7988,0.7988,0.7988,0.7988,0.7988,0.7988,0.7988,0.7988,0.7988,0.7988,0.7988,0.7988,0.7988,0.7988,0.7988,0.7988,0.7988,0.7988,0.7988,0.8038,0.8187,0.8187,0.8627,0.9509,0.9706,1.0284,1.122,1.2014,1.2361,1.2411,1.309,1.3486,1.3486,1.3522,1.3562,1.3532,1.3532,1.3634,1.3863,1.4129,1.428,1.4268,1.4256,1.4213,1.4143,1.4785,1.5315,1.5392,1.614,1.6943,1.7699,1.8156,1.885,1.9957,2.0329,2.0781,2.1508,2.1642,2.1668,2.1623,2.1614,2.1678,2.1614,2.1641,2.1687,2.1741,2.2318,2.2974,2.3604,2.3938,2.407,2.4176,2.3928,2.3438,2.3154,2.3001,2.3001,2.3001,2.3001,2.3012,2.3088,2.3121,2.3012,2.3012,2.3012,2.3001,2.3001,2.3001,2.3001,2.3001,2.3001,2.3001,2.3001,2.3001,2.3001,2.3001,2.3001,2.3001,1.0616,0.8747,0.8294,0.8039,0.7992,0.7988,0.7988,0.7988,0.7988,0.7988,0.7988,0.7988,0.7988,0.7988,0.7988,0.7988,0.7988,0.7988,0.7988,0.7988,0.7988,0.7988,0.7988,0.7988,0.7988,0.7988,0.7988,0.7988,0.7988,0.7988,0.7988,0.7988,0.7988,0.7988,0.7988,0.7988,0.7988,0.7988,0.7988,0.8187,0.8528,0.8581,0.8772,0.9209,1.0592,1.1209,1.0974,1.1944,1.2428,1.2355,1.305,1.3435,1.3284,1.3221,1.3258,1.3417,1.3652,1.3797,1.3797,1.3791,1.3761,1.3688,1.4127,1.4612,1.4987,1.5497,1.615,1.6857,1.7138,1.7924,1.9355,2.0275,2.0997,2.1553,2.1687,2.163,2.1456,2.1513,2.1595,2.1456,2.1495,2.1687,2.1731,2.1963,2.2284,2.2639,2.2597,2.2788,2.3177,2.2994,2.2756,2.2944,2.3001,2.3001,2.3001,2.3001,2.3001,2.3001,2.3001,2.3001,2.3001,2.3001,2.3001,2.3001,2.3001,2.3001,2.3001,2.3078,2.3067,2.3001,2.3001,2.3088,2.3001,2.3001,2.3001,0.982,0.8155,0.8092,0.8035,0.7992,0.7988,0.7988,0.7988,0.7988,0.7988,0.7988,0.7988,0.7988,0.7988,0.7988,0.7988,0.7988,0.7988,0.7988,0.7988,0.7988,0.7988,0.7988,0.7988,0.7988,0.7988,0.7988,0.7988,0.7988,0.7988,0.7988,0.7988,0.7988,0.7988,0.7988,0.7988,0.7988,0.7988,0.7988,0.7988,0.7985,0.7941,0.7917,0.8097,0.9212,0.9892,0.9856,1.0822,1.1438,1.1715,1.2399,1.286,1.2919,1.3029,1.3083,1.3107,1.3375,1.3468,1.3468,1.3468,1.3483,1.3405,1.3622,1.401,1.4484,1.4771,1.5276,1.5866,1.6107,1.684,1.8666,1.9799,2.0676,2.1472,2.1687,2.1586,2.1374,2.1531,2.154,2.1429,2.1376,2.1522,2.1641,2.1559,2.1761,2.2116,2.1697,2.1635,2.2244,2.2328,2.2225,2.2628,2.2879,2.2964,2.3001,2.3001,2.3001,2.3001,2.3001,2.3001,2.3001,2.3001,2.3001,2.3001,2.3001,2.3001,2.3045,2.3132,2.311,2.3045,2.3187,2.3329,2.3176,2.3001,2.3001,0.9121,0.8115,0.8201,0.816,0.7998,0.7988,0.7988,0.7988,0.7988,0.7988,0.7988,0.7988,0.7988,0.7988,0.7988,0.7988,0.7988,0.7988,0.7988,0.7988,0.7988,0.7988,0.7988,0.7988,0.7988,0.7988,0.7988,0.7988,0.7988,0.7988,0.7988,0.7988,0.7988,0.7988,0.7988,0.7988,0.7988,0.7988,0.7988,0.7988,0.7971,0.787,0.7855,0.7841,0.7966,0.8423,0.9168,0.9833,1.0556,1.1216,1.1347,1.1774,1.2514,1.2909,1.3109,1.3077,1.3294,1.3426,1.3471,1.3447,1.332,1.3206,1.3363,1.3513,1.3635,1.3887,1.4272,1.4823,1.5107,1.5961,1.7995,1.8665,1.9563,2.1275,2.1614,2.1577,2.1568,2.1623,2.165,2.1513,2.1319,2.1291,2.1449,2.1337,2.1321,2.1584,2.1285,2.0989,2.161,2.1755,2.1991,2.2225,2.2515,2.2777,2.2927,2.3001,2.3001,2.3001,2.3001,2.3001,2.3001,2.3001,2.3001,2.3001,2.3001,2.3001,2.3023,2.311,2.3165,2.3154,2.3324,2.3367,2.3198,2.3001,2.3001,0.9019,0.8045,0.8092,0.8035,0.7988,0.7988,0.7988,0.7988,0.7988,0.7988,0.7988,0.7988,0.7988,0.7988,0.7988,0.7988,0.7988,0.7988,0.7988,0.7988,0.7988,0.7988,0.7988,0.7988,0.7988,0.7988,0.7988,0.7988,0.7988,0.7988,0.7988,0.7988,0.7988,0.7988,0.7988,0.7988,0.7988,0.7988,0.7988,0.7988,0.7988,0.7944,0.7967,0.7911,0.7868,0.7956,0.8231,0.8972,0.9442,0.9682,1.0089,1.075,1.1639,1.2433,1.2794,1.2843,1.2904,1.2952,1.2958,1.297,1.2958,1.291,1.3097,1.323,1.3227,1.3495,1.3726,1.3954,1.4,1.4708,1.609,1.6928,1.835,2.0983,2.13,2.1156,2.0973,2.0882,2.0863,2.0888,2.0778,2.0778,2.0808,2.0732,2.0706,2.0685,2.0391,2.0391,2.0653,2.0869,2.1252,2.1911,2.2252,2.2553,2.274,2.2852,2.2889,2.2964,2.3001,2.3001,2.3001,2.3001,2.3001,2.3001,2.3001,2.3012,2.3034,2.3121,2.3209,2.3154,2.3198,2.3143,2.3034,2.3001,2.3001,0.8627,0.8038,0.7988,0.7988,0.7988,0.7988,0.7988,0.7988,0.7988,0.7988,0.7988,0.7988,0.7988,0.7988,0.7988,0.7988,0.7988,0.7988,0.7988,0.7988,0.7988,0.7988,0.7988,0.7988,0.7988,0.7988,0.7988,0.7988,0.7988,0.7988,0.7988,0.7988,0.7988,0.7988,0.7988,0.7988,0.7988,0.7988,0.7988,0.7988,0.7975,0.7934,0.7907,0.7891,0.781,0.7787,0.7784,0.8248,0.8614,0.8997,0.9897,1.0765,1.1338,1.2186,1.2705,1.2705,1.2705,1.2711,1.2711,1.2843,1.2856,1.2904,1.3115,1.3272,1.3302,1.3447,1.3483,1.3387,1.3369,1.3887,1.5065,1.5849,1.7427,1.9762,2.0411,2.0598,2.0464,2.0342,2.0411,2.0466,2.0411,2.0383,2.0466,2.0296,2.0186,1.993,1.9797,1.9699,1.988,2.0098,2.075,2.129,2.1558,2.1977,2.2515,2.2665,2.274,2.2889,2.3001,2.3001,2.3001,2.3001,2.3001,2.3001,2.3001,2.3001,2.3034,2.3274,2.3394,2.3252,2.3088,2.3176,2.3176,2.3023,2.3001,0.8055,0.8002,0.7995,0.7988,0.7988,0.7988,0.7988,0.7988,0.7988,0.7988,0.7988,0.7988,0.7988,0.7988,0.7988,0.7988,0.7988,0.7988,0.8008,0.8012,0.8002,0.7988,0.7988,0.7988,0.7988,0.7988,0.7988,0.7988,0.7988,0.7988,0.7988,0.7988,0.7988,0.7988,0.7988,0.7988,0.7988,0.7988,0.7988,0.7988,0.7985,0.7916,0.7848,0.7848,0.7824,0.776,0.7668,0.7779,0.8121,0.8946,1.017,1.0892,1.1261,1.2069,1.2528,1.2528,1.2613,1.2705,1.2759,1.294,1.3079,1.3053,1.3308,1.3495,1.3435,1.3411,1.3338,1.3133,1.3103,1.353,1.4592,1.5326,1.653,1.8037,1.9298,1.9961,2.0318,2.0049,2.0035,2.0218,2.0136,2.0008,2.0283,2.0012,1.9875,1.9806,1.9558,1.9424,1.9487,1.9775,2.0079,2.0469,2.0934,2.152,2.2138,2.2402,2.2515,2.2889,2.3001,2.3001,2.3001,2.3001,2.3001,2.3001,2.3001,2.3001,2.3056,2.3252,2.3296,2.3132,2.3132,2.3307,2.3263,2.3078,2.3001,0.8208,0.8197,0.8085,0.7988,0.7988,0.7988,0.7988,0.7988,0.7988,0.7988,0.7988,0.7988,0.7988,0.7988,0.7988,0.7988,0.7988,0.7988,0.8113,0.8177,0.8035,0.7992,0.7988,0.7988,0.7988,0.7988,0.7988,0.7988,0.7988,0.7988,0.7988,0.7988,0.7988,0.7988,0.7988,0.7988,0.7988,0.7988,0.7988,0.7988,0.7982,0.7951,0.7931,0.7921,0.7872,0.7801,0.7756,0.7756,0.7732,0.7855,0.8886,0.9503,0.9709,1.0912,1.1716,1.1888,1.2338,1.2717,1.2771,1.2988,1.3083,1.3101,1.3417,1.3378,1.3191,1.3236,1.3091,1.2886,1.2813,1.2961,1.3371,1.4012,1.5267,1.7089,1.8609,1.9534,1.9619,1.9549,1.9522,1.9586,1.954,1.9586,1.9613,1.9604,1.9503,1.9476,1.9393,1.9292,1.9381,1.942,1.9726,2.0079,2.0547,2.1175,2.1683,2.1987,2.2327,2.2852,2.3001,2.3001,2.3001,2.3001,2.3001,2.3001,2.3001,2.3001,2.3001,2.3088,2.3023,2.3012,2.3056,2.3165,2.3121,2.3001,2.3001,0.8323,0.831,0.8106,0.7988,0.7988,0.7988,0.7988,0.7988,0.7988,0.7988,0.7988,0.7988,0.7988,0.7988,0.7988,0.7988,0.7988,0.7988,0.8123,0.8238,0.818,0.8109,0.8008,0.7988,0.7988,0.7988,0.7988,0.7988,0.7988,0.7988,0.7988,0.7988,0.7988,0.7988,0.7988,0.7988,0.7988,0.7988,0.7988,0.7988,0.7988,0.7988,0.7988,0.7978,0.7894,0.7889,0.7828,0.7811,0.7675,0.7696,0.8341,0.8952,0.9005,1.0178,1.1091,1.149,1.2103,1.2516,1.3003,1.3296,1.3441,1.3501,1.3694,1.3682,1.3544,1.3447,1.332,1.2964,1.2892,1.2819,1.2942,1.3724,1.5061,1.6607,1.8095,1.9063,1.9262,1.932,1.9292,1.9292,1.9292,1.9292,1.9292,1.9292,1.9292,1.9301,1.9329,1.9292,1.9292,1.9292,1.9381,1.9726,1.9962,2.043,2.0867,2.1175,2.1873,2.244,2.3001,2.3001,2.3001,2.3001,2.3001,2.3001,2.3001,2.3001,2.3001,2.3001,2.3001,2.3001,2.3001,2.3001,2.3001,2.3001,2.3001,0.8282,0.831,0.8102,0.7988,0.7988,0.7988,0.7988,0.7988,0.7988,0.7988,0.7988,0.7988,0.7988,0.7988,0.7988,0.7988,0.7988,0.7988,0.8136,0.8228,0.8245,0.8194,0.8096,0.8002,0.7992,0.7988,0.7988,0.7988,0.7988,0.7988,0.7988,0.7988,0.7988,0.7988,0.7988,0.7988,0.7988,0.7988,0.7988,0.7988,0.7988,0.7988,0.7988,0.7985,0.7978,0.7936,0.7855,0.7818,0.7719,0.7434,0.8524,0.8839,0.8921,0.9744,1.0675,1.1527,1.1866,1.2382,1.3292,1.3676,1.3863,1.3876,1.4093,1.4177,1.39,1.3767,1.3568,1.3194,1.3145,1.2994,1.3004,1.4222,1.5269,1.6221,1.7578,1.8514,1.9112,1.9262,1.9292,1.9292,1.9292,1.9292,1.9292,1.9292,1.9292,1.9292,1.9292,1.9292,1.9292,1.9292,1.9292,1.9371,1.9529,1.9608,2.0001,2.0323,2.1175,2.1949,2.2703,2.3001,2.3001,2.3001,2.3001,2.3001,2.3001,2.3001,2.3001,2.3001,2.3001,2.3001,2.3001,2.3001,2.3001,2.3001,2.3001,0.837,0.831,0.8102,0.7988,0.7988,0.7988,0.7988,0.7988,0.7988,0.7988,0.7988,0.7988,0.7988,0.7988,0.7988,0.7988,0.7992,0.8002,0.8123,0.8306,0.8323,0.8258,0.8187,0.8099,0.7992,0.7988,0.7988,0.7988,0.7988,0.7988,0.7988,0.7988,0.7988,0.7988,0.7988,0.7988,0.7988,0.7988,0.7988,0.7988,0.7988,0.7988,0.7988,0.7988,0.7988,0.7914,0.7875,0.7926,0.7896,0.7832,0.7959,0.819,0.8328,0.8887,0.9859,1.0881,1.1605,1.2334,1.3294,1.3779,1.3906,1.3954,1.4135,1.4183,1.3924,1.3743,1.3598,1.3399,1.3209,1.3115,1.3063,1.3585,1.4621,1.5604,1.6507,1.7539,1.8531,1.9082,1.9222,1.9292,1.9292,1.9292,1.9292,1.9292,1.9292,1.9292,1.9292,1.9292,1.9292,1.9292,1.9292,1.9292,1.9332,1.949,1.9766,2.0167,2.0828,2.1596,2.2317,2.2964,2.3001,2.3001,2.3001,2.3001,2.3001,2.3001,2.3001,2.3001,2.3001,2.3001,2.3001,2.3001,2.3001,2.3001,2.3001,0.8401,0.8258,0.8106,0.7988,0.7988,0.7988,0.7988,0.7988,0.7988,0.7988,0.7988,0.7988,0.7988,0.7988,0.7988,0.7988,0.8008,0.8119,0.8147,0.8191,0.8218,0.8231,0.8157,0.8089,0.7988,0.7988,0.7988,0.7988,0.7988,0.7988,0.7988,0.7988,0.7988,0.7988,0.7988,0.7988,0.7988,0.7988,0.7988,0.7988,0.7988,0.7988,0.7988,0.7988,0.7988,0.7944,0.7894,0.7941,0.7941,0.7891,0.7867,0.7916,0.7913,0.8326,0.928,1.0649,1.127,1.2408,1.3461,1.3996,1.4093,1.4081,1.4232,1.4195,1.4111,1.3948,1.3827,1.3682,1.3459,1.323,1.3014,1.3585,1.4341,1.524,1.6076,1.7093,1.8067,1.8726,1.9112,1.9222,1.9292,1.9292,1.9292,1.9292,1.9292,1.9292,1.9292,1.9292,1.9292,1.9292,1.9292,1.9292,1.9292,1.9411,1.9657,2.0089,2.0586,2.1318,2.2014,2.2617,2.2927,2.2964,2.3001,2.3001,2.3001,2.3001,2.3001,2.3001,2.3001,2.3001,2.3001,2.3001,2.3001,2.3001,2.3001,0.8453,0.831,0.8102,0.7988,0.7988,0.7988,0.7988,0.7988,0.7988,0.7988,0.7988,0.7988,0.7988,0.7988,0.7988,0.7988,0.8022,0.8143,0.8157,0.8147,0.8177,0.818,0.8113,0.8022,0.7988,0.7988,0.7988,0.7988,0.7988,0.7988,0.7988,0.7988,0.7988,0.7988,0.7988,0.7988,0.7988,0.7988,0.7988,0.7988,0.7988,0.7988,0.7988,0.7988,0.7988,0.7985,0.7968,0.7982,0.7985,0.7988,0.7988,0.7988,0.7988,0.8137,0.897,1.096,1.1264,1.2266,1.376,1.4256,1.4274,1.4298,1.4298,1.4298,1.4274,1.4189,1.4081,1.3942,1.3719,1.3423,1.302,1.3449,1.4344,1.5194,1.6128,1.69,1.7745,1.828,1.8589,1.9073,1.9112,1.9112,1.9222,1.9292,1.9292,1.9292,1.9292,1.9292,1.9292,1.9292,1.9292,1.9292,1.9292,1.9292,1.9529,1.9932,2.0469,2.0934,2.1624,2.2203,2.274,2.2927,2.2964,2.3001,2.3001,2.3001,2.3001,2.3001,2.3001,2.3001,2.3001,2.3001,2.3001,2.3001,2.3001,0.8449,0.831,0.8102,0.7988,0.7988,0.7988,0.7988,0.7988,0.7988,0.7988,0.7988,0.7988,0.7988,0.7988,0.7988,0.7988,0.8002,0.8092,0.8136,0.8157,0.8153,0.8102,0.8163,0.8029,0.7992,0.7988,0.7998,0.8008,0.7988,0.7988,0.7988,0.7988,0.7988,0.7988,0.7988,0.7988,0.7988,0.7988,0.7988,0.7988,0.7988,0.7988,0.7988,0.7988,0.7988,0.7988,0.7988,0.7988,0.7988,0.7988,0.7988,0.7988,0.8038,0.8038,0.9167,1.0636,1.1219,1.2101,1.3902,1.4298,1.4298,1.4298,1.4298,1.4298,1.4256,1.4129,1.4081,1.4063,1.393,1.3743,1.3719,1.3646,1.4225,1.5062,1.5603,1.6186,1.7399,1.7888,1.8053,1.8651,1.8785,1.8962,1.9143,1.9292,1.9292,1.9292,1.9292,1.9292,1.9292,1.9292,1.9292,1.9292,1.9292,1.9292,1.9332,1.9814,2.0284,2.0547,2.1165,2.1835,2.2327,2.274,2.2927,2.2964,2.3001,2.3001,2.3001,2.3001,2.3001,2.3001,2.3001,2.3001,2.3001,2.3001,2.3001,0.8353,0.815,0.8019,0.7988,0.7988,0.7988,0.7988,0.7988,0.7988,0.7988,0.7988,0.7988,0.7988,0.7988,0.7988,0.7988,0.7988,0.7988,0.8035,0.8123,0.8082,0.8019,0.815,0.8015,0.7998,0.8012,0.8109,0.8106,0.7998,0.7988,0.7992,0.7988,0.7988,0.7988,0.7988,0.7988,0.7988,0.7988,0.7988,0.7988,0.7988,0.7988,0.7988,0.7988,0.7988,0.7988,0.7988,0.7988,0.7988,0.7988,0.7988,0.7988,0.8137,0.8676,0.9505,1.0828,1.1268,1.2145,1.3854,1.4298,1.4298,1.4298,1.4298,1.4298,1.428,1.4195,1.4057,1.39,1.3815,1.358,1.3266,1.3435,1.3975,1.4681,1.5253,1.6089,1.7008,1.7443,1.7904,1.8331,1.8582,1.8865,1.9222,1.9292,1.9292,1.9292,1.9292,1.9292,1.9292,1.9292,1.9292,1.9292,1.9292,1.9292,1.9292,1.9569,1.9932,2.0235,2.0663,2.1367,2.1949,2.2402,2.274,2.2953,2.3001,2.3001,2.3001,2.3001,2.3001,2.3001,2.3001,2.3001,2.3001,2.3001,2.3001,0.8303,0.8035,0.8002,0.7988,0.7988,0.7988,0.7988,0.7988,0.7988,0.7988,0.7988,0.7988,0.7988,0.7988,0.7988,0.7988,0.7988,0.7988,0.7995,0.7998,0.7995,0.7992,0.7988,0.7988,0.7988,0.8012,0.818,0.8187,0.8075,0.8085,0.8025,0.7998,0.7988,0.7988,0.7988,0.7988,0.7988,0.7988,0.7988,0.7988,0.7988,0.7988,0.7988,0.7988,0.7988,0.7988,0.7988,0.7988,0.7988,0.7988,0.7988,0.7988,0.8184,0.9015,1.0096,1.0974,1.137,1.2538,1.3709,1.4298,1.4298,1.4298,1.4298,1.4298,1.4298,1.4244,1.4129,1.3761,1.3622,1.358,1.3405,1.3411,1.3876,1.4566,1.5468,1.6235,1.6869,1.7427,1.7943,1.8305,1.8488,1.8744,1.9043,1.9292,1.9292,1.9292,1.9292,1.9292,1.9292,1.9292,1.9292,1.9292,1.9292,1.9292,1.9292,1.9292,1.9608,1.9844,2.0274,2.0828,2.1443,2.2025,2.2392,2.2804,2.3001,2.3001,2.3001,2.3001,2.3001,2.3001,2.3001,2.3001,2.3001,2.3001,2.3001,0.8327,0.8231,0.8096,0.7988,0.7988,0.7988,0.7988,0.7988,0.7988,0.7988,0.7988,0.7988,0.7988,0.7988,0.7988,0.7988,0.7988,0.7988,0.7988,0.7988,0.7988,0.7998,0.7998,0.7988,0.8032,0.8076,0.8238,0.817,0.813,0.8194,0.8163,0.8032,0.7998,0.7995,0.8072,0.7998,0.7988,0.7988,0.7988,0.7988,0.7988,0.7988,0.7988,0.7988,0.7988,0.7988,0.7988,0.7988,0.7988,0.7988,0.7988,0.7988,0.8184,0.9019,1.0096,1.1121,1.2047,1.3028,1.4052,1.4298,1.4298,1.4298,1.4298,1.4298,1.4298,1.4298,1.4244,1.4244,1.399,1.3845,1.3779,1.3876,1.4341,1.4908,1.5582,1.6338,1.6973,1.7691,1.8225,1.8475,1.8752,1.8757,1.8855,1.9083,1.9292,1.9292,1.9292,1.9292,1.9292,1.9292,1.9292,1.9292,1.9292,1.9292,1.9292,1.9292,1.9371,1.9529,1.9883,2.0362,2.0905,2.152,2.2252,2.258,2.2777,2.2964,2.3001,2.3001,2.3001,2.3001,2.3001,2.3001,2.3001,2.3001,2.3001,0.8689,0.8133,0.8015,0.7988,0.7988,0.7988,0.7988,0.7988,0.7988,0.7988,0.7988,0.7988,0.7988,0.7988,0.7988,0.7988,0.7988,0.7988,0.7988,0.7988,0.7995,0.8082,0.8157,0.8177,0.8197,0.8289,0.8414,0.8452,0.8347,0.8258,0.8225,0.8177,0.8042,0.8096,0.813,0.8025,0.7998,0.7988,0.7988,0.7988,0.7988,0.7988,0.7988,0.7988,0.7988,0.7988,0.7988,0.7988,0.7988,0.7988,0.7988,0.7988,0.8432,0.946,1.0832,1.1175,1.278,1.3757,1.4244,1.4298,1.4298,1.4298,1.4298,1.4298,1.4298,1.4292,1.422,1.4069,1.3978,1.3936,1.393,1.3894,1.4003,1.4539,1.5591,1.616,1.6899,1.7925,1.8546,1.8764,1.9004,1.8998,1.9018,1.9106,1.9301,1.9366,1.9338,1.9292,1.9292,1.9292,1.9292,1.9292,1.9292,1.9292,1.9292,1.9292,1.9292,1.9411,1.9411,1.9883,2.0362,2.0972,2.1624,2.2166,2.2365,2.259,2.2889,2.3001,2.3001,2.3001,2.3001,2.3001,2.3001,2.3001,2.3001,0.9213,0.8038,0.7988,0.7988,0.7988,0.7988,0.7988,0.7988,0.7988,0.7988,0.7988,0.7988,0.7988,0.7988,0.7988,0.7988,0.7988,0.7988,0.7988,0.7988,0.8002,0.8102,0.8167,0.8228,0.8313,0.8442,0.8581,0.8574,0.8482,0.8425,0.8391,0.8319,0.8184,0.8174,0.8197,0.8126,0.7988,0.7988,0.7988,0.7988,0.7988,0.7988,0.7988,0.7988,0.7988,0.7988,0.7988,0.7988,0.7988,0.7988,0.7988,0.7988,0.8283,0.9854,1.0979,1.1614,1.298,1.4154,1.4298,1.4298,1.4298,1.4298,1.4298,1.4298,1.4298,1.4292,1.4256,1.4081,1.3948,1.3845,1.3779,1.3888,1.3934,1.4528,1.5444,1.593,1.6625,1.7804,1.8766,1.9056,1.9287,1.9425,1.9417,1.9311,1.9335,1.9436,1.9393,1.9311,1.9292,1.9292,1.9292,1.9292,1.9292,1.9292,1.9292,1.9292,1.9292,1.9292,1.9292,1.9529,2.0118,2.043,2.0895,2.1357,2.1873,2.2252,2.2553,2.2777,2.3001,2.3001,2.3001,2.3001,2.3001,2.3001,2.3023,0.9854,0.7988,0.7988,0.7988,0.7988,0.7988,0.7988,0.7988,0.7988,0.7988,0.7988,0.7988,0.7988,0.7988,0.7988,0.7988,0.7988,0.7988,0.7988,0.7988,0.7995,0.8019,0.8147,0.8231,0.8313,0.8384,0.8608,0.8645,0.856,0.8635,0.8567,0.8465,0.8306,0.8323,0.8228,0.814,0.7998,0.7988,0.7988,0.7988,0.7988,0.7988,0.7988,0.7988,0.7988,0.7988,0.7988,0.7988,0.7988,0.7988,0.7988,0.7988,0.8382,1.0096,1.1077,1.1609,1.3173,1.4154,1.4298,1.4298,1.4298,1.4298,1.4298,1.4298,1.4298,1.4298,1.4268,1.422,1.4075,1.4051,1.4051,1.4087,1.4032,1.4524,1.5368,1.6181,1.6929,1.798,1.8794,1.9257,1.9532,1.9749,1.9835,1.9733,1.9589,1.9674,1.9393,1.9292,1.9292,1.9292,1.9292,1.9292,1.9292,1.9292,1.9292,1.9292,1.9292,1.9292,1.9292,1.9569,2.001,2.0235,2.0313,2.0857,2.1405,2.1825,2.2214,2.2515,2.274,2.2927,2.3001,2.3001,2.3001,2.3001,2.3045,0.9365,0.8038,0.7988,0.7988,0.7988,0.7988,0.7988,0.7988,0.7988,0.7988,0.7988,0.7988,0.7988,0.7988,0.7988,0.7988,0.7988,0.7988,0.7988,0.7988,0.7992,0.8096,0.8187,0.8319,0.8452,0.8554,0.8743,0.8784,0.8794,0.8808,0.8815,0.8696,0.8445,0.8422,0.8299,0.8184,0.8022,0.7995,0.7992,0.7988,0.7988,0.7988,0.7988,0.7988,0.7988,0.7988,0.7988,0.7988,0.7988,0.7988,0.7988,0.8038,0.8382,1.0199,1.1077,1.1463,1.327,1.4154,1.4298,1.4298,1.4298,1.4298,1.4298,1.4298,1.4298,1.4298,1.4298,1.4256,1.4208,1.4201,1.422,1.4208,1.4243,1.4692,1.5343,1.6204,1.7059,1.7994,1.8681,1.9039,1.9617,2.003,2.0131,2.0136,1.9985,1.9893,1.9536,1.9292,1.9292,1.9292,1.9292,1.9292,1.9292,1.9292,1.9292,1.9292,1.9292,1.9292,1.9292,1.9529,1.9766,1.9608,1.9805,2.0391,2.0895,2.1242,2.1672,2.2176,2.2553,2.2852,2.3001,2.3001,2.3001,2.3001,2.3078,0.897,0.8038,0.7988,0.7988,0.7988,0.7988,0.7988,0.7988,0.7988,0.7988,0.7988,0.7988,0.7988,0.7988,0.7988,0.7988,0.7988,0.7988,0.7988,0.8008,0.8102,0.817,0.8299,0.8445,0.8594,0.8733,0.8852,0.892,0.8906,0.893,0.8861,0.8804,0.8611,0.852,0.8455,0.8272,0.8056,0.8106,0.8008,0.7992,0.7988,0.7988,0.7988,0.7988,0.7988,0.7988,0.7988,0.7988,0.7988,0.7988,0.8038,0.8184,0.897,0.9998,1.117,1.2096,1.3071,1.425,1.4298,1.4298,1.4298,1.4298,1.4298,1.4298,1.4298,1.4298,1.4298,1.4298,1.4292,1.4298,1.4298,1.4268,1.4262,1.4586,1.5296,1.6103,1.677,1.7613,1.8265,1.8804,1.9347,1.9724,1.9977,1.9957,1.9829,1.972,1.9472,1.9292,1.9292,1.9292,1.9292,1.9292,1.9292,1.9292,1.9292,1.9292,1.9292,1.9292,1.9292,1.9292,1.9371,1.9292,1.9332,1.9805,2.0274,2.0663,2.1165,2.1711,2.2317,2.2889,2.2964,2.3001,2.3001,2.3012,2.311,0.8924,0.8038,0.7988,0.7988,0.7988,0.7988,0.7988,0.7988,0.7988,0.7988,0.7988,0.7988,0.7988,0.7988,0.7988,0.7988,0.7988,0.7988,0.7988,0.8012,0.813,0.8228,0.8353,0.8499,0.8642,0.8733,0.8797,0.8937,0.8937,0.8937,0.8937,0.8851,0.876,0.8652,0.8672,0.8408,0.8269,0.8289,0.8109,0.8002,0.7988,0.7988,0.7988,0.7988,0.7988,0.7988,0.7988,0.7988,0.7988,0.7988,0.7988,0.8432,0.941,1.044,1.156,1.2538,1.3613,1.425,1.4298,1.4298,1.4298,1.4298,1.4298,1.4298,1.4298,1.4298,1.4298,1.4298,1.4298,1.4298,1.4298,1.4298,1.4298,1.4538,1.5248,1.5961,1.6622,1.7372,1.8025,1.8727,1.8874,1.9055,1.9437,1.9677,1.9567,1.9462,1.9332,1.9292,1.9292,1.9292,1.9292,1.9292,1.9292,1.9292,1.9292,1.9292,1.9292,1.9292,1.9292,1.9292,1.9292,1.9292,1.9332,1.945,1.9726,2.0196,2.0702,2.1252,2.1977,2.2665,2.2927,2.3001,2.3001,2.3088,2.3241,0.8333,0.7988,0.7988,0.7988,0.7988,0.7988,0.7988,0.7988,0.7988,0.7988,0.7988,0.7988,0.7988,0.7988,0.7988,0.7988,0.7988,0.7988,0.7988,0.8005,0.8136,0.8184,0.8316,0.8499,0.8632,0.873,0.8852,0.8937,0.8937,0.8937,0.8937,0.8854,0.8866,0.875,0.8567,0.8364,0.8323,0.8241,0.813,0.7988,0.7988,0.7988,0.7988,0.7988,0.7988,0.7988,0.7988,0.7988,0.7988,0.7988,0.7988,0.8577,0.9608,1.0685,1.1658,1.2684,1.3709,1.4298,1.4298,1.4298,1.4298,1.4298,1.4298,1.4298,1.4298,1.4298,1.4298,1.4298,1.4298,1.4298,1.4298,1.4298,1.4346,1.4442,1.5057,1.5818,1.6527,1.7271,1.7978,1.8681,1.9012,1.9081,1.9369,1.9609,1.9552,1.9376,1.9237,1.9253,1.9292,1.9292,1.9292,1.9292,1.9292,1.9292,1.9292,1.9292,1.9292,1.9292,1.9292,1.9292,1.9292,1.9292,1.9292,1.9371,1.9539,1.9736,2.0401,2.1059,2.1797,2.2375,2.259,2.3063,2.3351,2.3427,2.3525,0.7988,0.7988,0.7988,0.7988,0.7988,0.7988,0.7988,0.7988,0.7988,0.7988,0.7988,0.7988,0.7988,0.7988,0.7988,0.7988,0.7992,0.8102,0.8119,0.8136,0.8252,0.836,0.8469,0.8554,0.8726,0.8804,0.8866,0.8937,0.8937,0.8937,0.8937,0.8937,0.8933,0.8838,0.8662,0.8543,0.8408,0.835,0.8225,0.8099,0.8015,0.7988,0.7988,0.7988,0.7988,0.7988,0.7988,0.7988,0.7988,0.7988,0.8184,0.8722,0.9854,1.0832,1.1901,1.3028,1.3806,1.4298,1.4298,1.4298,1.4298,1.4298,1.4298,1.4298,1.4298,1.4298,1.4298,1.4298,1.4298,1.4298,1.4298,1.4298,1.4346,1.449,1.4729,1.5486,1.6412,1.7156,1.7777,1.8481,1.9001,1.9137,1.9263,1.9504,1.9644,1.9385,1.9152,1.9222,1.9292,1.9292,1.9292,1.9292,1.9292,1.9292,1.9292,1.9292,1.9292,1.9292,1.9292,1.9292,1.9292,1.9292,1.9292,1.9292,1.9411,1.9657,2.0157,2.0818,2.1407,2.1856,2.209,2.2685,2.3481,2.3596,2.3508,0.7988,0.7988,0.7988,0.7988,0.7988,0.7988,0.7988,0.7988,0.7988,0.7988,0.7988,0.7988,0.7988,0.7988,0.7988,0.7988,0.8019,0.8184,0.8228,0.8316,0.8438,0.8574,0.8686,0.8733,0.8832,0.8893,0.8937,0.8937,0.8937,0.8937,0.8937,0.8937,0.8937,0.8893,0.8828,0.8747,0.8611,0.8489,0.835,0.8235,0.812,0.8042,0.8039,0.8032,0.8062,0.7992,0.7988,0.7988,0.7988,0.7988,0.8038,0.9312,1.0386,1.117,1.249,1.3613,1.4244,1.4298,1.4298,1.4298,1.4298,1.4298,1.4298,1.4298,1.4298,1.4298,1.4298,1.4298,1.4298,1.4298,1.4298,1.4298,1.4298,1.4346,1.4346,1.5188,1.6203,1.6947,1.7522,1.8141,1.8673,1.8954,1.915,1.9374,1.9543,1.9291,1.9112,1.9222,1.9292,1.9292,1.9292,1.9292,1.9292,1.9292,1.9292,1.9292,1.9292,1.9292,1.9292,1.9292,1.9292,1.9292,1.9292,1.9292,1.9292,1.9529,1.9883,2.0323,2.0849,2.1237,2.1649,2.2467,2.3289,2.3175,2.3207,0.7988,0.7988,0.7988,0.7988,0.7988,0.7988,0.7988,0.7988,0.7988,0.7988,0.7988,0.7988,0.7988,0.7988,0.7988,0.7988,0.8046,0.818,0.8248,0.8367,0.852,0.8611,0.8703,0.8788,0.8849,0.8906,0.8937,0.8937,0.8937,0.8937,0.8937,0.8937,0.8937,0.8937,0.8868,0.8841,0.8774,0.8645,0.8499,0.8394,0.8306,0.8231,0.8208,0.817,0.8079,0.8005,0.7988,0.7988,0.7988,0.7988,0.7988,0.9019,1.0925,1.1268,1.2096,1.3956,1.4298,1.4298,1.4298,1.4298,1.4298,1.4298,1.4298,1.4298,1.4298,1.4298,1.4298,1.4298,1.4298,1.4298,1.4298,1.4298,1.4298,1.4298,1.4382,1.4924,1.588,1.6549,1.7194,1.8138,1.867,1.8958,1.9161,1.9289,1.9373,1.9138,1.9073,1.9222,1.9292,1.9292,1.9292,1.9292,1.9292,1.9292,1.9292,1.9292,1.9292,1.9292,1.9292,1.9292,1.9292,1.9292,1.9292,1.9292,1.9292,1.9341,1.946,1.9987,2.0583,2.0913,2.136,2.2221,2.2884,2.286,2.3255,0.7988,0.7988,0.7988,0.7988,0.7988,0.7988,0.7988,0.7988,0.7988,0.7988,0.7988,0.7988,0.7988,0.7988,0.7988,0.7995,0.8012,0.8265,0.8367,0.8414,0.8557,0.871,0.8733,0.8801,0.8807,0.8861,0.8937,0.8937,0.8937,0.8937,0.8937,0.8937,0.8937,0.8937,0.8878,0.8868,0.8834,0.8777,0.8665,0.856,0.8462,0.836,0.8296,0.8248,0.8126,0.8012,0.7988,0.7988,0.7988,0.7988,0.7988,0.9019,1.1023,1.1901,1.2635,1.425,1.4298,1.4298,1.4298,1.4298,1.4298,1.4298,1.4298,1.4298,1.4298,1.4298,1.4298,1.4298,1.4298,1.4298,1.4298,1.4298,1.4298,1.4298,1.4501,1.475,1.5402,1.6052,1.7044,1.8095,1.8655,1.8958,1.9161,1.9263,1.9329,1.9223,1.9152,1.9222,1.9292,1.9292,1.9292,1.9292,1.9292,1.9292,1.9292,1.9292,1.9292,1.9292,1.9292,1.9292,1.9292,1.9311,1.932,1.9311,1.9292,1.9405,1.9592,1.9928,2.0407,2.0794,2.1123,2.1671,2.2408,2.29,2.3484,0.7988,0.7988,0.7988,0.7988,0.7988,0.7988,0.7988,0.7988,0.7988,0.7988,0.7988,0.7988,0.7988,0.7988,0.7988,0.8015,0.8153,0.8336,0.8472,0.8559,0.8747,0.8831,0.8841,0.8933,0.8861,0.8871,0.8937,0.8937,0.8937,0.8937,0.8937,0.8937,0.8937,0.8937,0.8937,0.8937,0.8861,0.8828,0.8733,0.8686,0.8554,0.8418,0.8296,0.8323,0.8167,0.8012,0.7995,0.7988,0.7988,0.7988,0.8283,0.9118,1.0979,1.2689,1.3661,1.425,1.4298,1.4298,1.4298,1.4298,1.4298,1.4298,1.4298,1.4298,1.4298,1.4298,1.4298,1.4298,1.4298,1.4298,1.4298,1.4298,1.4298,1.4298,1.4424,1.4861,1.5558,1.6303,1.7288,1.8181,1.857,1.8878,1.9006,1.9127,1.9221,1.9214,1.9271,1.9301,1.9292,1.9292,1.9292,1.9292,1.9292,1.9292,1.9292,1.9292,1.9292,1.9292,1.9292,1.9292,1.9292,1.932,1.9356,1.9402,1.9467,1.965,1.9846,2.0208,2.0583,2.0973,2.1222,2.1268,2.1787,2.2571,2.3372,0.7988,0.7988,0.7988,0.7988,0.7988,0.7988,0.7988,0.7988,0.7988,0.7988,0.7988,0.7988,0.7988,0.7988,0.7992,0.8035,0.8241,0.8353,0.853,0.8648,0.8794,0.8865,0.8937,0.8937,0.8937,0.8937,0.8937,0.8937,0.8937,0.8937,0.8937,0.8937,0.8937,0.8937,0.8937,0.8937,0.8881,0.8878,0.8838,0.8787,0.8774,0.8665,0.8567,0.8431,0.8286,0.8126,0.8035,0.7988,0.7988,0.7988,0.7988,0.9167,1.1077,1.2441,1.3468,1.4106,1.4298,1.4298,1.4298,1.4298,1.4298,1.4298,1.4298,1.4298,1.4298,1.4298,1.4298,1.4298,1.4298,1.4298,1.4298,1.4298,1.4298,1.4298,1.4334,1.5012,1.571,1.6605,1.7539,1.8048,1.8483,1.8727,1.8882,1.8988,1.9069,1.916,1.9246,1.9301,1.9292,1.9292,1.9292,1.9292,1.9292,1.9292,1.9292,1.9292,1.9292,1.9292,1.9292,1.9292,1.9311,1.9476,1.9622,1.9632,1.9705,1.9943,2.0237,2.0558,2.0924,2.1252,2.141,2.1463,2.1661,2.2322,2.3069,0.7988,0.7988,0.7988,0.7988,0.7988,0.7988,0.7988,0.7988,0.7988,0.7988,0.7988,0.7988,0.7988,0.7988,0.7992,0.8126,0.8262,0.8391,0.8513,0.8686,0.8781,0.8817,0.8851,0.8923,0.8937,0.8937,0.8937,0.8937,0.8937,0.8937,0.8937,0.8937,0.8937,0.8937,0.8937,0.8937,0.8937,0.8937,0.8937,0.8937,0.891,0.8747,0.8598,0.8448,0.8296,0.815,0.8035,0.7988,0.7988,0.8478,0.892,0.9801,1.1414,1.2732,1.3661,1.4148,1.4298,1.4298,1.4298,1.4298,1.4298,1.4298,1.4298,1.4298,1.4298,1.4298,1.4298,1.4298,1.4298,1.4298,1.4298,1.4298,1.4298,1.4298,1.4387,1.4763,1.5643,1.6546,1.7517,1.8346,1.8701,1.8919,1.9,1.8912,1.9039,1.9128,1.9231,1.9231,1.9262,1.9292,1.9292,1.9292,1.9292,1.9292,1.9292,1.9292,1.9292,1.9292,1.9292,1.9439,1.9549,1.971,1.9857,1.998,2.0118,2.0365,2.0668,2.0924,2.1138,2.1434,2.1546,2.1658,2.1909,2.2087,2.2643,0.7988,0.7988,0.7988,0.7988,0.7988,0.7988,0.7988,0.7988,0.7988,0.7988,0.7988,0.7988,0.7988,0.7988,0.7995,0.8153,0.8238,0.8344,0.8465,0.8601,0.8665,0.8723,0.8801,0.8876,0.8896,0.8923,0.8937,0.8937,0.8937,0.8937,0.8937,0.8937,0.8937,0.8937,0.8937,0.8937,0.8937,0.8937,0.8937,0.8937,0.8828,0.8689,0.8601,0.8445,0.8262,0.8106,0.8029,0.7998,0.7998,0.8577,0.9509,1.044,1.1463,1.2684,1.3613,1.4154,1.4298,1.4298,1.4298,1.4298,1.4298,1.4298,1.4298,1.4298,1.4298,1.4298,1.4298,1.4298,1.4298,1.4298,1.4298,1.4298,1.4298,1.4436,1.4553,1.4738,1.5688,1.6674,1.764,1.8558,1.8842,1.9092,1.8956,1.8899,1.9017,1.9136,1.9152,1.9152,1.9192,1.9262,1.9292,1.9292,1.9292,1.9292,1.9292,1.9292,1.9301,1.9292,1.9329,1.9567,1.9793,2.0095,2.0305,2.0369,2.0576,2.0833,2.0961,2.1154,2.1376,2.1595,2.1632,2.1687,2.1731,2.1909,2.222,0.7988,0.7988,0.7988,0.7988,0.7988,0.7988,0.7988,0.7988,0.7988,0.7988,0.7988,0.7988,0.7988,0.7988,0.7988,0.8123,0.8303,0.8327,0.8364,0.8503,0.8584,0.8584,0.8632,0.8774,0.8835,0.8838,0.8937,0.8937,0.8937,0.8937,0.8937,0.8937,0.8937,0.8937,0.8937,0.8937,0.8937,0.8937,0.8878,0.8875,0.8868,0.8832,0.8788,0.8648,0.8496,0.8353,0.8238,0.8052,0.8008,0.8382,0.9213,1.0293,1.1365,1.2436,1.3366,1.4154,1.4298,1.4298,1.4298,1.4298,1.4298,1.4298,1.4298,1.4298,1.4298,1.4298,1.4298,1.4298,1.4298,1.4298,1.4298,1.4298,1.4346,1.4723,1.4918,1.5371,1.6063,1.7078,1.8125,1.8669,1.8991,1.8913,1.869,1.8798,1.9115,1.9178,1.9145,1.9127,1.9222,1.9262,1.9292,1.9311,1.932,1.9301,1.9311,1.9311,1.9301,1.9301,1.9393,1.9677,2.0031,2.0604,2.0796,2.0799,2.1062,2.1328,2.1438,2.1383,2.1476,2.165,2.1668,2.1687,2.1687,2.1776,2.1998]}]]